[[{"header":{"parameterUnit":"m.s-1","parameterCategory":1,"la1":30.6,"la2":28.766,"lo1":-90.7593,"lo2":-88.6598,"dy":0.0162,"dx":0.0183,"nx":116,"ny":114,"refTime":"2023-10-31T12:00:00:Z","depth":0,"parameterNumber":2,"parameterNumberName":"U-component_of_WINDS"},"data":[0.0,0.0,0.0,0.0,0.0,0.0,0.0,0.0,0.0,0.0,0.0,0.0,0.0,0.0,0.0,0.0,0.0,0.0,0.0,0.0,0.0,0.0,0.0,0.0,0.0,0.0,0.0,0.0,0.0,0.0,0.0,0.0,0.0,0.0,0.0,0.0,0.0,0.0,0.0,0.0,0.0,0.0,0.0,0.0,0.0,0.0,0.0,0.0,0.0,0.0,0.0,0.0,0.0,0.0,0.0,0.0,0.0,0.0,0.0,0.0,0.0,0.0,0.0,0.0,0.0,0.0,0.0,0.0,0.0,0.0,0.0,0.0,0.0,0.0,0.0,0.0,0.0,0.0,0.0,0.0,0.0,0.0,0.0,0.0,0.0,0.0,0.0,0.0,0.0,0.0,0.0,0.0,0.0,0.0,0.0,0.0,0.0,0.0,0.0,0.0,0.0,0.0,0.0,0.0,0.0,0.0,0.0,0.0,0.0,0.0,0.0,0.0,0.0,0.0,0.0,0.0,0.0,0.0,0.0,0.0,0.0,0.0,0.0,0.0,0.0,0.0,0.0,0.0,0.0,0.0,0.0,0.0,0.0,0.0,0.0,0.0,0.0,0.0,0.0,0.0,0.0,0.0,0.0,0.0,0.0,0.0,0.0,0.0,0.0,0.0,0.0,0.0,0.0,0.0,0.0,0.0,0.0,0.0,0.0,0.0,0.0,0.0,0.0,0.0,0.0,0.0,0.0,0.0,0.0,0.0,0.0,0.0,0.0,0.0,0.0,0.0,0.0,0.0,0.0,0.0,0.0,0.0,0.0,0.0,0.0,0.0,0.0,0.0,0.0,0.0,0.0,0.0,0.0,0.0,0.0,0.0,0.0,0.0,0.0,0.0,0.0,0.0,0.0,0.0,0.0,0.0,0.0,0.0,0.0,0.0,0.0,0.0,0.0,0.0,0.0,0.0,0.0,0.0,0.0,0.0,0.0,0.0,0.0,0.0,0.0,0.0,0.0,0.0,0.0,0.0,0.0,0.0,0.0,0.0,0.0,0.0,0.0,0.0,0.0,0.0,0.0,0.0,0.0,0.0,0.0,0.0,0.0,0.0,0.0,0.0,0.0,0.0,0.0,0.0,0.0,0.0,0.0,0.0,0.0,0.0,0.0,0.0,0.0,0.0,0.0,0.0,0.0,0.0,0.0,0.0,0.0,0.0,0.0,0.0,0.0,0.0,0.0,0.0,0.0,0.0,0.0,0.0,0.0,0.0,0.0,0.0,0.0,0.0,0.0,0.0,0.0,0.0,0.0,0.0,0.0,0.0,0.0,0.0,0.0,0.0,0.0,0.0,0.0,0.0,0.0,0.0,0.0,0.0,0.0,0.0,0.0,0.0,0.0,0.0,0.0,0.0,0.0,0.0,0.0,0.0,0.0,0.0,0.0,0.0,0.0,0.0,0.0,0.0,0.0,0.0,0.0,0.0,0.0,0.0,0.0,0.0,0.0,0.0,0.0,0.0,0.0,0.0,0.0,0.0,0.0,0.0,0.0,0.0,0.0,0.0,0.0,0.0,0.0,0.0,0.0,0.0,0.0,0.0,0.0,0.0,0.0,0.0,0.0,0.0,0.0,0.0,0.0,0.0,0.0,0.0,0.0,0.0,0.0,0.0,0.0,0.0,0.0,0.0,0.0,0.0,0.0,0.0,0.0,0.0,0.0,0.0,0.0,0.0,0.0,0.0,0.0,0.0,0.0,0.0,0.0,0.0,0.0,0.0,0.0,0.0,0.0,0.0,0.0,0.0,0.0,0.0,0.0,0.0,0.0,0.0,0.0,0.0,0.0,0.0,0.0,0.0,0.0,0.0,0.0,0.0,0.0,0.0,0.0,0.0,0.0,0.0,0.0,0.0,0.0,0.0,0.0,0.0,0.0,0.0,0.0,0.0,0.0,0.0,0.0,0.0,0.0,0.0,0.0,0.0,0.0,0.0,0.0,0.0,0.0,0.0,0.0,0.0,0.0,0.0,0.0,0.0,0.0,0.0,0.0,0.0,0.0,0.0,0.0,0.0,0.0,0.0,0.0,0.0,0.0,0.0,0.0,0.0,0.0,0.0,0.0,0.0,0.0,0.0,0.0,0.0,0.0,0.0,0.0,0.0,0.0,0.0,0.0,0.0,0.0,0.0,0.0,0.0,0.0,0.0,0.0,0.0,0.0,0.0,0.0,0.0,0.0,0.0,0.0,0.0,0.0,0.0,0.0,0.0,0.0,0.0,0.0,0.0,0.0,0.0,0.0,0.0,0.0,0.0,0.0,0.0,0.0,0.0,0.0,0.0,0.0,0.0,0.0,0.0,0.0,0.0,0.0,0.0,0.0,0.0,0.0,0.0,0.0,0.0,0.0,0.0,0.0,0.0,0.0,0.0,0.0,0.0,0.0,0.0,0.0,0.0,0.0,0.0,0.0,0.0,0.0,0.0,0.0,0.0,0.0,0.0,0.0,0.0,0.0,0.0,0.0,0.0,0.0,0.0,0.0,0.0,0.0,0.0,0.0,0.0,0.0,0.0,0.0,0.0,0.0,0.0,0.0,0.0,0.0,0.0,0.0,0.0,0.0,0.0,0.0,0.0,0.0,0.0,0.0,0.0,0.0,0.0,0.0,0.0,0.0,0.0,0.0,0.0,0.0,0.0,0.0,0.0,0.0,0.0,0.0,0.0,0.0,0.0,0.0,0.0,0.0,0.0,0.0,0.0,0.0,0.0,0.0,0.0,0.0,0.0,0.0,0.0,0.0,0.0,0.0,0.0,0.0,0.0,0.0,0.0,0.0,0.0,0.0,0.0,0.0,0.0,0.0,0.0,0.0,0.0,0.0,0.0,0.0,0.0,0.0,0.0,0.0,0.0,0.0,0.0,0.0,0.0,0.0,0.0,0.0,0.0,0.0,0.0,0.0,0.0,0.0,0.0,0.0,0.0,0.0,0.0,0.0,0.0,0.0,0.0,0.0,0.0,0.0,0.0,0.0,0.0,0.0,0.0,0.0,0.0,0.0,0.0,0.0,0.0,0.0,0.0,0.0,0.0,0.0,0.0,0.0,0.0,0.0,0.0,0.0,0.0,0.0,0.0,0.0,0.0,0.0,0.0,0.0,0.0,0.0,0.0,0.0,0.0,0.0,0.0,0.0,0.0,0.0,0.0,0.0,0.0,0.0,0.0,0.0,0.0,0.0,0.0,0.0,0.0,0.0,0.0,0.0,0.0,0.0,0.0,0.0,0.0,0.0,0.0,0.0,0.0,0.0,0.0,0.0,0.0,0.0,0.0,0.0,0.0,0.0,0.0,0.0,0.0,0.0,0.0,0.0,0.0,0.0,0.0,0.0,0.0,0.0,0.0,0.0,0.0,0.0,0.0,0.0,0.0,0.0,0.0,0.0,0.0,0.0,0.0,0.0,0.0,0.0,0.0,0.0,0.0,0.0,0.0,0.0,0.0,0.0,0.0,0.0,0.0,0.0,0.0,0.0,0.0,0.0,0.0,0.0,0.0,0.0,0.0,0.0,0.0,0.0,0.0,0.0,0.0,0.0,0.0,0.0,0.0,0.0,0.0,0.0,0.0,0.0,0.0,0.0,0.0,0.0,0.0,0.0,0.0,0.0,0.0,0.0,0.0,0.0,0.0,0.0,0.0,0.0,0.0,0.0,0.0,0.0,0.0,0.0,0.0,0.0,0.0,0.0,0.0,0.0,0.0,0.0,0.0,0.0,0.0,0.0,0.0,0.0,0.0,0.0,0.0,0.0,0.0,0.0,0.0,0.0,0.0,0.0,0.0,0.0,0.0,0.0,0.0,0.0,0.0,0.0,0.0,0.0,0.0,0.0,0.0,0.0,0.0,0.0,0.0,0.0,0.0,0.0,0.0,0.0,0.0,0.0,0.0,0.0,0.0,0.0,0.0,0.0,0.0,0.0,0.0,0.0,0.0,0.0,0.0,0.0,0.0,0.0,0.0,0.0,0.0,0.0,0.0,0.0,0.0,0.0,0.0,0.0,0.0,0.0,0.0,0.0,0.0,0.0,0.0,0.0,0.0,0.0,0.0,0.0,0.0,0.0,0.0,0.0,0.0,0.0,0.0,0.0,0.0,0.0,0.0,0.0,0.0,0.0,0.0,0.0,0.0,0.0,0.0,0.0,0.0,0.0,0.0,0.0,0.0,0.0,0.0,0.0,0.0,0.0,0.0,0.0,0.0,0.0,0.0,0.0,0.0,0.0,0.0,0.0,0.0,0.0,0.0,0.0,0.0,0.0,0.0,0.0,0.0,0.0,0.0,0.0,0.0,0.0,0.0,0.0,0.0,0.0,0.0,0.0,0.0,0.0,0.0,0.0,0.0,0.0,0.0,0.0,0.0,0.0,0.0,0.0,0.0,0.0,0.0,0.0,0.0,0.0,0.0,0.0,0.0,0.0,0.0,0.0,0.0,0.0,0.0,0.0,0.0,0.0,0.0,0.0,0.0,0.0,0.0,0.0,0.0,0.0,0.0,0.0,0.0,0.0,0.0,0.0,0.0,0.0,0.0,0.0,0.0,0.0,0.0,0.0,0.0,0.0,0.0,0.0,0.0,0.0,0.0,0.0,0.0,0.0,0.0,0.0,0.0,0.0,0.0,0.0,0.0,0.0,0.0,0.0,0.0,0.0,0.0,0.0,0.0,0.0,0.0,0.0,0.0,0.0,0.0,0.0,0.0,0.0,0.0,0.0,0.0,0.0,0.0,0.0,0.0,0.0,0.0,0.0,0.0,0.0,0.0,0.0,0.0,0.0,0.0,0.0,0.0,0.0,0.0,0.0,0.0,0.0,0.0,0.0,0.0,0.0,0.0,0.0,0.0,0.0,0.0,0.0,0.0,0.0,0.0,0.0,0.0,0.0,0.0,0.0,0.0,0.0,0.0,0.0,0.0,0.0,0.0,0.0,0.0,0.0,0.0,0.0,0.0,0.0,0.0,0.0,0.0,0.0,0.0,0.0,0.0,0.0,0.0,0.0,0.0,0.0,0.0,0.0,0.0,0.0,0.0,0.0,0.0,0.0,0.0,0.0,0.0,0.0,0.0,0.0,0.0,0.0,0.0,0.0,0.0,0.0,0.0,0.0,0.0,0.0,0.0,0.0,0.0,0.0,0.0,0.0,0.0,0.0,0.0,0.0,0.0,0.0,0.0,0.0,0.0,0.0,0.0,0.0,0.0,0.0,0.0,0.0,0.0,0.0,0.0,0.0,0.0,0.0,0.0,0.0,0.0,0.0,0.0,0.0,0.0,0.0,0.0,0.0,0.0,0.0,0.0,0.0,0.0,0.0,0.0,0.0,0.0,0.0,0.0,0.0,0.0,0.0,0.0,0.0,0.0,0.0,0.0,0.0,0.0,0.0,0.0,0.0,0.0,0.0,0.0,0.0,0.0,0.0,0.0,0.0,0.0,0.0,0.0,0.0,0.0,0.0,0.0,0.0,0.0,0.0,0.0,0.0,0.0,0.0,0.0,0.0,0.0,0.0,0.0,0.0,0.0,0.0,0.0,0.0,0.0,0.0,0.0,0.0,0.0,0.0,0.0,0.0,0.0,0.0,0.0,0.0,0.0,0.0,0.0,0.0,0.0,0.0,0.0,0.0,0.0,0.0,0.0,0.0,0.0,0.0,0.0,0.0,0.0,0.0,0.0,0.0,0.0,0.0,0.0,0.0,0.0,0.0,0.0,0.0,0.0,0.0,0.0,0.0,0.0,0.0,0.0,0.0,0.0,0.0,0.0,0.0,0.0,0.0,0.0,0.0,0.0,0.0,0.0,0.0,0.0,0.0,0.0,0.0,0.0,0.0,0.0,0.0,0.0,0.0,0.0,0.0,0.0,0.0,0.0,0.0,0.0,0.0,0.0,0.0,0.0,0.0,0.0,0.0,0.0,0.0,0.0,0.0,0.0,0.0,0.0,0.0,0.0,0.0,0.0,0.0,0.0,0.0,0.0,0.0,0.0,0.0,0.0,0.0,0.0,0.0,0.0,0.0,0.0,0.0,0.0,0.0,0.0,0.0,0.0,0.0,0.0,0.0,0.0,0.0,0.0,0.0,0.0,0.0,0.0,0.0,0.0,1.3156,0.0,0.0,0.0,0.0,0.0,0.0,0.0,0.0,0.0,0.0,0.0,0.0,0.0,0.0,0.0,0.0,0.0,0.0,0.0,0.0,0.0,0.0,0.0,0.0,0.0,0.0,0.0,0.0,0.0,0.0,0.0,0.0,0.0,0.0,0.0,0.0,0.0,0.0,0.0,1.1318,1.0936,1.0934,1.0837,1.1651,1.3137,0.0,0.0,0.0,0.0,0.0,0.0,0.0,0.0,0.0,0.0,0.0,0.0,0.0,0.0,0.0,0.0,0.0,0.0,0.0,0.0,0.0,0.0,0.0,0.0,0.0,0.0,0.0,0.0,0.0,0.0,0.0,0.0,0.0,0.0,0.0,0.0,0.0,0.0,0.0,0.0,0.0,0.0,0.0,0.0,0.0,0.0,0.0,0.0,0.0,0.0,0.0,0.0,0.0,0.0,0.0,0.0,0.0,0.0,0.0,0.0,0.0,0.0,0.0,0.0,0.0,0.0,0.0,0.0,0.0,0.0,0.0,1.4111,0.0,0.0,0.0,0.0,0.0,0.0,0.0,0.0,0.0,0.0,0.0,0.0,0.0,0.0,0.0,0.0,0.0,0.0,0.0,0.0,0.0,0.0,0.0,0.0,0.0,0.0,0.0,0.0,0.0,0.0,0.0,0.0,0.0,0.0,0.0,1.1686,1.1863,1.2153,1.0705,0.9662,0.9049,0.9517,1.0841,1.286,1.2787,0.0,0.0,0.0,0.0,0.0,0.0,0.0,0.0,0.0,0.0,0.0,0.0,0.0,0.0,0.0,0.0,0.0,0.0,0.0,0.0,0.0,0.0,0.0,0.0,0.0,0.0,0.0,0.0,0.0,0.0,0.0,0.0,0.0,0.0,0.0,0.0,0.0,0.0,0.0,0.0,0.0,0.0,0.0,0.0,0.0,0.0,0.0,0.0,0.0,0.0,0.0,0.0,0.0,0.0,0.0,0.0,0.0,0.0,0.0,0.0,0.0,0.0,0.0,0.0,1.4034,1.416,1.2854,1.232,1.2474,1.3471,1.3241,1.2458,0.0,0.0,0.0,0.0,0.0,0.0,0.0,0.0,0.0,0.0,0.0,0.0,0.0,0.0,0.0,0.0,0.0,0.0,0.0,0.0,0.0,0.0,1.1975,1.25,1.3313,1.3167,1.3127,0.0,0.0,0.0,0.0,0.0,0.0,1.261,1.2839,1.2531,1.1603,1.075,1.023,1.0017,1.0436,1.0823,1.1099,1.0692,1.1707,1.3612,0.0,0.0,0.0,0.0,0.0,0.0,0.0,0.0,0.0,0.0,0.0,0.0,0.0,0.0,0.0,0.0,0.0,0.0,0.0,0.0,0.0,0.0,0.0,0.0,0.0,0.0,0.0,0.0,0.0,0.0,0.0,0.0,0.0,0.0,0.0,0.0,0.0,0.0,0.0,0.0,0.0,1.1588,1.1732,0.0,0.0,0.0,0.0,0.0,0.0,0.0,0.0,0.0,0.0,0.0,0.0,0.0,0.0,1.439,1.3322,1.2697,1.2572,1.1656,1.1182,1.1098,1.0852,1.0834,1.0974,1.1027,0.0,1.2732,1.3201,0.0,0.0,0.0,0.0,0.0,0.0,0.0,0.0,0.0,0.0,0.0,0.0,0.0,0.0,0.0,0.0,0.0,0.0,0.0,0.0,0.0,1.1847,1.1964,1.2687,1.2141,1.2115,1.297,0.0,0.0,0.0,0.0,1.3367,1.3253,1.3367,1.2633,1.0993,1.0365,0.9477,0.8348,0.873,0.8837,0.8708,0.8616,0.9857,1.1992,1.1732,0.0,0.0,0.0,0.0,0.0,0.0,0.0,0.0,0.0,0.0,0.0,0.0,0.0,0.0,0.0,0.0,0.0,0.0,0.0,0.0,0.0,0.0,0.0,0.0,0.0,0.0,0.0,0.0,0.0,0.0,0.0,0.0,0.0,0.0,0.0,0.0,0.0,0.0,0.0,1.3327,1.3528,1.3649,1.4305,1.4977,0.0,0.0,0.0,0.0,0.0,0.0,0.0,0.0,0.0,1.3154,1.3265,1.3057,1.253,1.2076,1.1751,1.1563,1.1052,1.0732,1.0622,1.0622,1.0623,1.0684,1.0649,1.0987,1.1711,1.2682,1.3416,1.4104,0.0,0.0,0.0,0.0,0.0,1.8769,0.0,0.0,0.0,0.0,0.0,0.0,0.0,0.0,0.0,0.0,0.0,0.0,1.1709,1.1276,1.1219,1.1893,1.1205,1.1289,1.2627,1.2464,0.0,0.0,1.4055,1.3954,1.3954,1.3332,1.211,1.0272,0.9603,0.8513,0.7026,0.7346,0.74,0.7242,0.7414,0.8643,1.0571,1.0711,1.1059,1.1575,0.0,0.0,0.0,0.0,0.0,0.0,0.0,0.0,0.0,0.0,0.0,0.0,0.0,0.0,0.0,0.0,0.0,0.0,0.0,0.0,0.0,0.0,0.0,0.0,0.0,0.0,0.0,0.0,0.0,0.0,0.0,0.0,0.0,0.0,0.0,0.0,0.0,1.4071,1.411,1.4149,1.4411,1.485,0.0,0.0,0.0,0.0,0.0,0.0,1.3572,1.3303,1.2895,1.2364,1.2486,1.209,1.1137,1.1206,1.1165,1.1029,1.0948,1.1143,1.1528,1.0992,1.1005,1.1463,1.0971,1.0725,1.0796,1.2067,1.249,1.2659,1.5774,1.6879,0.0,1.7685,1.8825,1.9768,0.0,0.0,0.0,0.0,0.0,0.0,0.0,0.0,0.0,0.0,0.0,0.9798,1.0338,1.0316,1.0594,1.1475,1.1248,1.1619,1.2904,1.2961,1.3416,1.4444,1.4772,1.4919,1.4919,1.2621,1.0729,0.9364,0.8394,0.7722,0.7376,0.7651,0.7712,0.7584,0.7726,0.8797,1.0466,0.9839,1.0588,1.2241,1.3069,0.0,0.0,0.0,0.0,0.0,0.0,0.0,0.0,0.0,0.0,0.0,0.0,0.0,0.0,0.0,0.0,0.0,0.0,0.0,0.0,0.0,0.0,0.0,0.0,0.0,0.0,0.0,0.0,0.0,0.0,0.0,0.0,0.0,0.0,0.0,0.0,0.0,0.0,1.1354,1.1937,0.0,0.0,0.0,0.0,1.3985,1.2894,1.2411,1.2754,1.1677,1.1166,1.1475,1.1597,1.1676,1.1746,1.1518,1.1375,1.1369,1.1049,1.192,1.3781,1.1803,1.1899,1.3553,1.1697,1.0819,1.0711,1.0678,1.0635,1.0808,1.2502,1.3171,1.335,1.505,1.6677,1.8026,0.0,0.0,0.0,0.0,0.0,0.0,0.0,0.0,0.0,1.158,1.0712,1.0384,1.1348,1.027,0.9689,1.018,0.9525,0.9678,1.0991,1.1684,1.266,1.4054,1.4689,1.4669,1.399,1.1472,1.0005,0.9751,0.8535,0.7831,0.7658,0.7837,0.7851,0.774,0.7864,0.8294,0.8867,0.8625,0.9177,1.0222,1.0545,1.1081,0.0,0.0,0.0,0.0,0.0,0.0,0.0,0.0,0.0,0.0,0.0,0.0,0.0,0.0,0.0,0.0,0.0,0.0,0.0,0.0,0.0,0.0,0.0,0.0,0.0,0.0,0.0,0.0,0.0,0.0,0.0,0.0,0.0,0.0,0.0,0.0,0.0,1.3125,1.2957,0.0,0.0,1.5166,1.5161,1.5194,1.4056,1.3478,1.3779,1.3375,1.3749,1.5105,1.4017,1.3495,1.3668,1.344,1.3322,1.335,1.4354,1.5189,1.5769,1.5017,1.5082,1.5687,1.499,1.4569,1.4397,1.4509,1.3666,1.2474,1.418,1.5409,1.6338,1.7131,1.8387,1.9565,0.0,0.0,0.0,0.0,0.0,0.0,0.0,0.0,0.0,1.1533,1.0632,1.0158,1.0665,0.9402,0.8644,0.897,0.8346,0.8517,0.9904,1.1024,1.2313,1.3838,1.4356,1.388,1.2278,1.0554,0.9559,0.9312,0.8428,0.7939,0.7814,0.7946,0.7932,0.7821,0.7946,0.7988,0.7995,0.8067,0.834,0.8783,0.928,1.035,1.1629,0.0,0.0,0.0,0.0,0.0,0.0,0.0,0.0,0.0,0.0,0.0,0.0,0.0,0.0,0.0,0.0,0.0,0.0,0.0,0.0,0.0,0.0,0.0,0.0,0.0,0.0,0.0,0.0,0.0,0.0,0.0,0.0,0.0,0.0,0.0,1.3961,1.5638,1.5146,1.5319,1.7111,1.674,1.6426,1.657,1.5803,1.5384,1.5506,1.5641,1.6188,1.7263,1.6286,1.575,1.5777,1.5687,1.5587,1.5515,1.6717,1.7576,1.8048,1.7347,1.7384,1.7952,1.7198,1.6729,1.6535,1.664,1.6098,1.5338,1.6481,1.7484,1.834,1.9091,2.0017,2.0686,0.0,0.0,0.0,0.0,0.0,0.0,0.0,1.1907,1.1496,1.035,0.9691,0.9013,0.8193,0.7684,0.7563,0.7973,0.7871,0.8433,0.9902,1.1187,1.2501,1.3894,1.3943,1.274,1.0165,1.0076,0.9435,0.8113,0.8113,0.8062,0.7942,0.8069,0.803,0.7869,0.7995,0.8045,0.8033,0.8208,0.8187,0.8144,0.9566,1.0668,1.1566,0.0,0.0,0.0,0.0,0.0,0.0,0.0,0.0,0.0,0.0,0.0,0.0,0.0,0.0,0.0,0.0,0.0,0.0,0.0,0.0,0.0,0.0,0.0,0.0,0.0,0.0,0.0,0.0,0.0,0.0,0.0,0.0,0.0,1.7085,1.6398,1.6615,1.847,1.8127,1.7569,1.7156,1.7546,1.7864,1.8011,1.7985,1.796,1.7817,1.8179,1.8173,1.7699,1.8142,1.8275,1.8024,1.8134,1.8068,1.7817,1.7985,1.8984,2.0545,1.8603,1.8705,2.0305,1.8132,1.7111,1.6985,1.6701,1.7599,1.9108,1.9019,1.8833,1.88,2.0494,2.1109,2.1109,0.0,0.0,0.0,0.0,0.0,0.0,0.0,1.2035,1.2078,1.2559,1.0857,0.9822,1.0468,0.8839,0.7787,0.7993,0.7783,0.8323,0.9905,1.0915,1.251,1.4868,1.463,1.3909,1.2861,1.1867,1.1194,1.0828,1.0828,1.0824,1.0769,1.08,1.0311,0.9388,0.9436,0.8992,0.8208,0.8281,0.837,0.8539,0.884,0.9557,1.0451,0.0,0.0,0.0,0.0,0.0,0.0,0.0,0.0,0.0,0.0,0.0,0.0,0.0,0.0,0.0,0.0,0.0,0.0,0.0,0.0,0.0,0.0,0.0,0.0,0.0,0.0,0.0,0.0,0.0,0.0,0.0,0.0,1.8262,1.8443,1.7533,1.7175,1.8031,1.8336,1.8837,1.9734,2.0238,2.0461,2.0311,2.03,2.0263,2.0238,2.0326,2.0915,2.2008,2.1074,2.047,2.0292,2.0438,2.0404,2.0263,2.1545,2.2436,2.2876,2.2325,2.2357,2.2782,2.196,2.1462,2.122,2.1145,2.1149,2.1018,1.9289,1.9352,2.043,2.0919,2.1109,2.1109,0.0,0.0,0.0,0.0,0.0,0.0,0.0,1.2478,1.2593,1.2999,1.1444,1.0383,1.0632,0.8894,0.776,0.7824,0.7699,0.8345,1.0079,1.1756,1.3319,1.472,1.4456,1.3909,1.3078,1.2304,1.1901,1.1901,1.1901,1.1901,1.1901,1.1901,1.1512,1.0803,1.0803,1.0501,1.0011,1.0085,1.0248,1.0502,1.0496,1.0524,1.0544,1.0409,1.1069,1.1985,1.1736,1.1563,1.1559,1.2212,0.0,0.0,0.0,0.0,0.0,0.0,0.0,0.0,0.0,0.0,0.0,0.0,0.0,0.0,0.0,0.0,0.0,0.0,0.0,0.0,0.0,0.0,0.0,0.0,1.9873,2.0622,2.1427,2.0029,1.9379,2.0748,2.1224,2.1796,2.2732,2.308,2.3117,2.2843,2.2831,2.2731,2.2459,2.2558,2.3057,2.3919,2.3292,2.2892,2.2831,2.3005,2.3005,2.2855,2.387,2.4249,2.4128,2.4008,2.3991,0.0,2.3634,2.3407,2.3268,2.3148,2.2779,0.0,0.0,0.0,0.0,0.0,2.1216,2.1109,0.0,0.0,0.0,0.0,0.0,0.0,0.0,1.3071,1.3091,1.2608,1.1881,1.102,1.0056,0.8785,0.8013,0.7989,0.8045,0.8898,1.0808,1.3468,1.471,1.4148,1.4244,1.3713,1.2419,1.2426,1.2436,1.2436,1.2436,1.2436,1.2436,1.2405,1.2342,1.2241,1.2186,1.227,1.249,1.2628,1.2851,1.3101,1.3329,1.267,1.1541,1.1296,1.2119,1.3349,1.3049,1.28,1.259,1.2395,0.0,0.0,0.0,0.0,0.0,0.0,0.0,0.0,0.0,0.0,0.0,0.0,0.0,0.0,0.0,0.0,0.0,0.0,0.0,0.0,0.0,0.0,0.0,0.0,2.2806,2.3576,2.4927,2.315,2.2606,2.4887,2.5195,2.5264,2.5491,2.5545,2.5438,2.5157,2.5168,2.4903,2.4382,0.0,0.0,0.0,0.0,2.5157,2.5168,2.5411,2.5411,2.5168,2.5168,2.4983,2.4693,2.4436,2.4302,2.4289,2.3991,2.3857,2.383,2.35,2.3193,2.292,2.2512,2.2218,2.1984,2.1729,2.1448,0.0,0.0,0.0,0.0,0.0,0.0,0.0,0.0,1.3349,1.3837,1.4051,1.3555,1.3054,1.2683,1.1407,1.0546,1.0422,1.0784,1.1731,1.3539,1.5873,1.6653,1.5486,1.6321,1.6382,1.5474,1.5667,1.5769,1.5769,1.5769,1.5769,1.5769,1.5539,1.5035,1.4232,1.395,1.3484,1.2888,1.3191,1.3416,1.3607,1.4025,1.3825,1.3228,1.3189,1.3492,1.3915,1.3757,1.3824,1.394,1.3434,1.3281,1.3472,1.4358,0.0,0.0,0.0,0.0,0.0,0.0,0.0,0.0,0.0,0.0,0.0,0.0,0.0,0.0,0.0,0.0,0.0,0.0,0.0,0.0,2.2639,2.3634,2.4476,2.501,2.5065,2.5147,2.54,2.5677,2.5757,2.5531,2.5732,2.5784,2.5451,2.5424,2.5384,2.5264,2.5317,0.0,2.5264,2.5598,2.5703,2.5424,2.5718,2.5757,2.5424,0.0,0.0,2.5331,2.5037,2.4917,2.4914,2.4356,2.4115,2.4102,2.3808,2.3514,2.3153,2.2378,2.2031,2.1977,2.1924,2.1756,2.1502,0.0,0.0,0.0,0.0,0.0,0.0,0.0,1.3913,1.4394,1.5055,1.4349,1.3703,1.3424,1.2238,1.1373,1.1218,1.2426,1.3562,1.4426,1.6279,1.7012,1.6297,1.6801,1.6907,1.6524,1.6633,1.678,1.6953,1.678,1.686,1.7128,1.67,1.6388,1.6175,1.5897,1.5589,1.5314,1.5612,1.5774,1.5873,1.6301,1.6372,1.6126,1.471,1.4222,1.4332,1.4259,1.4361,1.4454,1.4081,1.3996,1.4167,1.4813,1.5353,1.5927,0.0,0.0,0.0,0.0,0.0,0.0,0.0,0.0,0.0,0.0,0.0,0.0,0.0,0.0,2.131,0.0,0.0,2.3589,2.4308,2.5037,2.5665,2.6145,2.6466,2.6426,2.5798,2.5904,2.6051,2.6159,2.6306,2.6333,2.6172,2.6172,2.6106,2.5959,2.5945,2.6026,2.6159,2.6172,2.6239,2.6386,2.6279,2.6172,2.6159,2.5879,2.5732,2.5757,2.5315,2.5115,2.505,2.4609,2.4386,2.4396,2.4102,2.3901,2.3701,2.3113,2.2605,2.2205,2.2205,2.2017,2.1783,0.0,0.0,0.0,0.0,0.0,0.0,0.0,0.0,1.4834,1.5681,1.4988,1.4261,1.3913,1.3007,1.2414,1.2439,1.4017,1.5097,1.5303,1.647,1.7092,1.6886,1.6994,1.7021,1.6942,1.7021,1.7168,1.746,1.7168,1.7301,1.7769,1.7221,1.7248,1.7769,1.7474,1.7501,1.7782,1.8063,1.8169,1.8223,1.8597,1.8891,1.8818,1.6503,1.5591,1.5529,1.5529,1.5497,1.5363,1.4996,1.4845,1.4845,1.5032,1.5865,1.6849,1.7265,1.8195,0.0,0.0,0.0,0.0,0.0,0.0,0.0,0.0,0.0,2.0567,2.1778,2.2535,2.3217,2.3846,2.4685,2.5472,2.6062,2.6412,2.672,2.7242,2.7349,2.7108,2.6346,2.6252,2.6439,2.6867,2.6907,2.6907,2.6907,2.6907,2.68,2.6573,2.656,2.6667,2.6894,2.668,2.6827,2.7309,2.6734,2.6587,2.6774,2.6293,2.6078,2.6065,2.5529,2.5251,2.5275,2.4943,2.4733,2.4666,2.4462,2.4302,2.4182,2.3941,2.338,2.2672,2.2619,2.2405,2.2144,0.0,0.0,0.0,0.0,0.0,0.0,0.0,0.0,0.0,1.5724,1.6027,1.6027,1.5583,1.5412,1.5641,1.6388,1.6497,1.6924,1.7748,1.8009,1.7956,1.7515,1.8009,1.817,1.7849,1.8156,1.8303,1.8343,1.8303,1.8317,1.8384,1.8022,1.8049,1.8398,1.8063,1.809,1.841,1.8704,1.8796,1.885,1.9426,1.9666,1.9677,1.9348,1.9073,1.8865,1.8865,1.8667,1.8233,1.6901,1.6373,1.6333,1.6768,1.6926,1.7353,1.9314,0.0,1.9949,2.1116,2.1539,2.1594,2.1357,2.1475,2.1902,0.0,0.0,2.3337,2.3798,2.4384,2.4827,2.4921,2.5458,2.6089,2.6627,2.6974,2.7229,2.7296,2.7495,2.7522,2.7202,2.7162,2.7188,2.7255,2.7255,2.7255,2.7255,2.7255,2.7242,2.7215,2.7202,2.7229,2.7255,2.7229,2.7242,2.7309,2.6934,2.6787,2.6814,2.6493,2.6346,2.6333,2.6051,2.5891,2.5877,2.5545,2.5264,2.5024,2.4997,2.4676,2.4195,2.4168,2.3941,2.3629,2.3327,2.3033,2.276,0.0,0.0,0.0,0.0,0.0,0.0,0.0,0.0,0.0,0.0,1.7082,1.702,1.6547,1.6505,1.6588,1.6864,1.8039,1.8691,1.8436,1.9147,1.9284,1.8653,1.8893,1.8973,1.8811,1.896,1.9107,1.9252,1.9107,1.9172,1.9463,1.9038,1.9065,1.9492,1.9185,1.9132,1.9265,1.953,1.9557,1.9466,1.985,2.0024,2.004,1.9867,1.9626,1.949,2.0046,1.9878,0.0,1.9014,1.8676,1.8378,1.8458,1.8664,1.9116,2.0385,2.0931,0.0,2.18,2.2345,0.0,0.0,2.2276,2.2947,2.3821,2.4,2.4228,2.5085,2.5558,2.5892,2.6066,2.6573,2.7054,0.0,2.7617,2.7817,2.7817,2.7924,2.7951,2.7831,2.7817,2.775,2.7535,2.7522,2.763,2.7804,2.7817,2.7817,2.7817,2.7817,2.7817,2.7817,2.7643,2.7643,2.7817,2.7349,2.7081,2.7081,2.7001,2.672,2.6386,2.6266,2.6026,2.5692,2.5571,2.5451,2.5331,2.5331,2.5184,2.497,2.497,2.4783,2.4436,2.3621,2.3247,2.306,0.0,0.0,0.0,0.0,0.0,0.0,0.0,0.0,0.0,0.0,0.0,1.7853,1.7509,1.7468,1.749,1.7544,1.9053,1.9723,1.9087,1.9923,2.0349,2.0181,2.0276,2.0522,2.0974,2.0974,2.0854,2.0591,2.0399,2.0258,2.0197,1.98,1.9826,2.0197,2.0013,1.992,1.9933,2.0117,2.0077,1.9947,2.021,2.0361,2.0321,2.0027,1.9969,2.0124,2.0566,2.0248,1.9717,2.0473,2.0494,2.0148,1.9935,2.0203,2.0758,2.1319,2.1906,2.2406,2.2426,0.0,0.0,2.273,2.3225,2.3968,2.4556,2.481,2.5184,2.6172,2.6586,2.6814,2.7028,2.7482,2.7816,2.7816,2.8045,2.8179,2.8179,2.8179,2.8179,2.8179,2.8179,2.8098,2.7843,2.7816,2.7951,2.8165,2.8179,2.8179,2.8179,2.8179,2.8179,2.8179,2.7978,2.7965,2.8179,2.7684,2.7429,2.7429,2.7349,2.7081,2.6627,2.6627,2.64,2.5985,2.5905,2.5825,2.5745,2.5665,2.5585,2.5504,2.5424,2.5264,2.4957,2.3941,2.3532,2.35,0.0,0.0,0.0,0.0,0.0,0.0,0.0,0.0,0.0,0.0,0.0,0.0,0.0,1.8656,1.8917,1.9636,1.9583,1.9698,2.0112,2.0255,2.0853,2.2062,2.2437,2.3312,2.4891,2.492,2.4178,2.2617,2.2602,2.1782,2.0197,2.0184,2.0184,2.0197,2.0197,2.0184,2.0197,2.0197,2.0197,2.021,2.0548,2.0686,2.0659,2.0304,2.0837,2.1583,2.0669,1.9932,1.9595,2.0851,2.1336,2.1389,2.1132,2.1362,0.0,2.2333,2.2745,2.311,2.3308,0.0,2.3205,2.3942,2.4589,2.5184,2.581,2.6333,2.6827,2.7202,2.7455,2.7655,2.7669,2.7965,2.8165,2.8165,2.8179,2.8179,2.8179,2.8179,2.8179,2.8179,2.8179,2.8179,0.0,2.8165,2.8179,2.8179,2.8179,2.8179,2.8179,2.8179,2.8179,2.8179,2.8179,2.8179,2.8179,2.7843,2.7682,2.7682,2.7443,2.7296,2.7282,2.7282,2.7269,2.7242,2.6907,2.6627,2.6346,2.6105,2.5772,2.5478,2.5197,2.5128,2.501,2.4396,2.4182,2.4128,0.0,0.0,0.0,0.0,0.0,0.0,0.0,0.0,0.0,0.0,0.0,0.0,0.0,0.0,0.0,0.0,2.1255,2.1774,2.1535,2.2804,2.3629,2.3853,2.4535,2.5254,2.6076,2.6106,2.5994,2.5746,2.5746,2.4844,2.3131,2.3131,2.2511,2.139,2.139,2.139,2.139,2.139,2.1283,2.1154,2.1248,2.1167,2.1034,2.1528,2.1641,2.1614,0.0,2.195,2.1391,2.1877,2.2031,2.1861,2.0877,2.1677,2.3014,2.3083,2.3183,2.3263,2.3162,2.3624,2.424,2.4698,2.5265,2.5904,2.6693,2.7015,2.7296,2.7791,2.8661,2.9279,2.9279,2.9365,2.9437,2.9437,2.8744,2.8179,2.8179,2.8179,2.8179,2.8179,2.8179,0.0,0.0,0.0,0.0,2.843,2.8299,2.8272,2.8444,2.8299,2.8179,2.8179,2.8179,2.8179,2.8179,2.8085,2.7938,2.7696,2.7443,2.7403,2.7549,2.7389,2.7309,2.7296,2.7202,2.6947,2.6667,2.6573,2.636,2.6092,2.5985,2.5864,2.5677,2.5476,2.5237,2.4943,0.0,0.0,0.0,0.0,0.0,0.0,0.0,0.0,0.0,0.0,0.0,0.0,0.0,0.0,0.0,0.0,0.0,2.3201,2.2735,2.4004,2.4905,2.5228,2.5691,2.6527,2.7716,2.7387,2.7228,2.7302,2.7257,2.6395,2.4843,2.503,2.4187,2.2563,2.2563,2.224,2.167,2.167,2.151,2.1325,2.1709,2.1662,2.1438,2.2333,2.2616,0.0,2.327,2.3394,2.326,2.3007,2.2655,2.2191,2.128,2.1872,2.2975,2.3416,2.3343,2.3145,2.337,2.3963,2.4675,2.5391,2.6024,2.664,2.7309,2.755,2.7697,2.7965,2.9041,2.9867,2.9749,2.9631,2.9557,2.9557,2.8517,2.775,2.7857,2.7965,2.8072,2.8179,2.8179,0.0,0.0,0.0,0.0,2.843,2.8299,2.8272,2.843,2.8286,2.8179,2.8179,2.8179,2.8179,2.8179,2.8179,2.8085,2.7898,2.771,2.7724,2.7856,2.771,2.7617,2.7617,2.751,2.7308,2.7134,2.7028,2.68,2.6533,2.6426,2.6252,2.5984,2.5877,2.5678,2.5411,0.0,0.0,0.0,0.0,0.0,0.0,0.0,0.0,0.0,0.0,0.0,0.0,0.0,0.0,0.0,0.0,0.0,0.0,2.3694,2.3961,2.4762,2.6181,2.6135,2.724,2.9738,2.888,2.8112,2.7493,2.7367,2.6667,2.5466,2.5874,2.5235,2.3669,2.3638,2.2752,2.1245,2.1245,2.1114,2.0941,2.1973,2.2171,2.1974,2.2827,2.3769,2.4549,2.3899,2.433,2.5024,2.4072,2.313,2.2332,2.2364,2.2024,2.1905,2.3344,2.3247,2.2897,2.3928,2.4235,2.4636,2.6039,2.6854,2.7336,2.7589,2.7911,2.8031,2.7696,2.8674,2.9449,0.0,0.0,2.8703,2.8627,2.7639,2.7001,2.7336,2.7562,2.7829,0.0,0.0,0.0,0.0,0.0,0.0,2.8232,0.0,2.8219,2.8245,2.8232,2.8219,2.8205,2.8205,2.8205,2.8179,2.8179,2.8179,2.8179,2.8179,2.8179,2.8179,2.8179,2.8179,2.8165,2.7843,2.7709,2.7682,2.7443,2.7108,2.6814,2.6533,2.6239,2.6011,2.5665,2.5558,2.5558,0.0,0.0,0.0,0.0,0.0,0.0,0.0,0.0,0.0,0.0,0.0,0.0,0.0,0.0,0.0,0.0,0.0,0.0,2.4761,2.5462,2.6165,2.6855,2.7794,2.8735,2.9717,2.9858,3.0005,3.0121,3.0083,2.9271,2.7669,2.7406,2.6359,2.4717,2.4289,2.3888,2.3471,2.3471,2.3345,2.3109,2.3365,2.3285,2.3151,2.4614,2.511,2.5128,2.5841,2.6106,2.5771,2.3738,2.2336,2.1655,2.2884,2.2632,2.2111,2.3142,2.3615,2.3845,2.4123,2.4878,2.569,2.6239,2.6507,2.6694,2.6974,2.7108,2.7081,2.6787,2.8797,3.0068,0.0,0.0,0.0,2.8955,2.8249,0.0,2.8217,2.8165,0.0,2.8457,0.0,2.8524,2.8604,2.8724,0.0,0.0,2.8617,2.8684,2.9155,2.8938,2.8711,2.8497,2.8484,2.8419,2.8192,2.8179,2.8179,2.8179,2.8179,2.8179,2.8179,2.8179,2.8179,2.8179,2.8098,2.7938,2.7696,2.7615,2.7415,2.7121,2.6827,2.6667,2.656,2.6266,2.6172,2.6172,0.0,0.0,0.0,0.0,0.0,0.0,0.0,0.0,0.0,0.0,0.0,0.0,0.0,0.0,0.0,0.0,0.0,0.0,0.0,2.5973,2.6436,2.6857,2.7401,2.7989,2.8642,2.8739,2.8994,2.9402,2.9565,2.9128,2.8146,2.8322,2.7252,2.5173,2.5155,2.4451,2.3352,2.3541,2.3372,0.0,0.0,2.4016,2.3866,2.55,2.6061,2.6091,2.6756,2.631,2.5262,2.4353,2.3049,2.1996,2.3137,2.2869,2.2441,2.3843,2.4249,2.429,2.4656,2.5451,2.6292,2.6707,2.6774,2.6947,2.7542,2.7576,2.7504,2.7571,2.9513,0.0,2.8145,2.9393,0.0,0.0,0.0,0.0,2.7976,2.8018,2.811,0.0,2.8604,0.0,2.8965,2.9018,2.9161,0.0,2.9112,2.8938,2.9272,2.9081,2.8921,2.8761,2.8671,2.8457,2.8192,2.8326,2.8326,2.8179,2.8179,2.8179,2.8179,2.8179,2.8179,2.8179,0.0,2.8085,2.7938,2.7938,2.7764,2.7483,2.7268,2.7134,2.7001,2.6841,2.6774,2.676,0.0,0.0,0.0,0.0,0.0,0.0,0.0,0.0,0.0,0.0,0.0,0.0,0.0,0.0,0.0,0.0,0.0,0.0,0.0,0.0,2.606,2.6496,2.6169,2.6366,2.7173,2.6862,2.6851,2.7211,2.7547,2.7752,2.7803,2.8664,2.7807,2.5629,2.6077,2.4886,2.2537,2.2931,2.2682,2.2212,2.397,2.4499,2.4386,0.0,2.6699,2.7006,2.7181,2.6018,2.4565,2.5484,2.4394,2.2744,2.3155,2.3,2.2991,2.4836,2.4909,2.4556,2.5358,2.5972,2.652,2.7068,2.7162,2.7364,2.8423,2.8403,2.8365,2.8828,0.0,3.0656,2.8064,2.8824,2.9131,2.6991,0.0,2.6974,2.7483,2.7682,2.8043,2.8657,2.8724,2.8925,2.9432,2.9325,2.9539,3.0346,2.9646,2.9175,2.9175,2.9135,2.9095,2.9055,2.8818,2.8524,2.8245,2.847,2.8457,2.8179,2.8179,2.8179,2.8179,2.8179,2.8179,2.8179,0.0,0.0,2.8179,2.8179,2.8031,2.7749,2.7709,2.7549,2.7362,2.7322,2.7309,2.7269,0.0,0.0,0.0,0.0,0.0,0.0,0.0,0.0,0.0,0.0,2.2649,2.3386,0.0,0.0,0.0,0.0,0.0,0.0,0.0,0.0,0.0,2.6016,2.6322,2.6562,2.6715,2.702,2.7215,2.728,2.7364,2.7653,2.8188,2.792,2.7561,2.711,2.6816,2.59,2.4585,2.4686,2.4416,2.4013,2.4718,2.4972,2.5078,2.6384,0.0,0.0,2.8176,2.7491,2.616,2.6678,2.4903,2.2537,2.3127,2.359,2.3991,2.458,2.4996,2.5371,2.581,2.6172,2.6413,2.652,2.6399,2.6479,2.7517,2.7504,0.0,0.0,2.9643,2.9924,2.6127,2.7718,2.8743,2.6158,2.6342,2.7268,2.8551,2.8564,2.8671,0.0,0.0,0.0,0.0,0.0,0.0,0.0,0.0,0.0,3.0172,2.99,2.9659,2.9419,2.9125,2.8775,2.8524,2.8577,2.8457,2.8179,2.8179,2.8179,2.8179,2.8179,2.8179,2.8179,0.0,0.0,2.8179,2.8179,2.8152,2.8085,2.7789,2.7669,2.7589,2.7403,2.7309,2.7296,0.0,0.0,0.0,0.0,0.0,0.0,0.0,2.1755,2.2793,2.3777,2.4295,2.4662,2.4877,2.5301,0.0,0.0,0.0,0.0,0.0,0.0,0.0,0.0,2.6125,2.6235,2.6235,2.7037,2.732,2.7075,0.0,2.7959,2.8043,2.8147,2.7685,2.6839,2.6924,2.6023,2.444,2.4681,2.4533,2.416,2.4828,2.5375,0.0,0.0,0.0,0.0,2.8613,2.8126,2.716,2.7679,2.6285,2.435,2.4282,2.4529,2.4943,2.5237,2.5518,2.585,2.6145,2.6386,2.6613,2.6613,2.64,2.6589,2.8021,0.0,0.0,0.0,3.0602,3.0683,2.7664,2.916,3.0156,2.8009,2.7701,2.8185,2.9409,2.8741,0.0,2.9165,0.0,0.0,0.0,0.0,0.0,0.0,0.0,0.0,3.04,3.0074,2.978,2.9499,2.9352,2.9058,2.8604,2.8604,2.8457,2.8179,2.8179,2.8179,2.8179,2.8179,2.8179,2.8179,0.0,0.0,2.8179,2.8179,2.8179,2.8165,2.8031,2.7965,2.7951,2.7817,2.7764,2.7737,0.0,0.0,0.0,0.0,0.0,0.0,0.0,2.2339,2.3313,2.5121,2.5753,2.595,2.5687,2.5972,2.6168,0.0,0.0,0.0,0.0,0.0,0.0,0.0,0.0,0.0,0.0,0.0,0.0,0.0,2.8063,0.0,0.0,0.0,0.0,0.0,2.6896,2.5966,2.412,2.4508,2.438,0.0,0.0,2.5643,0.0,0.0,0.0,0.0,0.0,2.8397,2.7835,2.8437,2.7778,2.6573,2.604,2.5967,2.6142,2.6282,2.6457,2.6582,2.6424,2.656,2.6734,2.6734,2.6413,2.6616,2.8526,2.8476,0.0,3.0498,3.1592,3.1576,2.9538,3.0613,3.1352,2.9887,2.9247,2.9175,2.9937,2.9083,2.8573,0.0,0.0,0.0,0.0,0.0,0.0,0.0,0.0,0.0,3.0319,3.0047,2.9806,2.9579,2.9513,2.9259,2.8804,2.8671,2.8484,2.8286,2.8219,2.8179,2.8179,2.8179,2.8179,2.8179,0.0,0.0,0.0,2.8179,2.8179,2.8179,2.8179,2.8179,2.8179,2.8179,2.8179,2.8152,0.0,0.0,0.0,0.0,0.0,0.0,0.0,2.3014,2.4122,2.5644,2.6235,2.6671,2.7086,2.7151,2.6998,0.0,0.0,0.0,0.0,0.0,0.0,0.0,0.0,0.0,0.0,0.0,0.0,0.0,0.0,0.0,0.0,0.0,0.0,0.0,0.0,0.0,2.5084,2.5126,0.0,0.0,0.0,0.0,0.0,0.0,0.0,0.0,0.0,2.8622,2.8336,2.8865,2.8707,2.8289,2.8266,2.8197,2.802,2.7509,2.7905,0.0,2.6804,2.6413,2.6426,2.6426,2.5812,2.5824,2.8107,0.0,2.8044,3.0395,3.1592,3.1642,2.981,3.0257,3.0621,2.9651,2.9772,2.9955,2.9928,3.0361,3.0366,2.9545,0.0,0.0,0.0,0.0,0.0,0.0,0.0,0.0,0.0,2.9927,2.99,2.9873,2.9619,2.9459,2.9406,2.8871,2.8591,2.8564,2.8326,2.8179,2.8179,2.8179,2.8179,2.8179,0.0,0.0,0.0,2.8179,2.8179,2.8179,2.8179,2.8179,2.8179,2.8179,2.8179,2.8179,0.0,0.0,0.0,0.0,0.0,0.0,2.2135,2.2852,2.3809,2.5293,2.5884,2.6453,2.7217,2.7282,2.7108,0.0,0.0,0.0,0.0,0.0,0.0,0.0,0.0,0.0,0.0,0.0,0.0,0.0,0.0,0.0,0.0,0.0,0.0,0.0,0.0,0.0,0.0,0.0,0.0,0.0,0.0,0.0,0.0,0.0,0.0,0.0,0.0,0.0,2.868,2.8634,2.8422,2.827,2.8643,2.9047,2.9128,2.7852,2.7879,2.8089,2.6942,2.6787,2.6961,2.6961,2.6024,2.5755,2.8311,0.0,2.7851,3.0691,3.1738,3.2044,3.1549,3.1986,3.2429,3.2588,3.1813,3.1053,3.0747,3.0096,2.9491,2.9036,2.9312,0.0,0.0,0.0,0.0,0.0,0.0,0.0,0.0,2.9913,2.9833,2.9659,2.9366,2.9138,2.8951,2.858,2.8366,2.8366,2.8245,2.8179,2.8179,2.8179,2.8179,2.8179,0.0,0.0,0.0,2.8179,2.8179,2.8179,2.8179,2.8179,2.8179,2.8179,2.8179,2.8179,0.0,0.0,0.0,0.0,0.0,2.1222,2.2171,2.2826,2.3744,2.5206,2.5819,2.6453,2.7391,2.7369,2.7151,2.6846,0.0,0.0,0.0,0.0,0.0,0.0,0.0,0.0,0.0,0.0,0.0,0.0,0.0,0.0,0.0,0.0,0.0,0.0,0.0,0.0,0.0,0.0,0.0,0.0,0.0,0.0,0.0,0.0,0.0,0.0,0.0,0.0,0.0,0.0,0.0,2.8357,2.8919,2.9468,2.9556,2.778,2.7861,2.8275,2.6787,2.6774,2.7202,2.7282,2.659,2.6464,0.0,0.0,2.8609,3.1175,3.2051,3.2472,3.2734,3.3144,3.3581,3.4219,3.2949,3.1835,3.1697,3.0468,2.967,0.0,0.0,0.0,0.0,0.0,0.0,0.0,0.0,0.0,0.0,2.9913,2.982,2.9619,2.9245,2.8935,2.8871,2.8419,2.8232,2.8326,2.8232,2.8179,2.8179,2.8179,2.8179,0.0,0.0,0.0,0.0,2.8179,2.8179,2.8179,2.8179,2.8179,2.8179,2.8179,2.8179,2.8179,0.0,0.0,0.0,0.0,0.0,0.0,2.2171,2.3092,2.4227,2.571,2.63,2.6955,2.7893,2.7588,2.7282,2.7282,0.0,0.0,0.0,0.0,0.0,0.0,0.0,0.0,0.0,0.0,0.0,0.0,0.0,0.0,0.0,0.0,0.0,0.0,0.0,0.0,0.0,0.0,0.0,0.0,0.0,0.0,0.0,0.0,0.0,0.0,0.0,0.0,0.0,0.0,0.0,0.0,0.0,2.9618,2.9222,2.7269,2.819,2.9237,2.6315,2.6159,2.6894,2.7229,2.7498,2.8041,2.9357,2.995,3.0558,3.1891,3.25,3.2793,3.2793,3.3144,3.3386,3.3406,3.2544,3.2099,3.268,3.2086,3.1788,0.0,0.0,0.0,0.0,0.0,0.0,0.0,0.0,0.0,0.0,2.9913,2.9913,2.9913,2.9295,2.9179,2.9472,2.8634,2.8339,2.8604,2.8326,2.8179,2.8179,2.8179,0.0,0.0,0.0,0.0,0.0,2.8179,2.8179,2.8179,2.8179,2.8179,2.8179,2.8179,2.8179,2.8138,0.0,0.0,0.0,0.0,0.0,0.0,0.0,2.3113,2.4008,2.4836,2.5338,2.5994,2.6955,2.6627,2.6799,2.7939,0.0,0.0,0.0,0.0,0.0,0.0,0.0,0.0,0.0,0.0,0.0,0.0,0.0,0.0,0.0,0.0,0.0,0.0,0.0,0.0,0.0,0.0,0.0,0.0,0.0,0.0,0.0,0.0,0.0,0.0,0.0,0.0,0.0,0.0,0.0,0.0,0.0,0.0,0.0,2.7409,2.8466,2.98,2.8349,2.8514,2.9077,2.8843,2.848,2.856,3.0106,3.016,3.0363,3.2231,3.2695,3.2871,3.3164,3.3289,3.318,3.2501,3.2253,3.1907,3.1212,0.0,0.0,3.1346,0.0,0.0,0.0,0.0,0.0,0.0,0.0,0.0,0.0,0.0,2.9526,2.9282,2.9095,2.8885,2.8607,2.8326,2.8339,2.8604,2.8339,2.8299,2.8457,2.8286,0.0,0.0,0.0,0.0,0.0,2.8179,2.8179,2.8179,2.8179,2.8179,2.8179,2.8179,2.8179,2.8138,0.0,0.0,0.0,0.0,0.0,0.0,0.0,2.3113,2.3899,2.4421,2.49,2.5556,2.6496,2.6169,2.6469,2.7852,0.0,0.0,0.0,0.0,0.0,0.0,0.0,0.0,0.0,0.0,0.0,0.0,0.0,0.0,0.0,0.0,0.0,0.0,0.0,0.0,0.0,0.0,0.0,0.0,0.0,0.0,2.87,0.0,0.0,0.0,0.0,0.0,0.0,0.0,0.0,0.0,0.0,0.0,0.0,0.0,2.9331,3.0194,2.8908,2.9169,2.9796,2.9756,2.953,0.0,3.1011,3.1079,3.1289,3.2712,3.3027,3.3105,3.3347,3.3386,3.3251,3.2814,3.1785,3.115,3.1418,0.0,0.0,3.068,0.0,0.0,0.0,0.0,0.0,0.0,0.0,0.0,0.0,0.0,2.9352,2.9001,2.8895,2.8698,2.8366,2.8245,2.8286,2.843,2.8272,2.8286,2.843,0.0,0.0,0.0,0.0,0.0,0.0,2.8179,2.8179,2.8179,2.8179,2.8179,2.8179,2.8179,2.8179,2.8138,0.0,0.0,0.0,0.0,0.0,0.0,0.0,0.0,2.3834,2.4377,2.4878,2.5556,2.6453,2.6147,2.6299,2.7283,0.0,0.0,0.0,0.0,0.0,0.0,0.0,0.0,0.0,0.0,0.0,0.0,3.0377,3.053,3.0507,0.0,0.0,0.0,0.0,0.0,0.0,0.0,0.0,0.0,2.8799,2.8835,0.0,0.0,0.0,0.0,0.0,0.0,0.0,0.0,0.0,0.0,0.0,0.0,0.0,0.0,0.0,0.0,0.0,2.8589,2.9437,3.0075,3.0549,3.1055,3.1872,3.2431,0.0,3.323,3.3347,3.3386,3.3386,3.3386,3.3511,3.3882,3.1178,0.0,0.0,3.0745,0.0,0.0,0.0,0.0,0.0,0.0,0.0,0.0,0.0,0.0,0.0,0.0,2.9312,2.8975,2.8724,2.8577,2.8577,2.8326,2.8192,2.8219,2.8192,2.8192,2.8219,0.0,0.0,0.0,0.0,0.0,0.0,2.8179,2.8179,2.8179,2.8179,2.8179,2.8179,2.8179,2.8179,2.8138,0.0,0.0,0.0,0.0,0.0,0.0,0.0,0.0,0.0,0.0,2.4639,2.5424,2.6016,2.5972,2.6511,0.0,0.0,0.0,0.0,0.0,0.0,0.0,0.0,0.0,0.0,0.0,0.0,2.9281,2.9615,2.9752,2.975,3.0064,0.0,0.0,0.0,0.0,0.0,0.0,0.0,0.0,2.912,2.8828,0.0,0.0,0.0,0.0,2.7839,2.8054,0.0,0.0,0.0,0.0,0.0,0.0,0.0,0.0,3.0273,3.0335,3.0192,0.0,3.0897,3.0767,3.103,3.1398,0.0,3.2227,3.2734,3.255,3.2969,3.3386,3.3386,3.3386,3.3174,3.2508,0.0,0.0,3.0714,0.0,0.0,0.0,0.0,0.0,0.0,0.0,0.0,0.0,0.0,0.0,0.0,0.0,2.9005,2.8724,2.8417,2.8299,2.8299,2.8219,2.8299,2.8497,2.8299,2.8312,2.8484,0.0,0.0,0.0,0.0,0.0,0.0,2.8179,2.8179,2.8179,2.8179,2.8179,2.8179,2.8179,2.8179,2.8138,0.0,0.0,0.0,0.0,0.0,0.0,0.0,0.0,0.0,0.0,0.0,0.0,0.0,0.0,0.0,0.0,0.0,0.0,0.0,0.0,0.0,0.0,0.0,0.0,0.0,0.0,0.0,0.0,0.0,2.9622,0.0,0.0,0.0,0.0,0.0,0.0,0.0,0.0,0.0,0.0,2.8977,0.0,0.0,0.0,0.0,0.0,2.7702,2.7956,0.0,2.8777,2.8906,2.8996,0.0,0.0,0.0,0.0,3.0508,3.0566,3.082,3.1191,3.1504,3.1514,3.1504,3.1591,3.2012,3.2148,3.2207,3.2198,3.2676,3.3144,3.3144,3.2631,3.2405,0.0,3.0395,0.0,0.0,0.0,0.0,0.0,0.0,0.0,0.0,0.0,0.0,0.0,0.0,0.0,0.0,0.0,2.8868,0.0,2.8353,2.8179,2.8179,2.8179,2.8272,2.839,2.8272,2.8272,2.839,0.0,0.0,0.0,0.0,0.0,2.8179,2.8179,2.8179,2.8179,2.8179,2.8179,2.8179,2.8179,2.8179,2.8165,0.0,0.0,0.0,0.0,0.0,0.0,0.0,0.0,0.0,0.0,0.0,0.0,0.0,0.0,0.0,0.0,0.0,0.0,0.0,0.0,0.0,0.0,0.0,0.0,0.0,0.0,0.0,0.0,0.0,0.0,0.0,0.0,0.0,0.0,0.0,0.0,0.0,0.0,0.0,0.0,2.859,0.0,0.0,0.0,0.0,0.0,0.0,0.0,0.0,2.9149,2.918,2.9094,3.0234,0.0,0.0,0.0,0.0,0.0,3.0976,3.1082,3.1331,3.1884,3.1738,3.1669,3.2441,3.209,3.1719,3.212,3.2559,3.2817,3.2594,3.1864,0.0,0.0,0.0,0.0,0.0,0.0,0.0,0.0,0.0,0.0,0.0,0.0,0.0,0.0,0.0,0.0,0.0,0.0,0.0,0.0,2.8326,2.8179,2.8179,2.8179,2.8179,2.8179,2.8179,2.8179,2.8179,2.8179,0.0,0.0,0.0,0.0,2.8179,2.8179,2.8179,2.8179,2.8179,2.8152,2.8125,2.8165,2.8125,2.8045,0.0,0.0,0.0,0.0,0.0,0.0,0.0,0.0,0.0,0.0,0.0,0.0,0.0,0.0,0.0,0.0,0.0,0.0,0.0,0.0,0.0,0.0,0.0,0.0,0.0,0.0,0.0,0.0,0.0,0.0,2.9644,3.0908,3.1014,0.0,0.0,0.0,0.0,0.0,0.0,2.8768,2.8273,0.0,0.0,0.0,0.0,0.0,0.0,0.0,0.0,2.8437,2.8691,2.8918,2.9133,0.0,0.0,0.0,0.0,0.0,3.1328,3.0626,3.0027,3.0876,3.1309,3.1562,3.165,3.1894,3.212,3.2179,3.2793,3.2943,3.1689,3.2631,3.2979,0.0,0.0,0.0,0.0,0.0,0.0,0.0,0.0,0.0,0.0,0.0,0.0,0.0,0.0,0.0,0.0,0.0,0.0,0.0,0.0,2.8179,2.8179,2.8179,2.8179,2.8179,2.8179,2.8179,2.8179,2.8179,2.8179,0.0,0.0,0.0,2.8179,2.8179,2.8179,2.8179,2.8179,2.8031,2.7802,2.8098,2.7871,2.7443,0.0,0.0,0.0,0.0,0.0,0.0,0.0,0.0,0.0,0.0,0.0,0.0,0.0,0.0,0.0,0.0,0.0,0.0,0.0,0.0,0.0,0.0,0.0,0.0,0.0,0.0,0.0,0.0,0.0,2.9838,2.9904,3.0799,3.0865,3.0188,0.0,0.0,0.0,0.0,0.0,2.9139,0.0,0.0,0.0,0.0,0.0,0.0,0.0,0.0,0.0,0.0,2.8769,2.8937,2.9199,0.0,0.0,0.0,0.0,0.0,3.0996,3.0726,3.0174,2.9905,2.9453,2.9077,2.8893,2.8964,2.9353,3.0337,3.1315,3.1805,3.1181,0.0,3.1114,2.8529,0.0,0.0,0.0,0.0,0.0,0.0,0.0,0.0,0.0,0.0,0.0,0.0,0.0,0.0,0.0,0.0,0.0,0.0,0.0,2.8179,2.8179,2.8179,2.8179,2.8179,2.8179,2.8179,2.8179,2.8179,2.8179,0.0,0.0,2.8179,2.8179,2.8179,2.8179,2.8179,2.8179,2.8005,2.7696,2.7724,2.7536,2.7309,0.0,0.0,0.0,0.0,0.0,0.0,0.0,0.0,0.0,0.0,0.0,0.0,0.0,0.0,0.0,0.0,0.0,0.0,0.0,0.0,0.0,0.0,0.0,0.0,0.0,0.0,2.8243,2.8792,2.9381,2.9969,3.0559,3.0908,3.0756,0.0,0.0,0.0,0.0,0.0,0.0,2.9489,0.0,0.0,0.0,0.0,0.0,0.0,0.0,0.0,0.0,0.0,0.0,0.0,0.0,0.0,0.0,2.9805,2.9774,2.9794,3.0644,3.0587,2.9949,2.8594,2.7937,2.7462,2.702,2.6846,2.7227,2.8871,2.9951,3.061,3.0759,3.0243,0.0,2.7944,0.0,0.0,0.0,0.0,0.0,0.0,0.0,0.0,0.0,0.0,0.0,0.0,0.0,0.0,0.0,0.0,0.0,0.0,0.0,0.0,2.8179,2.8179,2.8179,2.8179,2.8179,2.8179,2.8179,2.8179,2.8179,2.8179,2.8179,2.8138,2.8085,2.8085,2.8085,2.8072,2.8005,2.7844,2.7549,2.7229,2.7148,2.7148,0.0,0.0,0.0,0.0,0.0,0.0,0.0,0.0,0.0,0.0,0.0,0.0,0.0,0.0,0.0,0.0,0.0,0.0,0.0,0.0,0.0,0.0,0.0,0.0,0.0,2.8002,2.8243,2.8792,2.9731,3.06,3.1495,3.1538,3.1058,3.0185,0.0,0.0,0.0,0.0,0.0,2.9417,2.841,0.0,0.0,0.0,0.0,0.0,0.0,0.0,0.0,0.0,0.0,0.0,0.0,0.0,2.8965,2.9004,2.9277,2.9794,3.0644,2.9648,2.8068,2.6745,2.7674,2.8774,2.8061,2.7884,2.8212,2.9233,2.974,0.0,0.0,2.9456,2.9519,3.1373,0.0,0.0,0.0,0.0,0.0,0.0,0.0,0.0,0.0,0.0,0.0,0.0,0.0,0.0,0.0,0.0,0.0,0.0,0.0,0.0,2.8179,2.8179,2.8179,2.8179,2.8179,2.8179,2.8179,2.8179,2.8179,2.8179,2.8179,2.8031,2.7736,2.7736,2.7736,2.7709,2.7469,2.7362,2.7269,2.6693,2.6627,2.6814,0.0,0.0,0.0,0.0,0.0,0.0,0.0,0.0,0.0,0.0,0.0,0.0,0.0,0.0,0.0,0.0,0.0,0.0,0.0,0.0,0.0,0.0,0.0,2.8727,2.8484,2.8507,2.8747,2.9228,2.9882,3.0512,3.1171,3.1171,0.0,0.0,0.0,0.0,0.0,0.0,0.0,2.9391,2.9,2.8624,0.0,0.0,0.0,0.0,0.0,0.0,0.0,0.0,2.8301,2.8301,2.8301,2.8398,2.8574,2.882,2.8848,2.8992,2.9852,2.8821,2.727,2.6201,2.5825,2.5437,2.4479,2.4708,2.5565,2.7227,2.8449,0.0,0.0,0.0,2.8289,0.0,0.0,0.0,0.0,0.0,0.0,0.0,0.0,0.0,0.0,0.0,0.0,0.0,0.0,0.0,0.0,0.0,0.0,0.0,0.0,0.0,0.0,2.7911,2.7911,2.7911,2.8098,2.8179,2.8179,2.8179,2.8179,2.8179,2.7991,2.7802,2.7696,2.7696,2.7696,2.7669,2.7416,2.7148,2.6947,2.6533,2.6453,2.6533,0.0,0.0,0.0,0.0,0.0,0.0,0.0,0.0,0.0,0.0,0.0,0.0,0.0,0.0,0.0,0.0,0.0,0.0,0.0,0.0,0.0,0.0,0.0,2.8616,2.8792,2.8792,2.9033,2.9512,2.9969,3.045,3.0887,0.0,0.0,0.0,0.0,0.0,0.0,0.0,0.0,0.0,2.8989,2.8643,0.0,0.0,0.0,0.0,0.0,0.0,0.0,0.0,2.8301,2.8301,2.8301,2.8301,2.834,2.8633,2.8242,2.7899,2.8612,2.8086,2.6935,2.5356,2.4717,2.4122,2.2717,2.3033,2.411,2.5905,2.7547,2.9207,3.086,0.0,0.0,0.0,0.0,0.0,0.0,0.0,0.0,0.0,0.0,0.0,0.0,0.0,0.0,0.0,0.0,0.0,0.0,0.0,0.0,0.0,0.0,0.0,0.0,2.7562,2.7562,2.7562,2.7804,2.7951,2.8045,2.8045,2.7991,2.7898,2.7655,2.7509,2.7415,2.7415,2.7362,2.7268,2.7175,2.6947,2.6653,2.6466,2.6386,2.6386,0.0,0.0,0.0,0.0,0.0,0.0,0.0,0.0,0.0,0.0,0.0,0.0,0.0,0.0,0.0,0.0,0.0,0.0,0.0,0.0,0.0,0.0,0.0,2.8243,2.8792,2.8792,2.9032,2.9512,2.9969,3.0428,3.0865,3.0428,0.0,0.0,0.0,0.0,0.0,0.0,0.0,0.0,2.8023,2.7779,2.7788,0.0,0.0,0.0,0.0,0.0,0.0,0.0,2.8301,2.8301,2.8301,2.8301,2.8301,2.8301,2.7442,2.6609,2.7014,2.7438,2.7023,2.3913,2.4748,2.5818,2.3756,2.3781,2.4543,2.577,2.7263,2.8535,2.9112,0.0,0.0,0.0,0.0,0.0,0.0,0.0,0.0,0.0,0.0,0.0,0.0,0.0,0.0,0.0,0.0,0.0,0.0,0.0,0.0,0.0,0.0,0.0,0.0,2.7309,2.7309,2.7309,2.7309,2.7456,2.7696,2.7696,2.7535,2.7309,2.7309,2.7094,2.6787,2.6787,2.6653,2.6426,2.6707,2.664,2.6386,2.6386,2.6386,2.6386,0.0,0.0,0.0,0.0,0.0,0.0,0.0,0.0,0.0,0.0,0.0,0.0,0.0,0.0,0.0,0.0,0.0,0.0,0.0,0.0,0.0,0.0,0.0,0.0,0.0,0.0,2.9359,2.9512,2.962,2.9773,0.0,0.0,0.0,2.901,0.0,0.0,0.0,0.0,0.0,0.0,2.738,2.7292,0.0,0.0,0.0,0.0,0.0,0.0,0.0,0.0,0.0,0.0,2.8301,2.8738,2.909,2.8476,2.8462,2.8621,2.8422,2.6883,2.5285,2.5067,2.4004,2.3125,2.3558,2.3928,2.4716,2.6546,2.6942,2.7575,2.9462,0.0,0.0,0.0,0.0,0.0,0.0,0.0,0.0,0.0,0.0,0.0,0.0,0.0,0.0,0.0,0.0,0.0,0.0,0.0,0.0,0.0,0.0,0.0,0.0,0.0,2.6961,2.6961,2.6961,2.7108,2.7443,2.7443,2.7389,2.7296,2.7041,2.6907,2.6787,2.6787,2.6734,2.6707,2.6787,2.664,2.6386,2.6386,2.6386,2.6386,0.0,0.0,0.0,0.0,0.0,0.0,0.0,0.0,0.0,0.0,2.2577,0.0,0.0,0.0,0.0,0.0,0.0,0.0,0.0,0.0,0.0,0.0,0.0,0.0,0.0,2.8986,2.9425,0.0,0.0,0.0,0.0,0.0,0.0,2.8814,0.0,2.8771,0.0,0.0,0.0,2.687,2.7008,2.6956,2.6777,0.0,0.0,0.0,0.0,0.0,0.0,0.0,0.0,0.0,2.8301,2.8652,2.8875,2.788,2.7548,2.7359,2.6693,2.5201,2.3897,2.4207,2.3595,2.3137,2.391,2.4609,0.0,0.0,2.6881,2.6945,0.0,0.0,0.0,0.0,0.0,0.0,0.0,0.0,0.0,0.0,0.0,0.0,0.0,0.0,0.0,0.0,0.0,0.0,0.0,0.0,0.0,0.0,0.0,0.0,0.0,0.0,0.0,2.648,2.648,2.6507,2.6573,2.6814,2.6961,2.6948,2.672,2.6653,2.6653,2.6653,2.6653,2.6653,2.6653,2.6466,2.6265,2.6346,2.6239,2.6079,0.0,0.0,0.0,0.0,0.0,0.0,0.0,0.0,0.0,0.0,2.1955,2.2456,0.0,0.0,0.0,0.0,0.0,0.0,0.0,0.0,0.0,0.0,0.0,0.0,0.0,0.0,0.0,0.0,0.0,0.0,0.0,0.0,2.8792,2.8792,0.0,2.842,0.0,2.736,2.686,2.6456,2.6758,2.668,2.6406,2.7213,0.0,0.0,0.0,0.0,0.0,0.0,0.0,0.0,2.8301,2.834,2.8188,2.7041,2.5705,2.4408,2.3594,2.3247,2.2965,2.2437,2.3591,2.4834,2.4711,2.5558,2.6587,2.7442,0.0,2.672,0.0,0.0,0.0,0.0,0.0,0.0,0.0,0.0,0.0,0.0,0.0,0.0,0.0,0.0,0.0,0.0,0.0,0.0,0.0,0.0,0.0,0.0,0.0,0.0,0.0,0.0,0.0,0.0,2.5957,2.5772,2.5531,2.6066,2.6306,2.6306,2.6333,2.6346,2.636,2.6373,2.6386,2.6386,2.636,2.6225,2.6024,2.6226,2.5972,2.5585,0.0,0.0,0.0,0.0,0.0,0.0,0.0,0.0,0.0,0.0,0.0,0.0,0.0,0.0,0.0,0.0,0.0,0.0,0.0,0.0,0.0,0.0,0.0,0.0,0.0,0.0,0.0,0.0,0.0,0.0,0.0,0.0,0.0,2.8769,0.0,2.788,2.736,2.686,2.6352,2.5883,2.5937,2.5932,2.5874,2.605,2.6367,0.0,0.0,0.0,0.0,0.0,0.0,0.0,2.8301,2.8777,2.9183,2.8573,2.7549,2.6699,2.7002,2.5038,2.3192,2.4324,2.4616,2.4793,2.5219,2.5705,2.6265,2.6881,2.7041,0.0,0.0,0.0,0.0,0.0,0.0,0.0,0.0,0.0,0.0,0.0,0.0,0.0,0.0,0.0,0.0,0.0,0.0,0.0,0.0,0.0,0.0,0.0,0.0,0.0,2.6091,2.6091,2.5944,0.0,2.5611,2.5571,2.5518,2.5638,2.5705,2.5718,2.5984,2.6091,2.6105,2.6293,2.6386,2.6373,2.6172,2.6051,2.5971,2.5772,2.5625,2.5531,0.0,0.0,0.0,0.0,0.0,0.0,0.0,0.0,0.0,0.0,0.0,0.0,0.0,0.0,0.0,0.0,0.0,0.0,0.0,0.0,0.0,0.0,0.0,0.0,0.0,0.0,0.0,0.0,0.0,0.0,0.0,0.0,0.0,2.8769,0.0,2.7589,2.6884,2.6611,2.6088,2.5449,2.5879,2.5893,2.5713,2.5952,2.6191,2.6367,2.6152,0.0,0.0,0.0,0.0,0.0,0.0,0.0,2.8847,2.8227,2.7686,2.7129,2.6225,2.4888,2.3885,2.4616,2.5025,2.5344,2.5651,2.5959,2.6332,2.6734,0.0,0.0,0.0,0.0,0.0,0.0,0.0,0.0,0.0,0.0,0.0,0.0,0.0,0.0,0.0,0.0,0.0,0.0,0.0,0.0,0.0,0.0,0.0,0.0,0.0,0.0,2.5745,2.5745,2.5598,2.5304,2.5157,2.4986,2.4903,2.5317,2.5518,2.5518,2.5678,2.5864,2.5998,2.5972,2.5972,2.5959,2.5798,2.5703,2.5569,2.5518,2.5331,2.5093,0.0,0.0,0.0,0.0,0.0,0.0,0.0,0.0,0.0,0.0,0.0,0.0,0.0,0.0,0.0,0.0,0.0,0.0,0.0,0.0,0.0,0.0,0.0,0.0,0.0,0.0,0.0,0.0,0.0,0.0,0.0,0.0,0.0,2.863,0.0,0.0,2.646,2.631,2.5817,2.516,2.5957,2.6055,2.5732,0.0,0.0,0.0,2.5835,2.6225,2.6914,2.6992,0.0,0.0,0.0,0.0,2.8168,2.7595,2.7316,2.6705,2.4511,2.4114,2.4303,2.4259,2.505,2.5877,2.5971,2.6185,2.6386,2.6627,0.0,0.0,0.0,0.0,0.0,0.0,0.0,0.0,0.0,0.0,0.0,0.0,0.0,0.0,0.0,0.0,0.0,0.0,0.0,0.0,0.0,0.0,2.5757,0.0,0.0,2.5611,2.5358,2.5317,2.5144,2.4887,2.4649,2.4399,2.4235,2.501,2.532,2.5358,2.5411,2.5571,2.5824,2.5598,2.5518,2.5504,2.5464,2.5291,2.5104,2.5291,2.5013,2.4666,0.0,0.0,0.0,0.0,0.0,0.0,0.0,0.0,0.0,0.0,2.0957,0.0,0.0,0.0,0.0,0.0,0.0,0.0,0.0,0.0,0.0,0.0,0.0,0.0,0.0,0.0,0.0,0.0,0.0,0.0,0.0,0.0,0.0,2.807,0.0,0.0,0.0,2.5468,2.5212,2.5141,2.5625,2.5776,0.0,0.0,0.0,0.0,0.0,0.0,2.6523,2.6894,2.7305,0.0,0.0,0.0,2.8352,2.8575,2.7753,2.6526,2.5383,2.4136,2.3378,2.4312,2.489,2.5369,2.5877,0.0,2.6065,0.0,0.0,0.0,0.0,0.0,0.0,0.0,0.0,0.0,0.0,0.0,0.0,0.0,0.0,0.0,0.0,0.0,0.0,0.0,0.0,0.0,0.0,2.5235,2.5291,2.5504,2.5064,0.0,2.4719,2.4502,2.4235,2.3991,2.4155,2.4235,2.4209,2.4546,2.4719,2.4733,2.5024,2.5195,2.5211,2.5424,2.5518,2.5491,2.5237,2.5117,2.505,2.4799,2.4666,2.4613,0.0,0.0,0.0,0.0,0.0,0.0,0.0,0.0,0.0,0.0,0.0,2.0801,0.0,0.0,0.0,2.2981,2.3645,2.4377,2.514,2.5381,0.0,0.0,0.0,0.0,0.0,0.0,0.0,0.0,0.0,0.0,0.0,2.8551,2.8485,0.0,0.0,0.0,0.0,0.0,2.5156,2.4766,2.5425,0.0,0.0,0.0,0.0,0.0,0.0,0.0,0.0,2.6797,2.7148,2.7422,2.8086,0.0,0.0,0.0,2.8641,2.8068,2.6759,2.4699,2.3228,2.4543,2.5104,2.5438,2.5904,2.6118,2.6185,0.0,0.0,0.0,0.0,0.0,0.0,0.0,0.0,0.0,0.0,0.0,0.0,0.0,0.0,0.0,0.0,0.0,0.0,0.0,0.0,0.0,2.5077,2.4917,2.481,2.4783,2.4492,0.0,2.4155,2.4022,2.3808,2.3527,2.3821,2.3875,2.3728,2.4022,2.4422,2.489,2.485,2.493,2.5077,2.5037,2.4986,2.4973,2.4877,2.4836,2.481,2.4653,2.4599,2.4599,0.0,0.0,0.0,0.0,0.0,0.0,0.0,0.0,0.0,0.0,0.0,0.0,0.0,0.0,0.0,0.0,2.314,2.3877,2.4749,2.5053,0.0,0.0,0.0,0.0,0.0,0.0,0.0,0.0,0.0,0.0,2.8733,2.8436,2.8651,0.0,2.8255,0.0,0.0,0.0,0.0,0.0,0.0,0.0,0.0,0.0,0.0,0.0,0.0,0.0,0.0,0.0,0.0,0.0,0.0,2.8047,0.0,0.0,0.0,2.8549,2.7741,2.5691,2.404,2.5107,2.5725,2.6063,2.602,0.0,0.0,0.0,0.0,0.0,0.0,0.0,0.0,0.0,0.0,0.0,0.0,0.0,0.0,0.0,0.0,0.0,0.0,0.0,0.0,0.0,0.0,0.0,2.485,2.4649,2.4396,2.4102,2.4022,2.3875,2.3661,2.3616,2.3469,2.3207,2.3514,2.3541,2.3305,2.3634,2.4165,2.4767,2.4516,2.4543,2.4767,2.4502,2.4426,2.4492,2.4492,2.4532,2.4599,2.4599,2.4599,2.4599,0.0,0.0,0.0,0.0,0.0,0.0,0.0,0.0,0.0,0.0,0.0,0.0,0.0,2.1778,2.212,2.2908,2.3004,2.3244,2.3746,2.4661,2.5403,0.0,0.0,0.0,0.0,0.0,0.0,0.0,0.0,0.0,2.8633,2.9101,2.9249,2.9064,2.7749,2.6605,2.5684,0.0,0.0,0.0,0.0,0.0,0.0,0.0,0.0,0.0,0.0,0.0,0.0,0.0,0.0,0.0,0.0,0.0,0.0,0.0,0.0,0.0,2.7801,2.7221,2.6216,2.616,2.6879,2.73,0.0,0.0,0.0,0.0,0.0,0.0,0.0,0.0,0.0,0.0,0.0,0.0,0.0,0.0,0.0,0.0,0.0,0.0,0.0,0.0,0.0,0.0,0.0,0.0,2.4262,2.4235,2.4088,2.3843,2.3514,2.3332,2.3319,2.306,2.2934,2.292,2.3207,2.3305,2.3305,2.3634,2.383,2.387,2.3857,2.3857,2.387,2.3857,2.3981,2.4222,2.4222,2.4396,2.4599,2.4599,2.4599,2.4599,0.0,0.0,0.0,0.0,0.0,0.0,0.0,0.0,0.0,0.0,0.0,0.0,0.0,2.1665,2.2025,2.2572,2.2852,2.3351,2.4159,2.4552,2.5076,2.5863,0.0,0.0,0.0,0.0,0.0,0.0,0.0,2.675,2.776,2.7292,2.7505,2.8221,2.7507,2.6789,2.6113,2.5395,0.0,0.0,0.0,0.0,0.0,0.0,0.0,0.0,0.0,0.0,0.0,0.0,0.0,0.0,0.0,0.0,0.0,0.0,2.6642,2.6116,2.68,2.6307,2.5769,2.6575,2.6391,2.6053,2.6099,2.574,0.0,0.0,0.0,0.0,0.0,0.0,0.0,0.0,0.0,0.0,0.0,0.0,0.0,0.0,0.0,0.0,0.0,0.0,0.0,0.0,0.0,0.0,2.3977,2.3741,2.35,2.3228,2.3121,2.3033,2.3033,2.2572,2.2519,2.2893,2.2779,2.2846,2.3033,2.3174,2.3228,2.3228,2.3228,2.3442,2.3817,2.3968,2.4115,2.4222,2.4372,2.4506,2.4599,2.4599,2.4599,2.4599,0.0,0.0,0.0,0.0,0.0,0.0,0.0,0.0,0.0,0.0,0.0,0.0,0.0,0.0,2.1878,2.2579,2.3167,2.3787,2.4463,2.4659,2.5009,2.5643,2.654,0.0,0.0,0.0,0.0,0.0,0.0,0.0,0.0,2.6102,2.6256,2.7068,2.6519,2.6403,0.0,0.0,0.0,2.5329,0.0,0.0,2.1549,0.0,0.0,0.0,0.0,0.0,0.0,0.0,0.0,0.0,0.0,0.0,0.0,0.0,0.0,0.0,2.6894,2.6793,2.6796,2.7643,2.7247,2.6602,2.6459,0.0,0.0,0.0,0.0,0.0,0.0,0.0,0.0,0.0,0.0,0.0,0.0,0.0,0.0,0.0,0.0,0.0,0.0,0.0,0.0,0.0,0.0,0.0,2.3817,2.3487,2.318,2.2907,2.2706,2.2653,2.2746,2.2265,2.2211,2.2599,2.2365,2.2432,2.2712,2.2712,2.28,2.2893,2.2893,2.3121,2.3509,2.3674,2.3875,2.4075,2.4275,2.4426,2.4599,2.4599,2.4599,2.4599,0.0,0.0,0.0,0.0,0.0,0.0,0.0,0.0,0.0,0.0,0.0,0.0,0.0,0.0,0.0,2.3006,2.3947,2.4486,2.4528,2.4943,2.5206,2.5206,2.6125,0.0,0.0,0.0,0.0,0.0,0.0,0.0,0.0,0.0,2.5702,2.5659,2.4801,2.5347,2.6934,0.0,2.6348,2.6032,0.0,2.1369,2.2978,0.0,0.0,0.0,2.1547,2.1157,0.0,0.0,0.0,0.0,0.0,0.0,0.0,0.0,0.0,0.0,0.0,0.0,0.0,2.9374,2.9485,2.9166,2.7296,0.0,0.0,0.0,0.0,0.0,0.0,0.0,0.0,0.0,0.0,0.0,0.0,0.0,0.0,0.0,0.0,0.0,0.0,0.0,0.0,0.0,0.0,2.4062,2.379,2.3447,2.3153,2.2893,2.2305,2.2111,2.2405,2.2111,2.1964,2.1991,2.1977,2.2124,2.2385,2.2385,2.2579,2.2893,2.2893,2.2893,2.2893,2.2907,2.3255,2.379,2.3803,2.4115,2.4586,2.4586,2.4586,2.4599,0.0,0.0,0.0,0.0,0.0,0.0,0.0,0.0,0.0,0.0,0.0,0.0,0.0,0.0,0.0,2.3495,2.3842,2.4278,2.4967,2.5118,2.5359,2.5688,2.6278,2.6606,0.0,0.0,0.0,0.0,0.0,0.0,0.0,0.0,0.0,0.0,2.5024,2.518,2.559,2.4824,0.0,0.0,2.2059,2.1183,0.0,0.0,0.0,0.0,0.0,1.8931,0.0,0.0,2.2131,2.4565,0.0,0.0,0.0,0.0,0.0,0.0,2.7344,0.0,0.0,0.0,0.0,0.0,2.898,2.7194,0.0,0.0,0.0,0.0,0.0,0.0,0.0,0.0,0.0,0.0,0.0,0.0,0.0,0.0,0.0,0.0,0.0,0.0,0.0,0.0,2.3941,2.3696,2.3174,2.2632,2.2418,2.2539,2.1764,2.159,2.2098,2.1603,2.1563,2.201,2.181,2.1937,2.2385,2.2385,2.2579,2.2893,2.2893,2.2893,2.292,2.31,2.33,2.3474,2.3723,2.3995,2.4329,2.4329,2.4412,2.4599,0.0,0.0,0.0,0.0,0.0,0.0,0.0,0.0,0.0,0.0,0.0,0.0,0.0,0.0,0.0,0.0,2.4173,2.4694,2.5427,2.549,2.56,2.5884,2.6147,2.6411,2.6606,0.0,0.0,0.0,0.0,0.0,0.0,0.0,0.0,0.0,0.0,0.0,0.0,0.0,0.0,0.0,2.2216,0.0,0.0,1.9409,1.8212,0.0,0.0,0.0,1.9368,1.8993,2.1259,0.0,0.0,0.0,0.0,0.0,0.0,0.0,0.0,0.0,0.0,0.0,0.0,0.0,2.884,2.7224,2.5564,0.0,0.0,0.0,0.0,0.0,0.0,0.0,0.0,0.0,0.0,0.0,0.0,0.0,0.0,0.0,0.0,0.0,0.0,0.0,2.3728,2.3367,2.292,2.2331,2.2124,2.2371,2.1531,2.1336,2.1836,2.1349,2.1283,2.1617,2.1475,2.1649,2.2058,2.2178,2.2405,2.2672,2.2672,2.2786,2.2893,2.2926,2.3065,2.3305,2.3514,2.3834,2.4209,2.4209,2.4382,2.4599,0.0,0.0,0.0,0.0,0.0,0.0,0.0,0.0,0.0,0.0,0.0,0.0,0.0,0.0,0.0,0.0,2.4703,2.5338,2.5783,2.5865,0.0,2.5759,2.5887,2.6152,2.6504,2.6101,0.0,0.0,0.0,0.0,0.0,0.0,0.0,0.0,0.0,0.0,0.0,0.0,0.0,2.4602,2.2177,2.2025,0.0,0.0,2.0035,0.0,2.0363,1.9773,1.8679,1.8104,1.9721,0.0,0.0,0.0,0.0,0.0,2.6916,0.0,0.0,0.0,0.0,0.0,0.0,0.0,2.8223,2.7461,2.6399,0.0,0.0,0.0,0.0,0.0,0.0,0.0,0.0,0.0,0.0,0.0,0.0,0.0,0.0,0.0,0.0,0.0,2.3937,2.4088,2.3532,2.31,2.2867,2.2291,2.2058,2.2311,2.1537,2.1229,2.1529,2.1243,2.1109,2.1109,2.1109,2.1269,2.1628,2.185,2.2098,2.2378,2.2378,2.2539,2.2827,2.2525,2.2752,2.3273,2.3273,2.3621,2.4102,2.4142,2.4342,2.4559,0.0,0.0,0.0,0.0,0.0,0.0,0.0,0.0,0.0,0.0,0.0,0.0,0.0,0.0,0.0,0.0,0.0,2.4846,0.0,0.0,2.557,2.4807,2.5851,2.6324,2.6055,2.595,2.5865,0.0,0.0,0.0,0.0,0.0,0.0,0.0,0.0,0.0,0.0,0.0,0.0,2.2962,2.1569,0.0,2.04,1.8779,1.8138,1.8085,1.8193,1.8075,1.8063,0.0,1.9923,2.0607,0.0,0.0,0.0,0.0,0.0,0.0,0.0,0.0,0.0,0.0,0.0,0.0,3.1542,3.083,3.0167,0.0,0.0,0.0,0.0,0.0,0.0,0.0,0.0,0.0,0.0,0.0,0.0,0.0,0.0,0.0,0.0,0.0,2.3941,2.3492,2.2905,2.2531,2.2512,2.1984,2.1703,2.1756,2.1323,2.1136,2.1189,2.1136,2.1109,2.1109,2.1109,2.1269,2.1582,2.1649,2.1823,2.2071,2.2071,2.2231,2.2498,2.2445,2.2632,2.2987,2.2987,2.318,2.3492,2.3768,2.4035,2.4329,0.0,0.0,0.0,0.0,0.0,0.0,0.0,0.0,0.0,0.0,0.0,0.0,0.0,0.0,0.0,0.0,0.0,0.0,0.0,0.0,2.5913,2.517,2.5818,2.6086,2.5862,2.6069,2.5962,2.5456,0.0,0.0,0.0,0.0,0.0,0.0,0.0,0.0,0.0,0.0,2.4283,2.2859,2.1775,0.0,1.9352,1.8091,1.7608,1.7608,1.7608,1.7608,1.7781,1.8994,1.9735,0.0,0.0,2.2291,2.279,0.0,2.5722,2.5951,0.0,0.0,0.0,3.1135,0.0,0.0,0.0,3.0579,2.9931,2.9319,0.0,0.0,0.0,0.0,0.0,0.0,0.0,0.0,0.0,0.0,0.0,0.0,0.0,0.0,0.0,0.0,2.3741,2.314,2.2672,2.2385,2.2385,2.1903,2.1582,2.1582,2.1269,2.1109,2.1109,2.1109,2.1109,2.1109,2.1109,2.1189,2.1368,2.1515,2.1662,2.1796,2.1796,2.1937,2.2191,2.2044,2.2245,2.2659,2.284,2.3046,2.3332,2.3696,2.3955,2.4249,2.3101,0.0,0.0,0.0,0.0,0.0,0.0,0.0,0.0,0.0,0.0,0.0,0.0,0.0,0.0,0.0,0.0,0.0,0.0,0.0,0.0,2.5096,2.5622,2.5709,2.518,2.6063,2.6074,2.5219,2.5599,2.5575,0.0,0.0,0.0,0.0,0.0,0.0,0.0,0.0,0.0,2.2808,0.0,2.055,1.9482,1.8386,1.7989,1.7937,1.762,1.7568,1.7715,1.8496,0.0,2.0207,2.0294,2.1221,0.0,0.0,0.0,0.0,0.0,0.0,0.0,0.0,0.0,3.1238,0.0,0.0,0.0,2.8379,0.0,0.0,0.0,0.0,0.0,0.0,0.0,0.0,0.0,0.0,0.0,0.0,0.0,0.0,0.0,0.0,2.3362,2.2934,2.2485,2.2271,2.2338,2.181,2.1502,2.1502,2.1229,2.1109,2.1109,2.1109,2.1109,2.1109,2.1109,2.1109,2.1122,2.1395,2.1502,2.1502,2.1502,2.1662,2.1917,2.1689,2.193,2.2445,2.2686,2.2966,2.3287,2.3669,2.395,2.4168,2.3101,2.3435,0.0,0.0,0.0,0.0,0.0,0.0,0.0,0.0,0.0,0.0,0.0,0.0,0.0,0.0,0.0,0.0,2.3207,0.0,0.0,0.0,2.499,2.5342,2.3007,2.5306,2.62,2.564,2.5688,2.5688,0.0,0.0,0.0,0.0,2.3901,0.0,0.0,0.0,2.1351,0.0,1.9994,2.0094,0.0,1.9775,1.9369,1.9184,1.7766,1.7394,1.7793,0.0,1.9059,1.8862,0.0,2.0807,0.0,0.0,0.0,0.0,0.0,0.0,0.0,0.0,3.3055,0.0,0.0,0.0,3.2992,3.1998,0.0,0.0,0.0,0.0,0.0,0.0,0.0,0.0,0.0,0.0,0.0,0.0,0.0,0.0,0.0,0.0,0.0,2.288,2.2144,2.1796,2.2017,2.1483,2.1162,2.1162,2.1122,2.1109,2.1109,2.1109,2.1109,2.1109,2.1109,2.1109,2.1109,2.1149,2.1162,2.1162,2.1162,2.1323,2.1636,2.1596,2.193,2.2385,2.2458,2.2645,2.3014,2.3589,2.383,2.3937,2.3516,2.3672,0.0,0.0,0.0,0.0,0.0,0.0,0.0,0.0,0.0,0.0,0.0,0.0,0.0,0.0,0.0,2.138,0.0,0.0,0.0,0.0,0.0,0.0,2.4416,2.5455,2.5936,2.5693,2.5693,2.5693,2.5693,0.0,0.0,0.0,2.3534,0.0,2.2554,0.0,0.0,0.0,0.0,0.0,0.0,1.9221,1.8348,1.81,1.7223,1.6967,1.7203,0.0,1.8163,0.0,0.0,0.0,0.0,0.0,0.0,0.0,0.0,0.0,0.0,0.0,0.0,0.0,0.0,0.0,3.2503,0.0,0.0,0.0,0.0,0.0,0.0,0.0,0.0,0.0,0.0,0.0,0.0,0.0,0.0,0.0,0.0,0.0,0.0,0.0,0.0,2.1636,2.1756,2.1336,2.1109,2.1109,2.1109,2.1109,2.1109,2.1109,2.1109,2.1109,2.1109,2.1109,2.1109,2.1109,2.1109,2.1109,2.1109,2.1176,2.1296,2.1296,2.1569,2.197,2.2098,2.2492,2.2974,2.3576,2.3803,2.3884,2.4144,0.0,0.0,0.0,0.0,0.0,0.0,0.0,0.0,0.0,0.0,0.0,2.698,2.4383,0.0,0.0,0.0,2.0419,0.0,0.0,2.2249,0.0,0.0,0.0,0.0,0.0,2.5693,2.5693,2.5693,2.5776,2.5893,2.5776,2.5144,0.0,0.0,2.2612,2.1435,0.0,0.0,2.0635,2.0515,2.0474,2.0296,1.8657,1.7637,1.702,1.6687,1.6633,1.6815,1.7447,1.7787,0.0,1.8233,0.0,0.0,0.0,0.0,0.0,2.7717,0.0,0.0,0.0,0.0,0.0,0.0,0.0,0.0,0.0,0.0,0.0,0.0,0.0,0.0,0.0,0.0,0.0,0.0,0.0,0.0,0.0,0.0,0.0,0.0,0.0,0.0,0.0,2.1927,0.0,2.1582,2.1189,2.1029,2.1109,2.1109,2.1109,2.1109,2.1109,2.1109,2.1109,2.1109,2.1109,2.1109,2.1109,2.1109,2.1109,2.1109,2.1109,2.1109,2.1109,2.1315,2.1609,2.1903,2.2298,2.2853,2.342,2.3736,2.3884,2.4965,2.5043,0.0,0.0,0.0,0.0,0.0,0.0,0.0,0.0,0.0,0.0,0.0,0.0,0.0,0.0,0.0,1.7267,1.914,0.0,1.8479,0.0,0.0,0.0,0.0,0.0,0.0,2.5693,2.5693,2.5932,2.6367,2.5913,2.5908,2.6209,2.4127,2.3208,2.3021,2.0029,1.8974,1.9149,1.7858,1.7334,1.7488,0.0,1.8142,1.6687,1.6417,0.0,0.0,1.8361,1.8311,0.0,0.0,0.0,0.0,0.0,0.0,0.0,0.0,0.0,0.0,0.0,0.0,0.0,0.0,0.0,3.2219,0.0,0.0,0.0,0.0,0.0,0.0,0.0,0.0,0.0,0.0,0.0,0.0,0.0,0.0,0.0,0.0,0.0,0.0,0.0,2.2342,0.0,2.1555,2.1034,2.0815,2.1096,2.1109,2.1109,2.1109,2.1109,2.1109,2.1109,2.1109,2.1109,2.1109,2.1109,2.1109,2.1109,2.1109,2.1109,2.1109,2.1109,2.1315,2.1609,2.1903,2.2164,2.2512,2.3078,2.3527,2.3843,0.0,0.0,0.0,0.0,0.0,0.0,0.0,2.7135,0.0,0.0,0.0,0.0,0.0,0.0,2.0395,0.0,0.0,1.7196,1.7274,1.8281,0.0,0.0,0.0,2.2304,0.0,0.0,0.0,0.0,0.0,2.5796,2.5932,2.5752,2.5796,2.5864,0.0,2.2654,0.0,0.0,0.0,0.0,0.0,1.8047,1.8803,0.0,0.0,1.638,1.6086,1.6021,0.0,1.695,1.7084,1.7123,1.7715,1.8511,1.9299,1.9926,2.0898,0.0,0.0,0.0,2.363,2.7107,0.0,0.0,0.0,0.0,0.0,0.0,0.0,0.0,0.0,0.0,0.0,0.0,0.0,0.0,0.0,0.0,0.0,0.0,0.0,0.0,0.0,0.0,0.0,2.3784,2.1502,2.0267,0.0,2.0681,2.0753,2.0815,2.1002,2.1109,2.1109,2.1109,2.1109,2.1109,2.1109,2.1109,2.1109,2.1109,2.1109,2.1109,2.1109,2.1109,2.1109,2.1109,2.1162,2.1309,2.179,2.2044,2.2231,2.2998,2.3514,2.387,2.5679,0.0,0.0,0.0,0.0,0.0,0.0,0.0,0.0,0.0,2.5545,0.0,2.4578,0.0,2.0806,0.0,1.8948,1.7327,1.6658,1.7674,0.0,1.7765,1.9596,0.0,0.0,0.0,0.0,0.0,0.0,2.6167,2.6167,2.5854,2.5796,2.5908,0.0,2.2895,2.0771,0.0,1.8783,0.0,0.0,1.8033,0.0,0.0,1.6856,0.0,0.0,1.5808,1.5835,1.6046,1.6313,1.6553,1.6553,1.7541,1.8727,1.8843,1.9701,2.0701,2.1062,2.0882,0.0,0.0,2.4919,0.0,0.0,0.0,0.0,0.0,0.0,0.0,0.0,0.0,0.0,0.0,0.0,0.0,0.0,0.0,0.0,0.0,0.0,0.0,0.0,0.0,2.482,2.3278,2.1562,2.0472,0.0,0.0,2.0561,2.0699,2.0962,2.1109,2.1109,2.1109,2.1109,2.1109,2.1109,2.1109,2.1109,2.1109,2.1109,2.1109,2.1109,2.1109,2.1109,2.1109,2.1109,2.1162,2.175,2.1991,2.2084,2.2873,2.342,2.3884,0.0,0.0,0.0,0.0,2.6122,0.0,0.0,0.0,2.5827,0.0,2.4901,2.4228,2.4252,2.233,2.1094,2.1259,1.9063,0.0,1.7246,1.6914,0.0,0.0,1.7945,1.8661,1.872,0.0,0.0,0.0,0.0,0.0,2.6947,2.6128,2.5952,2.6353,2.5893,0.0,2.0836,2.1412,1.9754,1.6754,1.706,1.7257,1.7255,1.6549,0.0,1.8713,1.6583,1.5808,1.5808,1.5808,1.6019,1.627,1.627,1.6446,1.6727,1.706,1.7179,1.7287,1.7836,1.9428,2.1018,2.1388,0.0,0.0,0.0,0.0,2.5684,0.0,0.0,0.0,0.0,0.0,0.0,0.0,0.0,0.0,0.0,0.0,0.0,0.0,0.0,0.0,0.0,2.8642,2.6845,2.358,2.2466,2.1422,0.0,0.0,0.0,2.0672,2.0949,2.1109,2.1109,2.1109,2.1109,2.1109,2.1109,2.1109,2.1109,2.1109,2.1109,2.1109,2.1109,2.1109,2.1109,2.1109,2.1122,2.1189,2.1764,2.2004,2.2131,2.2719,2.3308,2.3884,2.625,2.6842,2.7428,0.0,2.6368,2.5626,0.0,0.0,0.0,0.0,2.3003,2.2451,2.1144,2.049,1.9981,1.9596,1.8928,0.0,0.0,0.0,0.0,1.674,1.7447,1.8263,1.904,2.026,0.0,2.4191,0.0,0.0,2.6543,2.6328,2.6113,2.5874,0.0,0.0,2.0819,2.1171,1.9677,1.7073,1.7166,1.7984,0.0,0.0,1.739,1.8664,1.656,1.5808,1.5808,1.5808,1.5861,1.5915,1.5915,1.5968,1.6128,1.6673,1.682,1.6954,1.7542,1.8072,1.8945,2.0755,2.1606,2.25,0.0,0.0,0.0,0.0,0.0,0.0,0.0,0.0,0.0,0.0,0.0,0.0,0.0,0.0,0.0,0.0,0.0,0.0,2.9786,2.7207,2.4986,2.391,2.2187,0.0,0.0,0.0,0.0,2.0378,2.0842,2.1109,2.1109,2.1109,2.1109,2.1109,2.1109,2.1109,2.1109,2.1109,2.1109,2.1109,2.1109,2.1109,2.1109,2.1109,2.1243,2.1502,2.1844,2.2291,2.2746,2.3348,2.3669,2.3884,2.7018,0.0,0.0,2.9316,0.0,0.0,2.6385,0.0,0.0,2.2209,2.1612,0.0,1.9757,1.9642,1.9426,1.893,1.889,0.0,0.0,0.0,0.0,1.7114,1.7314,1.7716,1.8303,1.9283,0.0,2.352,0.0,0.0,2.666,2.6269,2.5952,2.5693,0.0,2.4371,2.2094,2.1039,1.9801,1.8466,1.7408,0.0,0.0,1.675,1.678,1.7585,1.6279,1.5808,1.5808,1.5808,1.5808,1.5808,1.5808,1.5888,1.6112,1.6567,1.6794,1.702,1.7488,1.7608,1.7925,1.9249,1.9567,1.9956,2.1396,2.1927,2.1796,0.0,0.0,0.0,0.0,0.0,0.0,0.0,0.0,0.0,0.0,0.0,0.0,0.0,0.0,0.0,2.9945,2.6225,2.3813,2.4188,0.0,0.0,0.0,0.0,0.0,2.1512,2.123,2.1109,2.1109,2.1109,2.1109,2.1109,2.1109,2.1109,2.1109,2.1109,2.1109,2.1109,2.1109,2.1109,2.1122,2.1256,2.1435,2.1622,2.2004,2.2458,2.2974,2.3576,2.3803,2.3884,0.0,0.0,0.0,0.0,0.0,0.0,0.0,2.5461,0.0,2.2053,0.0,1.9853,1.9548,1.9508,1.9345,1.9011,0.0,1.8716,1.8169,1.8129,1.7982,1.7662,1.7421,1.73,1.7259,1.8832,0.0,0.0,0.0,0.0,2.6967,2.6167,2.5776,2.5693,2.5693,0.0,0.0,2.0775,1.9754,0.0,1.7542,1.6913,1.7112,1.6206,1.6046,1.627,1.5979,1.5835,1.5808,1.5808,1.5835,1.5861,1.5861,1.6086,1.6417,1.6673,1.6966,1.7259,1.7528,1.7608,1.7608,1.7608,1.7608,1.7649,1.7902,1.7956,1.8049,1.837,1.9805,0.0,0.0,0.0,0.0,0.0,0.0,0.0,0.0,0.0,0.0,0.0,0.0,0.0,0.0,2.5604,0.0,0.0,0.0,0.0,0.0,0.0,0.0,0.0,2.1631,0.0,2.1162,0.0,2.1122,2.1162,2.1122,2.1109,2.1109,2.1109,2.1109,2.1109,2.1109,2.1109,2.1136,2.1462,2.1622,2.1756,2.2271,2.2659,2.3027,2.3589,2.383,2.3901,0.0,0.0,0.0,0.0,0.0,2.8003,2.6878,2.346,2.1008,2.0941,2.0908,0.0,2.0104,2.005,1.9867,1.9361,1.9321,0.0,0.0,0.0,0.0,1.7969,1.7889,1.7769,1.7541,1.7652,1.9372,0.0,0.0,0.0,2.6986,2.6504,2.6074,2.5693,2.5693,0.0,2.1245,1.9881,0.0,1.7294,1.6867,1.6913,1.7125,1.6458,1.6257,1.6284,1.6244,1.6032,1.5808,1.5808,1.5992,1.6217,1.6217,1.6393,1.6687,1.7006,1.7166,1.7259,1.7528,1.7608,1.7608,1.7608,1.7608,1.7622,1.7649,1.7662,1.7756,1.8036,1.8197,1.8684,2.0072,0.0,0.0,0.0,0.0,0.0,0.0,0.0,0.0,0.0,0.0,0.0,0.0,0.0,0.0,0.0,0.0,0.0,0.0,0.0,0.0,0.0,0.0,0.0,0.0,0.0,0.0,2.1502,2.1229,2.1109,2.1109,2.1109,2.1109,2.1109,2.1109,2.1109,2.1136,2.1462,2.1863,2.2298,2.2679,2.2979,2.3287,2.3683,2.3928,2.4182,0.0,0.0,0.0,0.0,0.0,0.0,0.0,2.2544,0.0,2.0712,2.0668,2.0517,2.0237,2.0064,1.9893,1.9613,1.9481,1.9267,1.8916,1.889,1.8703,1.8263,1.8103,0.0,1.7796,1.7408,1.9057,2.2908,0.0,0.0,0.0,2.668,2.6269,2.605,0.0,2.3877,0.0,0.0,0.0,1.8212,1.7311,1.7072,1.7152,1.6685,1.6524,1.6524,1.6524,1.6406,1.6259,1.6112,1.6259,1.6473,1.6351,1.6605,1.6966,1.6953,1.7167,1.7434,1.7568,1.7608,1.7608,1.7608,1.7608,1.7608,1.7608,1.7608,1.7608,1.7582,1.7488,1.7707,1.874,1.9811,0.0,0.0,0.0,0.0,0.0,0.0,0.0,0.0,0.0,0.0,0.0,0.0,0.0,0.0,0.0,0.0,0.0,0.0,0.0,0.0,0.0,0.0,0.0,0.0,0.0,2.1355,2.1176,2.1109,2.1109,2.1109,2.1109,2.1122,2.1269,2.1256,2.1149,2.1622,2.2158,2.2659,2.284,2.3046,2.3332,2.3696,2.3955,2.4249,0.0,3.1671,0.0,0.0,2.78,0.0,0.0,2.2226,2.1029,2.0802,2.0561,2.0357,2.0304,2.012,1.996,1.9893,1.9626,1.9359,1.909,1.9052,1.8891,1.8597,1.8329,1.8115,1.7995,1.7515,1.8916,0.0,0.0,0.0,0.0,0.0,0.0,0.0,0.0,0.0,0.0,0.0,1.9497,1.9122,1.7736,1.7233,1.7259,1.6939,1.6807,1.6807,1.6807,1.6807,1.6767,1.6565,1.6632,1.6754,1.6551,1.6871,1.722,1.6967,1.7221,1.7608,1.7608,1.7608,1.7608,1.7608,1.7608,1.7595,1.7528,1.7568,1.7501,1.7153,1.7152,1.7206,1.7206,1.8048,0.0,0.0,0.0,0.0,0.0,0.0,0.0,0.0,0.0,0.0,0.0,0.0,0.0,0.0,0.0,0.0,0.0,0.0,0.0,0.0,0.0,0.0,2.1203,0.0,2.1149,0.0,2.1136,2.1109,2.1109,2.1109,2.1109,2.1122,2.1395,2.1435,2.1336,2.179,2.2372,2.2893,2.2893,2.3121,2.3447,2.3688,2.3995,2.4329,0.0,0.0,0.0,0.0,0.0,0.0,0.0,2.2398,2.1096,2.1069,2.1042,2.0922,2.0668,2.0646,2.0481,2.0184,1.992,1.9746,1.972,1.9495,1.9227,1.8863,1.8823,1.8569,1.8009,1.7716,1.8394,0.0,0.0,0.0,0.0,0.0,0.0,0.0,0.0,0.0,0.0,1.9235,1.8535,1.7438,1.7257,1.7367,1.7541,1.7273,1.7166,1.7166,1.7166,1.7166,1.7152,1.7125,1.7139,1.7152,1.7125,1.7314,1.7568,1.7515,1.7568,1.7608,1.7608,1.7608,1.7608,1.7608,1.7608,1.7541,1.73,1.7421,1.7448,1.686,1.6993,1.7206,1.7206,1.7295,1.7536,0.0,0.0,0.0,0.0,0.0,0.0,0.0,0.0,0.0,0.0,0.0,0.0,0.0,0.0,0.0,0.0,0.0,0.0,0.0,0.0,2.0668,2.1542,2.1243,0.0,2.1542,2.1243,2.1109,2.1109,2.1109,2.1109,2.1109,2.1136,2.1443,2.1911,2.1964,2.2372,2.2893,2.2893,2.3255,2.3763,2.379,2.4115,2.4559,0.0,0.0,0.0,0.0,0.0,0.0,0.0,2.1619,2.1109,2.1109,2.1109,2.1069,2.0949,2.0806,2.0659,2.0508,2.0067,1.98,1.98,1.9562,1.9348,1.9227,1.9025,1.8703,1.8317,1.7996,1.8472,0.0,0.0,0.0,0.0,0.0,0.0,0.0,0.0,2.012,1.8955,1.8271,1.7705,1.7219,1.7367,1.7501,1.7595,1.7474,1.7434,1.7434,1.7434,1.7434,1.7434,1.7434,1.7434,1.7408,1.7259,1.7367,1.7582,1.7394,1.7474,1.7608,1.7608,1.7608,1.7608,1.7608,1.7608,1.7582,1.7461,1.7394,1.7287,1.7046,1.7125,1.7206,1.7206,1.734,1.7542,0.0,0.0,0.0,0.0,0.0,0.0,0.0,0.0,0.0,0.0,0.0,0.0,0.0,0.0,0.0,0.0,0.0,0.0,2.1704,0.0,2.0401,2.1283,2.1162,2.1162,2.1283,2.1162,2.1109,2.1109,2.1109,2.1203,2.1408,2.1408,2.171,2.2245,2.2245,2.2485,2.2893,2.2893,2.3268,2.3803,2.3803,2.4142,2.4599,2.5486,0.0,2.5121,0.0,2.3374,2.2917,2.1339,2.1109,2.1109,2.1109,2.1109,2.1109,2.1109,2.0922,2.0833,2.0833,2.0267,1.992,1.992,1.9573,1.9401,1.9401,1.9172,0.0,1.8624,1.8383,1.8617,1.9269,2.129,0.0,0.0,0.0,0.0,0.0,1.9554,1.8864,1.8542,1.7603,1.7246,1.7314,1.7528,1.7608,1.7608,1.7608,1.7608,1.7608,1.7608,1.7608,1.7608,1.7608,1.7608,1.7568,1.7367,1.7448,1.7568,1.7367,1.7448,1.7608,1.7608,1.7608,1.7608,1.7608,1.7608,1.7582,1.7501,1.7394,1.73,1.7219,1.7206,1.7206,1.7206,1.7408,1.7716,0.0,0.0,0.0,0.0,0.0,0.0,0.0,0.0,1.7422,1.8649,0.0,0.0,0.0,0.0,0.0,0.0,0.0,0.0,0.0,0.0,0.0,0.0,0.0,2.1109,2.1109,2.1109,2.1109,2.1109,2.1203,2.1435,2.1716,2.1716,2.1997,2.2385,2.2385,2.2592,2.2907,2.3,2.3348,2.3817,2.391,2.4209,2.4599,2.1186,2.1445,2.1553,2.1194,2.1427,2.1521,2.1149,2.1109,2.1109,2.1109,2.1109,2.1109,2.1109,2.1109,2.1109,2.1109,2.053,2.0197,2.0197,1.9693,1.9401,0.0,0.0,1.9254,1.889,1.889,1.8596,1.8009,0.0,0.0,2.0401,0.0,0.0,1.9819,1.9793,1.8832,1.7232,1.7206,1.7341,1.7608,1.7608,1.7608,1.7608,1.7608,1.7608,1.7608,1.7608,1.7608,1.7608,1.7608,1.7608,1.7608,1.7608,1.7608,1.7608,1.7608,1.7608,1.7608,1.7608,1.7608,1.7608,1.7608,1.7608,1.7528,1.7273,1.7394,1.7528,1.7259,1.7206,1.7206,1.7206,1.7408,1.7809,1.8411,0.0,0.0,0.0,0.0,0.0,0.0,1.8103,1.8036,1.6846,0.0,0.0,0.0,0.0,0.0,0.0,0.0,0.0,1.9417,1.9933,0.0,2.1096,2.1109,2.1109,2.1109,2.1109,2.1109,2.1122,2.1448,2.1743,2.201,2.201,2.2151,2.2385,2.2385,2.2592,2.2934,2.3207,2.35,2.3843,2.4088,2.4382,2.4599,2.1109,2.1189,2.1216,2.1122,2.1189,2.1216,2.1122,2.1109,2.1109,2.1109,2.1109,2.1109,2.1109,2.1109,2.1109,0.0,2.0544,2.0197,0.0,1.9693,1.9401,1.9401,1.9401,1.9225,1.8903,1.889,1.8609,1.7995,0.0,0.0,0.0,2.0944,2.0219,1.8571,1.8571,1.8263,1.7756,1.7756,1.7689,1.7622,1.7782,1.7769,1.7648,1.8077,1.8076,1.7902,1.813,1.8196,1.8196,1.8196,1.8063,1.7902,1.8143,1.7943,1.7608,1.7608,1.7608,1.7608,1.7608,1.7608,1.7608,1.7608,1.7608,1.7582,1.7488,1.7541,1.7528,1.7259,1.7367,1.7474,1.7474,1.7689,1.7996,1.8424,0.0,0.0,0.0,0.0,0.0,0.0,0.0,1.7048,0.0,1.7488,0.0,0.0,0.0,0.0,0.0,0.0,0.0,0.0,2.0802,0.0,2.1096,2.1109,2.1109,2.1109,2.1109,2.1216,2.1448,2.1542,2.1743,2.1991,2.2191,2.2338,2.2432,2.2632,2.2813,2.2934,2.3207,2.3514,2.3843,2.4102,2.4382,2.4599,2.1109,2.1109,2.1109,2.1109,2.1109,2.1109,2.1109,2.1109,2.1109,2.1109,2.1109,2.1109,2.1109,2.1109,0.0,2.1109,2.0681,0.0,2.021,1.9786,1.9508,1.9401,1.9401,1.9308,1.9092,0.0,0.0,1.8544,1.971,2.0141,1.9866,1.9692,1.9106,1.8183,1.8183,1.8183,1.8183,1.8183,1.8103,1.7943,1.8103,1.809,1.7996,1.8371,1.837,1.8209,1.8424,1.849,1.849,1.849,1.837,1.8223,1.8437,1.8223,1.7956,1.7956,1.7956,1.7903,1.7782,1.7756,1.7729,1.7635,1.7608,1.7608,1.7608,1.7608,1.7555,1.7367,1.7542,1.7756,1.7756,1.7982,1.8276,1.8611,0.0,0.0,0.0,0.0,0.0,0.0,0.0,0.0,0.0,1.7782,0.0,0.0,0.0,0.0,0.0,0.0,0.0,2.1837,2.0909,0.0,2.1109,2.1109,2.1109,2.1109,2.1229,2.1462,2.1756,2.1863,2.2077,2.2358,2.2512,2.2579,2.2605,2.2813,2.296,2.3073,2.338,2.3674,2.3968,2.4262,2.4439,2.4599,2.1109,2.1109,0.0,0.0,2.1109,0.0,2.1109,2.1109,2.1109,2.1109,2.1109,2.1109,2.1109,2.1109,2.1109,2.1109,0.0,0.0,0.0,1.9987,1.9706,1.9468,1.9455,0.0,1.9428,1.9428,1.9415,1.9401,1.9065,1.877,1.8557,1.8531,1.8531,1.8557,1.8557,1.8544,1.8517,1.8517,1.8504,1.849,1.8517,1.8504,1.849,1.8558,1.8544,1.8517,1.8544,1.8557,1.8557,1.8557,1.8544,1.8517,1.8544,1.8544,1.8517,1.8504,1.849,1.8437,1.8129,1.8022,1.7982,1.7716,1.7622,1.7609,1.7608,1.7595,1.7635,1.7635,1.7836,1.8022,1.8022,1.8289,1.8611,1.885,1.8916,1.8916,1.8876,0.0,0.0,0.0,0.0,0.0,0.0,1.8569,1.893,0.0,0.0,0.0,0.0,0.0,0.0,1.9939,2.0445,2.0842,2.1109,2.1109,2.1122,2.1149,2.1475,2.177,2.2031,2.2298,2.2579,2.2893,2.2893,2.2893,2.2893,2.2893,2.3046,2.3319,2.3661,2.3941,2.4235,2.4492,2.4599,2.4599,0.0,0.0,2.1109,2.1109,2.1109,2.1109,2.1109,2.1109,2.1109,2.1109,2.1109,2.1109,2.1109,2.1109,2.1109,2.1109,2.0842,2.0672,2.0575,2.0294,2.0064,1.9997,1.9997,1.992,1.9706,1.9693,1.9615,1.9401,1.9065,1.9011,1.9187,1.8931,1.8945,1.9187,1.9187,1.9038,1.8824,1.8824,1.8691,1.8504,1.8731,1.8691,1.8544,1.9013,1.9025,1.8851,1.9107,1.9187,1.9187,1.9187,1.9011,1.8865,1.912,1.8998,1.8784,1.8557,1.849,1.8477,1.841,1.8384,1.837,1.829,1.8076,1.7849,1.7662,1.7769,1.7916,1.7916,1.8143,1.8384,1.8384,1.8624,1.881,1.889,1.9118,1.9105,1.8651,0.0,0.0,0.0,1.8357,1.8583,1.8049,1.8784,1.9294,0.0,0.0,0.0,0.0,0.0,2.2908,2.0542,2.0815,2.1042,2.1109,2.1109,2.1229,2.1489,2.177,2.2031,2.2311,2.2392,2.2579,2.2893,2.2893,2.2893,2.2893,2.2893,2.3046,2.3319,2.3661,2.3941,2.4235,2.4492,2.4599,2.4599,2.1109,2.1109,2.1109,2.1109,2.1109,2.1109,2.1109,2.1109,2.1109,2.1109,2.1109,2.1109,2.1109,2.1109,2.1109,2.1109,2.0962,2.0815,2.0712,2.0521,2.0374,2.021,2.0197,2.013,2.0,1.997,1.992,1.976,1.9466,1.9412,1.9589,1.9265,1.9241,1.9401,1.9401,1.9308,1.9132,1.9132,1.9038,1.8905,1.9065,1.9038,1.896,1.9281,1.9294,1.9145,1.9334,1.9401,1.9401,1.9401,1.9294,1.9158,1.9348,1.9281,1.9092,1.8945,1.892,1.8893,1.8731,1.8691,1.8651,1.8517,1.837,1.8183,1.8036,1.813,1.8223,1.8223,1.8463,1.8691,1.8691,1.8931,1.9132,1.9132,1.9294,1.9241,1.8758,1.8824,0.0,1.825,1.8744,1.9052,1.8836,1.9399,1.976,1.976,0.0,0.0,2.0502,2.1929,2.2118,2.0757,2.0962,2.1109,2.1109,2.1243,2.1422,2.1582,2.201,2.2271,2.2418,2.2565,2.2746,2.2893,2.2893,2.2893,2.2893,2.2893,2.3161,2.3541,2.375,2.4035,2.4386,2.4546,2.4599,2.4599,2.1109,2.1109,2.1109,2.1109,2.1109,2.1109,2.1109,2.1109,2.1109,2.1109,2.1109,2.1109,2.1109,2.1109,2.1109,2.1109,2.1109,2.1002,2.0793,2.0766,2.0628,2.0344,2.033,2.0317,2.0264,2.0224,2.0197,2.0197,1.9957,1.984,1.98,1.9575,1.9441,1.9401,1.9401,1.9401,1.9401,1.9401,1.9401,1.9401,1.9401,1.9401,1.9401,1.9401,1.9401,1.9401,1.9401,1.9401,1.9401,1.9401,1.9401,1.9401,1.9401,1.9401,1.9401,1.9455,1.9428,1.9348,1.9065,1.8985,1.8918,1.8624,1.8557,1.8544,1.8504,1.8517,1.8557,1.8557,1.8824,1.9023,1.9023,1.9265,1.9468,1.9468,1.9428,1.9294,1.893,0.0,1.901,1.897,1.9332,1.9669,1.984,2.0104,2.0264,2.0264,2.0535,0.0,0.0,2.1015,2.1069,2.0846,2.1002,2.1136,2.1176,2.1502,2.1676,2.1729,2.2231,2.2485,2.2498,2.2786,2.2893,2.2893,2.2893,2.2893,2.2893,2.2893,2.3255,2.3803,2.3803,2.4128,2.4599,2.4599,2.4599,2.4599,2.1109,2.1109,2.1109,2.1109,2.1109,2.1109,2.1109,2.1109,2.1109,2.1109,2.1109,2.1109,2.1109,2.1109,2.1109,2.1109,2.1109,2.1096,2.1042,2.1042,2.1015,2.0975,2.0975,2.0855,2.0646,2.033,2.0197,2.0197,2.0157,2.001,1.98,1.976,1.9629,1.9401,1.9401,1.9401,1.9401,1.9401,1.9401,1.9401,1.9401,1.9401,1.9401,1.9401,1.9401,1.9401,1.9401,1.9401,1.9401,1.9401,1.9401,1.9401,1.9401,1.9401,1.9441,1.9653,1.9589,1.9388,1.9348,1.9321,1.9225,1.8931,1.8823,1.8798,1.8544,1.8677,1.8823,1.8823,1.9292,1.9666,1.9666,1.9706,1.9733,1.9733,1.9562,1.9294,0.0,0.0,1.9573,1.9361,2.0017,2.0388,2.0157,2.0428,2.0601,2.0601,2.0686,2.0788,2.1029,2.1355,2.1502,2.1448,2.1216,2.1229,2.1515,2.181,2.2044,2.2285,2.2666,2.2827,2.2827,2.288,2.2893,2.2893,2.2893,2.2893,2.2893,2.2893,2.3255,2.3803,2.3803,2.4128,2.4599,2.4599,2.4599,2.4599,2.1109,2.1109,2.1162,2.1355,2.1381,2.1381,2.1381,2.1381,2.1296,2.1136,2.1109,2.1109,2.1109,2.1109,2.1109,2.1109,2.1109,2.1109,2.1109,2.1109,2.1109,2.1109,2.1109,2.1042,2.0909,2.0775,2.0677,2.0677,2.0548,2.0401,2.0267,2.0107,1.988,1.9629,1.9629,1.9548,1.9401,1.9401,1.9401,1.9401,1.9401,1.9401,1.9401,1.9401,1.9401,1.9401,1.9401,1.9401,1.9401,1.9401,1.9401,1.9428,1.9575,1.9629,1.9653,1.9947,1.9826,1.9559,1.9441,1.9401,1.9361,1.9199,1.9158,1.9132,1.9027,1.9185,1.9399,1.9399,1.9703,2.004,2.004,2.004,2.004,2.004,1.9786,0.0,0.0,1.9733,1.9867,2.0084,2.0458,2.0712,2.0708,2.1007,2.1114,2.0922,2.1087,2.1167,2.1109,2.1422,2.1582,2.1582,2.1448,2.1515,2.181,2.1957,2.2124,2.2385,2.276,2.2893,2.2893,2.2893,2.2893,2.2893,2.2893,2.2893,2.2907,2.3046,2.3367,2.3817,2.3941,2.4262,2.4599,2.4599,2.4599,2.4599,2.1109,2.1162,2.1315,2.1542,2.1636,2.1662,2.1596,2.1582,2.1475,2.1149,2.1162,2.1189,2.1122,2.1176,2.1216,2.1216,2.1149,2.1136,2.1203,2.1149,2.1109,2.1109,2.1109,2.1109,2.1109,2.1109,2.1109,2.1109,2.0882,2.0766,2.0699,2.0441,2.0144,1.9907,1.9907,1.9773,1.9602,1.9602,1.9562,1.9508,1.9575,1.9522,1.9401,1.9468,1.9495,1.9495,1.9495,1.9535,1.9602,1.9602,1.9602,1.9613,1.9826,1.9907,1.996,2.0224,2.0174,1.9933,1.9653,1.9548,1.9508,1.9575,1.9548,1.9522,1.9589,1.9746,1.9907,1.9907,2.0134,2.0304,2.0304,2.0304,2.0304,2.0304,0.0,0.0,0.0,2.0107,2.0174,2.0646,2.0766,2.0869,2.1082,2.1408,2.1489,2.1229,2.1462,2.1489,2.1229,2.1529,2.1743,2.189,2.1756,2.1796,2.201,2.2058,2.2231,2.2525,2.2786,2.2893,2.2893,2.2893,2.2893,2.2893,2.2893,2.2893,2.292,2.3193,2.35,2.383,2.4088,2.4346,2.4599,2.4599,2.4599,2.4599,2.1109,2.1368,2.1555,2.1614,2.181,2.189,2.1622,2.1582,2.1475,2.1149,2.1381,2.1448,2.1136,2.1395,2.1555,2.1555,2.1269,2.1229,2.1529,2.1256,2.1109,2.1109,2.1109,2.1109,2.1109,2.1109,2.1109,2.1109,2.1082,2.0935,2.0712,2.0686,2.0481,2.017,2.017,2.0157,2.0144,2.0144,2.0013,1.9786,2.0024,1.984,1.9428,1.9666,1.9773,1.9773,1.9773,1.9947,2.0144,2.0144,2.0144,2.0144,2.0157,2.017,2.0224,2.0561,2.0659,2.0548,2.0224,1.9973,1.9826,2.0077,1.993,1.984,2.0077,2.0157,2.017,2.017,2.0441,2.0672,2.0672,2.0672,2.0672,2.0672,0.0,0.0,2.0197,2.0454,2.0659,2.0699,2.0909,2.1082,2.1109,2.1408,2.1582,2.1555,2.1569,2.1569,2.1555,2.1823,2.2238,2.2786,2.2265,2.1964,2.1991,2.2258,2.2539,2.2867,2.288,2.2893,2.2893,2.2893,2.2893,2.2893,2.2893,2.2893,2.292,2.3193,2.35,2.383,2.4088,2.4346,2.4599,2.4599,2.4599,2.4599,2.1109,2.1381,2.1582,2.1582,2.1823,2.1984,2.1877,2.185,2.181,2.167,2.1783,2.181,2.167,2.1783,2.185,2.185,2.1582,2.1462,2.1582,2.1269,2.1109,2.1109,2.1109,2.1109,2.1109,2.1109,2.1109,2.1109,2.1109,2.1056,2.0949,2.0949,2.0788,2.0508,2.0508,2.037,2.0197,2.0197,2.0144,2.005,2.0157,2.0064,1.992,1.9997,2.0037,2.0037,2.0037,2.0104,2.0197,2.0197,2.0197,2.0237,2.0454,2.0508,2.0561,2.0855,2.0949,2.0922,2.0771,2.0397,2.0064,2.017,2.0117,2.0064,2.0184,2.0344,2.0508,2.0508,2.0735,2.0949,2.0949,2.0949,2.0949,2.0949,0.0,2.0575,2.0717,2.0722,2.0748,2.0922,2.1234,2.1422,2.1422,2.185,2.2017,2.1863,2.1991,2.197,2.1609,2.1863,2.2164,2.2579,2.2586,2.2559,2.2559,2.2458,2.2565,2.2893,2.2893,2.2893,2.2893,2.2893,2.3,2.3153,2.3153,2.326,2.3482,2.3754,2.3941,2.4062,2.4356,2.4506,2.4599,2.4599,2.4599,2.4599,2.1256,2.1596,2.185,2.185,2.2104,2.2265,2.2138,2.2124,2.2084,2.1991,2.2071,2.2084,2.1991,2.2071,2.2124,2.2124,2.181,2.1622,2.1716,2.1323,2.1109,2.1109,2.1109,2.1109,2.1109,2.1109,2.1109,2.1109,2.1109,2.1109,2.1109,2.1109,2.1002,2.0846,2.0846,2.0695,2.0477,2.0477,2.0424,2.0344,2.0437,2.037,2.021,2.0304,2.0374,2.0374,2.0374,2.0397,2.0477,2.0477,2.0477,2.0517,2.0748,2.0846,2.0855,2.1056,2.1109,2.1109,2.1109,2.0815,2.0477,2.0477,2.041,2.0401,2.0464,2.0668,2.0846,2.0846,2.0975,2.1109,2.1109,2.1109,2.1109,2.1109,2.0949,2.0882,2.1082,2.0935,2.0882,2.1082,2.1408,2.1582,2.1582,2.2084,2.2338,2.2138,2.2311,2.2245,2.1877,2.2017,2.2258,2.2552,2.2786,2.2893,2.2893,2.2659,2.2659,2.2893,2.2893,2.2893,2.2893,2.3,2.3126,2.3292,2.342,2.3581,2.383,2.4088,2.4209,2.4235,2.4492,2.4599,2.4599,2.4599,2.4599,2.4599,2.1582,2.2017,2.2418,2.2418,2.2659,2.2786,2.2458,2.2385,2.2311,2.2031,2.2245,2.2311,2.2031,2.2245,2.2385,2.2385,2.193,2.1716,2.1964,2.143,2.1109,2.1109,2.1109,2.1109,2.1109,2.1109,2.1109,2.1109,2.1109,2.1109,2.1109,2.1109,2.1109,2.1109,2.1109,2.1109,2.1109,2.1109,2.0949,2.0739,2.0989,2.0731,2.0237,2.0575,2.0712,2.0712,2.0712,2.0869,2.1109,2.1109,2.1109,2.1109,2.1109,2.1109,2.1109,2.1109,2.1109,2.1109,2.1109,2.1109,2.1109,2.1109,2.0895,2.0762,2.1042,2.1109,2.1109,2.1109,2.1109,2.1109,2.1109,2.1109,2.1109,2.1122,2.1109,2.1109,2.1109,2.1109,2.1109,2.1109,2.1408,2.1628,2.1582,2.2084,2.2385,2.2385,2.2385,2.2385,2.2385,2.2385,2.2552,2.288,2.2893,2.2893,2.2893,2.2893,2.2893,2.2893,2.2893,2.2893,2.2907,2.3193,2.3292,2.3319,2.3647,2.3803,2.383,2.4088,2.4209,2.4235,2.4492,2.4599,2.4599,2.4599,2.4599,2.4599,2.181,2.1991,2.2111,2.2111,2.2352,2.2525,2.2432,2.2385,2.2458,2.2612,2.2706,2.2733,2.2639,2.2706,2.276,2.276,2.2378,2.2031,2.1743,2.1323,2.1109,2.1109,2.1109,2.1109,2.1109,2.1109,2.1109,2.1109,2.1109,2.1109,2.1109,2.1109,2.1109,2.1109,2.1109,2.1109,2.1109,2.1109,2.1056,2.0989,2.1069,2.1002,2.0824,2.0949,2.0975,2.0975,2.0975,2.1042,2.1109,2.1109,2.1109,2.1109,2.1109,2.1109,2.1109,2.1109,2.1109,2.1109,2.1109,2.1109,2.1109,2.1109,2.1042,2.1002,2.1096,2.1109,2.1109,2.1109,2.1269,2.1448,2.1448,2.1448,2.1515,2.1697,2.1376,2.1189,2.1422,2.1448,2.1368,2.1136,2.1737,2.2084,2.1917,2.2425,2.276,2.276,2.2539,2.2512,2.2746,2.2539,2.2552,2.288,2.2893,2.2893,2.2893,2.2893,2.2893,2.2893,2.2893,2.3014,2.3193,2.3252,2.3519,2.3955,2.4035,2.4195,2.4382,2.4439,2.4466,2.4479,2.4572,2.4599,2.4599,2.4599,2.4733,2.4917,2.1897,2.2084,2.2191,2.2345,2.2472,2.2592,2.2592,2.2592,2.2659,2.288,2.2893,2.2893,2.2893,2.2893,2.2893,2.2893,2.2485,2.2044,2.1609,2.1269,2.1109,2.1109,2.1109,2.1109,2.1109,2.1109,2.1109,2.1109,2.1109,2.1109,2.1109,2.1109,2.1109,2.1109,2.1109,2.1109,2.1109,2.1109,2.1109,2.1109,2.1109,2.1109,2.1109,2.1109,2.1109,2.1109,2.1109,2.1109,2.1109,2.1109,2.1109,2.1109,2.1109,2.1109,2.1109,2.1109,2.1109,2.1109,2.1109,2.1109,2.1109,2.1109,2.1109,2.1109,2.1109,2.1203,2.1315,2.1315,2.1555,2.1756,2.1756,2.1756,2.181,2.1951,2.1683,2.1523,2.1729,2.1756,2.1689,2.1483,2.2031,2.2352,2.2178,2.2612,2.2893,2.2893,2.2699,2.2672,2.288,2.2733,2.2672,2.2893,2.2893,2.2893,2.2893,2.2893,2.2893,2.2893,2.2893,2.3033,2.3292,2.3447,2.3754,2.4209,2.4329,2.4439,2.4599,2.4599,2.4599,2.4599,2.4599,2.4599,2.4599,2.4599,2.4719,2.489,2.1951,2.2218,2.2485,2.284,2.2893,2.2893,2.2893,2.2893,2.2893,2.2893,2.2893,2.2893,2.2893,2.2893,2.2893,2.2893,2.2385,2.1943,2.1676,2.1349,2.1189,2.1189,2.1189,2.1176,2.1149,2.1122,2.1109,2.1109,2.1109,2.1109,2.1109,2.1109,2.1109,2.1109,2.1109,2.1109,2.1109,2.1109,2.1109,2.1109,2.1109,2.1109,2.1109,2.1109,2.1109,2.1109,2.1109,2.1109,2.1109,2.1109,2.1109,2.1109,2.1136,2.1149,2.1149,2.1149,2.1162,2.1189,2.1162,2.1162,2.1189,2.1189,2.1189,2.1176,2.1149,2.1408,2.1622,2.1622,2.185,2.2031,2.2031,2.2031,2.2064,2.2091,2.205,2.1991,2.2017,2.2031,2.2017,2.1991,2.2258,2.2411,2.2385,2.2686,2.2893,2.2893,2.2893,2.2893,2.2893,2.2893,2.2893,2.2893,2.2893,2.2893,2.2893,2.2893,2.2893,2.2893,2.2893,2.3067,2.338,2.3647,2.3941,2.4262,2.4479,2.4599,2.4599,2.4599,2.4599,2.4599,2.4599,2.4599,2.4599,2.4599,2.4613,2.4679,2.2178,2.2191,2.2245,2.28,2.2893,2.2893,2.2893,2.2893,2.2893,2.2893,2.2893,2.2893,2.2893,2.2893,2.2893,2.2893,2.2525,2.2298,2.2231,2.1964,2.179,2.179,2.179,2.1716,2.1489,2.1229,2.1109,2.1109,2.1109,2.1109,2.1109,2.1109,2.1109,2.1109,2.1109,2.1109,2.1109,2.1109,2.1109,2.1109,2.1109,2.1109,2.1109,2.1109,2.1109,2.1109,2.1109,2.1109,2.1109,2.1109,2.1109,2.1149,2.1422,2.1489,2.1489,2.1489,2.1649,2.175,2.1555,2.1649,2.179,2.179,2.179,2.1737,2.1542,2.1716,2.193,2.193,2.2124,2.2325,2.2325,2.2325,2.2405,2.2666,2.2318,2.2071,2.2298,2.2325,2.2245,2.2004,2.2479,2.2672,2.2445,2.2686,2.2893,2.2893,2.2893,2.2893,2.2893,2.2893,2.2893,2.2893,2.2893,2.2893,2.2893,2.2893,2.2893,2.2893,2.2893,2.3188,2.3674,2.3777,2.4048,2.4506,2.4572,2.4599,2.4599,2.4599,2.4599,2.4599,2.4599,2.4599,2.4599,2.4599,2.4783,2.5064,2.2271,2.2298,2.2338,2.2813,2.2893,2.2893,2.2893,2.2893,2.2893,2.2893,2.2893,2.2893,2.2893,2.2893,2.2893,2.2893,2.2592,2.2385,2.2385,2.2151,2.1991,2.1991,2.1991,2.1877,2.1628,2.1435,2.1256,2.1109,2.1109,2.1109,2.1109,2.1109,2.1109,2.1109,2.1109,2.1109,2.1109,2.1109,2.1109,2.1109,2.1109,2.1109,2.1109,2.1109,2.1109,2.1109,2.1109,2.1109,2.1109,2.1109,2.1203,2.1381,2.1542,2.1676,2.1796,2.1796,2.1903,2.1984,2.1836,2.1903,2.1991,2.1991,2.2084,2.2111,2.1863,2.201,2.2191,2.2191,2.2418,2.2632,2.2632,2.2632,2.2719,2.2867,2.2639,2.2492,2.2605,2.2632,2.2579,2.2452,2.2706,2.284,2.2645,2.28,2.296,2.3073,2.2974,2.296,2.3073,2.2974,2.2893,2.2893,2.2893,2.2974,2.3086,2.2974,2.3041,2.3335,2.3188,2.3327,2.3803,2.3915,2.4222,2.4599,2.4599,2.4599,2.4599,2.4599,2.4599,2.4599,2.4599,2.4599,2.4599,2.4599,2.4879,2.5331,2.2298,2.2345,2.2458,2.284,2.2893,2.2893,2.2893,2.2893,2.2893,2.2893,2.2893,2.2893,2.2893,2.2893,2.2893,2.2893,2.2632,2.2498,2.2498,2.2271,2.2138,2.2138,2.2138,2.2037,2.1743,2.1729,2.1542,2.1109,2.1109,2.1109,2.1109,2.1109,2.1109,2.1109,2.1109,2.1109,2.1109,2.1109,2.1109,2.1109,2.1109,2.1109,2.1109,2.1109,2.1109,2.1109,2.1109,2.1109,2.1122,2.1162,2.1381,2.1609,2.1703,2.1903,2.2058,2.2058,2.2098,2.2124,2.2071,2.2098,2.2138,2.2138,2.2311,2.2432,2.2191,2.2325,2.2512,2.2531,2.2726,2.2893,2.2893,2.2893,2.2893,2.2893,2.2893,2.2893,2.2893,2.2893,2.2893,2.2893,2.2893,2.2893,2.2893,2.2947,2.3033,2.3233,2.306,2.3067,2.3233,2.3041,2.2893,2.2893,2.2947,2.3073,2.3292,2.3161,2.3308,2.3803,2.3567,2.3607,2.3884,2.4102,2.4369,2.4599,2.4599,2.4599,2.4599,2.4599,2.4599,2.4599,2.4599,2.4599,2.4599,2.4599,2.4973,2.5518,2.2298,2.2218,2.2218,2.28,2.2893,2.2893,2.2893,2.2893,2.2893,2.2893,2.2893,2.2893,2.2893,2.2893,2.2893,2.2893,2.2853,2.284,2.284,2.28,2.2773,2.2773,2.2773,2.2639,2.2311,2.2298,2.1911,2.1109,2.1109,2.1109,2.1109,2.1109,2.1109,2.1109,2.1109,2.1109,2.1109,2.1109,2.1109,2.1109,2.1109,2.1109,2.1109,2.1109,2.1109,2.1109,2.1109,2.1109,2.1149,2.1435,2.1555,2.1676,2.2151,2.2325,2.2365,2.2365,2.2539,2.2719,2.2432,2.2552,2.2773,2.2773,2.2813,2.2827,2.2786,2.2813,2.2907,2.3118,2.302,2.2893,2.2893,2.2893,2.2893,2.2893,2.2893,2.2893,2.2893,2.2893,2.2893,2.2893,2.2893,2.2893,2.2893,2.31,2.3166,2.2974,2.314,2.3166,2.2974,2.292,2.2893,2.2893,2.3126,2.3252,2.3292,2.3541,2.3723,2.3803,2.3981,2.4102,2.4142,2.4182,2.4369,2.4599,2.4599,2.4599,2.4599,2.4599,2.4599,2.4599,2.4599,2.4599,2.4599,2.4599,2.4973,2.5518,2.2586,2.2599,2.2586,2.2853,2.2893,2.2893,2.2893,2.2893,2.2893,2.2893,2.2893,2.2893,2.2893,2.2893,2.2893,2.2893,2.2893,2.2893,2.2893,2.2893,2.2893,2.2893,2.2893,2.276,2.2432,2.2385,2.2071,2.1395,2.1395,2.1269,2.1109,2.1109,2.1109,2.1109,2.1109,2.1109,2.1109,2.1109,2.1109,2.1109,2.1109,2.1109,2.1109,2.1109,2.1109,2.1136,2.1296,2.1395,2.1435,2.1729,2.193,2.2084,2.2338,2.2539,2.2672,2.2672,2.2886,2.306,2.2752,2.3041,2.3362,2.3166,2.3126,2.3166,2.3362,2.3134,2.2934,2.3033,2.2987,2.2893,2.2893,2.2893,2.2893,2.2893,2.2893,2.2893,2.2893,2.2893,2.2893,2.2893,2.2893,2.2893,2.2893,2.3027,2.3086,2.3113,2.3086,2.3153,2.3388,2.3081,2.3054,2.3388,2.334,2.3452,2.3808,2.3781,2.3928,2.4249,2.4222,2.4209,2.4209,2.4369,2.4479,2.4599,2.4599,2.4599,2.4599,2.4599,2.4599,2.4613,2.4823,2.489,2.489,2.489,2.5144,2.5518]},{"header":{"parameterUnit":"m.s-1","parameterCategory":1,"la1":30.6,"la2":28.766,"lo1":-90.7593,"lo2":-88.6598,"dy":0.0162,"dx":0.0183,"nx":116,"ny":114,"refTime":"2023-10-31T12:00:00:Z","depth":0,"parameterNumber":3,"parameterNumberName":"V-component_of_WINDS"},"data":[0.0,0.0,0.0,0.0,0.0,0.0,0.0,0.0,0.0,0.0,0.0,0.0,0.0,0.0,0.0,0.0,0.0,0.0,0.0,0.0,0.0,0.0,0.0,0.0,0.0,0.0,0.0,0.0,0.0,0.0,0.0,0.0,0.0,0.0,0.0,0.0,0.0,0.0,0.0,0.0,0.0,0.0,0.0,0.0,0.0,0.0,0.0,0.0,0.0,0.0,0.0,0.0,0.0,0.0,0.0,0.0,0.0,0.0,0.0,0.0,0.0,0.0,0.0,0.0,0.0,0.0,0.0,0.0,0.0,0.0,0.0,0.0,0.0,0.0,0.0,0.0,0.0,0.0,0.0,0.0,0.0,0.0,0.0,0.0,0.0,0.0,0.0,0.0,0.0,0.0,0.0,0.0,0.0,0.0,0.0,0.0,0.0,0.0,0.0,0.0,0.0,0.0,0.0,0.0,0.0,0.0,0.0,0.0,0.0,0.0,0.0,0.0,0.0,0.0,0.0,0.0,0.0,0.0,0.0,0.0,0.0,0.0,0.0,0.0,0.0,0.0,0.0,0.0,0.0,0.0,0.0,0.0,0.0,0.0,0.0,0.0,0.0,0.0,0.0,0.0,0.0,0.0,0.0,0.0,0.0,0.0,0.0,0.0,0.0,0.0,0.0,0.0,0.0,0.0,0.0,0.0,0.0,0.0,0.0,0.0,0.0,0.0,0.0,0.0,0.0,0.0,0.0,0.0,0.0,0.0,0.0,0.0,0.0,0.0,0.0,0.0,0.0,0.0,0.0,0.0,0.0,0.0,0.0,0.0,0.0,0.0,0.0,0.0,0.0,0.0,0.0,0.0,0.0,0.0,0.0,0.0,0.0,0.0,0.0,0.0,0.0,0.0,0.0,0.0,0.0,0.0,0.0,0.0,0.0,0.0,0.0,0.0,0.0,0.0,0.0,0.0,0.0,0.0,0.0,0.0,0.0,0.0,0.0,0.0,0.0,0.0,0.0,0.0,0.0,0.0,0.0,0.0,0.0,0.0,0.0,0.0,0.0,0.0,0.0,0.0,0.0,0.0,0.0,0.0,0.0,0.0,0.0,0.0,0.0,0.0,0.0,0.0,0.0,0.0,0.0,0.0,0.0,0.0,0.0,0.0,0.0,0.0,0.0,0.0,0.0,0.0,0.0,0.0,0.0,0.0,0.0,0.0,0.0,0.0,0.0,0.0,0.0,0.0,0.0,0.0,0.0,0.0,0.0,0.0,0.0,0.0,0.0,0.0,0.0,0.0,0.0,0.0,0.0,0.0,0.0,0.0,0.0,0.0,0.0,0.0,0.0,0.0,0.0,0.0,0.0,0.0,0.0,0.0,0.0,0.0,0.0,0.0,0.0,0.0,0.0,0.0,0.0,0.0,0.0,0.0,0.0,0.0,0.0,0.0,0.0,0.0,0.0,0.0,0.0,0.0,0.0,0.0,0.0,0.0,0.0,0.0,0.0,0.0,0.0,0.0,0.0,0.0,0.0,0.0,0.0,0.0,0.0,0.0,0.0,0.0,0.0,0.0,0.0,0.0,0.0,0.0,0.0,0.0,0.0,0.0,0.0,0.0,0.0,0.0,0.0,0.0,0.0,0.0,0.0,0.0,0.0,0.0,0.0,0.0,0.0,0.0,0.0,0.0,0.0,0.0,0.0,0.0,0.0,0.0,0.0,0.0,0.0,0.0,0.0,0.0,0.0,0.0,0.0,0.0,0.0,0.0,0.0,0.0,0.0,0.0,0.0,0.0,0.0,0.0,0.0,0.0,0.0,0.0,0.0,0.0,0.0,0.0,0.0,0.0,0.0,0.0,0.0,0.0,0.0,0.0,0.0,0.0,0.0,0.0,0.0,0.0,0.0,0.0,0.0,0.0,0.0,0.0,0.0,0.0,0.0,0.0,0.0,0.0,0.0,0.0,0.0,0.0,0.0,0.0,0.0,0.0,0.0,0.0,0.0,0.0,0.0,0.0,0.0,0.0,0.0,0.0,0.0,0.0,0.0,0.0,0.0,0.0,0.0,0.0,0.0,0.0,0.0,0.0,0.0,0.0,0.0,0.0,0.0,0.0,0.0,0.0,0.0,0.0,0.0,0.0,0.0,0.0,0.0,0.0,0.0,0.0,0.0,0.0,0.0,0.0,0.0,0.0,0.0,0.0,0.0,0.0,0.0,0.0,0.0,0.0,0.0,0.0,0.0,0.0,0.0,0.0,0.0,0.0,0.0,0.0,0.0,0.0,0.0,0.0,0.0,0.0,0.0,0.0,0.0,0.0,0.0,0.0,0.0,0.0,0.0,0.0,0.0,0.0,0.0,0.0,0.0,0.0,0.0,0.0,0.0,0.0,0.0,0.0,0.0,0.0,0.0,0.0,0.0,0.0,0.0,0.0,0.0,0.0,0.0,0.0,0.0,0.0,0.0,0.0,0.0,0.0,0.0,0.0,0.0,0.0,0.0,0.0,0.0,0.0,0.0,0.0,0.0,0.0,0.0,0.0,0.0,0.0,0.0,0.0,0.0,0.0,0.0,0.0,0.0,0.0,0.0,0.0,0.0,0.0,0.0,0.0,0.0,0.0,0.0,0.0,0.0,0.0,0.0,0.0,0.0,0.0,0.0,0.0,0.0,0.0,0.0,0.0,0.0,0.0,0.0,0.0,0.0,0.0,0.0,0.0,0.0,0.0,0.0,0.0,0.0,0.0,0.0,0.0,0.0,0.0,0.0,0.0,0.0,0.0,0.0,0.0,0.0,0.0,0.0,0.0,0.0,0.0,0.0,0.0,0.0,0.0,0.0,0.0,0.0,0.0,0.0,0.0,0.0,0.0,0.0,0.0,0.0,0.0,0.0,0.0,0.0,0.0,0.0,0.0,0.0,0.0,0.0,0.0,0.0,0.0,0.0,0.0,0.0,0.0,0.0,0.0,0.0,0.0,0.0,0.0,0.0,0.0,0.0,0.0,0.0,0.0,0.0,0.0,0.0,0.0,0.0,0.0,0.0,0.0,0.0,0.0,0.0,0.0,0.0,0.0,0.0,0.0,0.0,0.0,0.0,0.0,0.0,0.0,0.0,0.0,0.0,0.0,0.0,0.0,0.0,0.0,0.0,0.0,0.0,0.0,0.0,0.0,0.0,0.0,0.0,0.0,0.0,0.0,0.0,0.0,0.0,0.0,0.0,0.0,0.0,0.0,0.0,0.0,0.0,0.0,0.0,0.0,0.0,0.0,0.0,0.0,0.0,0.0,0.0,0.0,0.0,0.0,0.0,0.0,0.0,0.0,0.0,0.0,0.0,0.0,0.0,0.0,0.0,0.0,0.0,0.0,0.0,0.0,0.0,0.0,0.0,0.0,0.0,0.0,0.0,0.0,0.0,0.0,0.0,0.0,0.0,0.0,0.0,0.0,0.0,0.0,0.0,0.0,0.0,0.0,0.0,0.0,0.0,0.0,0.0,0.0,0.0,0.0,0.0,0.0,0.0,0.0,0.0,0.0,0.0,0.0,0.0,0.0,0.0,0.0,0.0,0.0,0.0,0.0,0.0,0.0,0.0,0.0,0.0,0.0,0.0,0.0,0.0,0.0,0.0,0.0,0.0,0.0,0.0,0.0,0.0,0.0,0.0,0.0,0.0,0.0,0.0,0.0,0.0,0.0,0.0,0.0,0.0,0.0,0.0,0.0,0.0,0.0,0.0,0.0,0.0,0.0,0.0,0.0,0.0,0.0,0.0,0.0,0.0,0.0,0.0,0.0,0.0,0.0,0.0,0.0,0.0,0.0,0.0,0.0,0.0,0.0,0.0,0.0,0.0,0.0,0.0,0.0,0.0,0.0,0.0,0.0,0.0,0.0,0.0,0.0,0.0,0.0,0.0,0.0,0.0,0.0,0.0,0.0,0.0,0.0,0.0,0.0,0.0,0.0,0.0,0.0,0.0,0.0,0.0,0.0,0.0,0.0,0.0,0.0,0.0,0.0,0.0,0.0,0.0,0.0,0.0,0.0,0.0,0.0,0.0,0.0,0.0,0.0,0.0,0.0,0.0,0.0,0.0,0.0,0.0,0.0,0.0,0.0,0.0,0.0,0.0,0.0,0.0,0.0,0.0,0.0,0.0,0.0,0.0,0.0,0.0,0.0,0.0,0.0,0.0,0.0,0.0,0.0,0.0,0.0,0.0,0.0,0.0,0.0,0.0,0.0,0.0,0.0,0.0,0.0,0.0,0.0,0.0,0.0,0.0,0.0,0.0,0.0,0.0,0.0,0.0,0.0,0.0,0.0,0.0,0.0,0.0,0.0,0.0,0.0,0.0,0.0,0.0,0.0,0.0,0.0,0.0,0.0,0.0,0.0,0.0,0.0,0.0,0.0,0.0,0.0,0.0,0.0,0.0,0.0,0.0,0.0,0.0,0.0,0.0,0.0,0.0,0.0,0.0,0.0,0.0,0.0,0.0,0.0,0.0,0.0,0.0,0.0,0.0,0.0,0.0,0.0,0.0,0.0,0.0,0.0,0.0,0.0,0.0,0.0,0.0,0.0,0.0,0.0,0.0,0.0,0.0,0.0,0.0,0.0,0.0,0.0,0.0,0.0,0.0,0.0,0.0,0.0,0.0,0.0,0.0,0.0,0.0,0.0,0.0,0.0,0.0,0.0,0.0,0.0,0.0,0.0,0.0,0.0,0.0,0.0,0.0,0.0,0.0,0.0,0.0,0.0,0.0,0.0,0.0,0.0,0.0,0.0,0.0,0.0,0.0,0.0,0.0,0.0,0.0,0.0,0.0,0.0,0.0,0.0,0.0,0.0,0.0,0.0,0.0,0.0,0.0,0.0,0.0,0.0,0.0,0.0,0.0,0.0,0.0,0.0,0.0,0.0,0.0,0.0,0.0,0.0,0.0,0.0,0.0,0.0,0.0,0.0,0.0,0.0,0.0,0.0,0.0,0.0,0.0,0.0,0.0,0.0,0.0,0.0,0.0,0.0,0.0,0.0,0.0,0.0,0.0,0.0,0.0,0.0,0.0,0.0,0.0,0.0,0.0,0.0,0.0,0.0,0.0,0.0,0.0,0.0,0.0,0.0,0.0,0.0,0.0,0.0,0.0,0.0,0.0,0.0,0.0,0.0,0.0,0.0,0.0,0.0,0.0,0.0,0.0,0.0,0.0,0.0,0.0,0.0,0.0,0.0,0.0,0.0,0.0,0.0,0.0,0.0,0.0,0.0,0.0,0.0,0.0,0.0,0.0,0.0,0.0,0.0,0.0,0.0,0.0,0.0,0.0,0.0,0.0,0.0,0.0,0.0,0.0,0.0,0.0,0.0,0.0,0.0,0.0,0.0,0.0,0.0,0.0,0.0,0.0,0.0,0.0,0.0,0.0,0.0,0.0,0.0,0.0,0.0,0.0,0.0,0.0,0.0,0.0,0.0,0.0,0.0,0.0,0.0,0.0,0.0,0.0,0.0,0.0,0.0,0.0,0.0,0.0,0.0,0.0,0.0,0.0,0.0,0.0,0.0,0.0,0.0,0.0,0.0,0.0,0.0,0.0,0.0,0.0,0.0,0.0,0.0,0.0,0.0,0.0,0.0,0.0,0.0,0.0,0.0,0.0,0.0,0.0,0.0,0.0,0.0,0.0,0.0,0.0,0.0,0.0,0.0,0.0,0.0,0.0,0.0,0.0,0.0,0.0,0.0,0.0,0.0,0.0,0.0,0.0,0.0,0.0,0.0,0.0,0.0,0.0,0.0,0.0,0.0,0.0,0.0,0.0,0.0,0.0,0.0,0.0,0.0,0.0,0.0,0.0,0.0,0.0,0.0,0.0,0.0,0.0,0.0,0.0,0.0,0.0,0.0,0.0,0.0,0.0,0.0,0.0,0.0,0.0,0.0,0.0,0.0,0.0,0.0,0.0,0.0,0.0,0.0,0.0,0.0,0.0,0.0,0.0,0.0,0.0,0.0,0.0,0.0,0.0,0.0,0.0,0.0,0.0,0.0,0.0,0.0,0.0,0.0,0.0,0.0,0.0,0.0,0.0,0.0,0.0,0.0,0.0,0.0,0.0,0.0,0.0,0.0,0.0,0.0,0.0,0.0,0.0,0.0,4.6454,0.0,0.0,0.0,0.0,0.0,0.0,0.0,0.0,0.0,0.0,0.0,0.0,0.0,0.0,0.0,0.0,0.0,0.0,0.0,0.0,0.0,0.0,0.0,0.0,0.0,0.0,0.0,0.0,0.0,0.0,0.0,0.0,0.0,0.0,0.0,0.0,0.0,0.0,0.0,3.1796,3.1929,3.2796,3.2745,3.2506,3.2061,0.0,0.0,0.0,0.0,0.0,0.0,0.0,0.0,0.0,0.0,0.0,0.0,0.0,0.0,0.0,0.0,0.0,0.0,0.0,0.0,0.0,0.0,0.0,0.0,0.0,0.0,0.0,0.0,0.0,0.0,0.0,0.0,0.0,0.0,0.0,0.0,0.0,0.0,0.0,0.0,0.0,0.0,0.0,0.0,0.0,0.0,0.0,0.0,0.0,0.0,0.0,0.0,0.0,0.0,0.0,0.0,0.0,0.0,0.0,0.0,0.0,0.0,0.0,0.0,0.0,0.0,0.0,0.0,0.0,0.0,0.0,4.7927,0.0,0.0,0.0,0.0,0.0,0.0,0.0,0.0,0.0,0.0,0.0,0.0,0.0,0.0,0.0,0.0,0.0,0.0,0.0,0.0,0.0,0.0,0.0,0.0,0.0,0.0,0.0,0.0,0.0,0.0,0.0,0.0,0.0,0.0,0.0,3.2161,3.2928,3.4318,3.3569,3.3558,3.4295,3.5989,3.6021,3.4685,3.4087,0.0,0.0,0.0,0.0,0.0,0.0,0.0,0.0,0.0,0.0,0.0,0.0,0.0,0.0,0.0,0.0,0.0,0.0,0.0,0.0,0.0,0.0,0.0,0.0,0.0,0.0,0.0,0.0,0.0,0.0,0.0,0.0,0.0,0.0,0.0,0.0,0.0,0.0,0.0,0.0,0.0,0.0,0.0,0.0,0.0,0.0,0.0,0.0,0.0,0.0,0.0,0.0,0.0,0.0,0.0,0.0,0.0,0.0,0.0,0.0,0.0,0.0,0.0,0.0,5.4632,5.5124,5.4721,5.5004,5.569,5.3043,5.2255,5.2648,0.0,0.0,0.0,0.0,0.0,0.0,0.0,0.0,0.0,0.0,0.0,0.0,0.0,0.0,0.0,0.0,0.0,0.0,0.0,0.0,0.0,0.0,3.3012,3.4401,3.6641,3.6237,3.6127,0.0,0.0,0.0,0.0,0.0,0.0,3.4527,3.5275,3.5883,3.6316,3.7879,3.8346,3.7797,3.9464,4.0129,3.9769,3.6758,3.5831,3.6406,0.0,0.0,0.0,0.0,0.0,0.0,0.0,0.0,0.0,0.0,0.0,0.0,0.0,0.0,0.0,0.0,0.0,0.0,0.0,0.0,0.0,0.0,0.0,0.0,0.0,0.0,0.0,0.0,0.0,0.0,0.0,0.0,0.0,0.0,0.0,0.0,0.0,0.0,0.0,0.0,0.0,4.421,4.5262,0.0,0.0,0.0,0.0,0.0,0.0,0.0,0.0,0.0,0.0,0.0,0.0,0.0,0.0,5.6275,5.742,5.7721,5.7149,5.8936,5.9426,5.8806,5.8732,5.9173,5.9941,5.8779,0.0,5.4469,5.4076,0.0,0.0,0.0,0.0,0.0,0.0,0.0,0.0,0.0,0.0,0.0,0.0,0.0,0.0,0.0,0.0,0.0,0.0,0.0,0.0,0.0,3.459,3.6281,3.8264,3.8727,3.894,3.9117,0.0,0.0,0.0,0.0,3.6787,3.6413,3.6787,3.7417,3.8338,4.0814,4.0949,3.8959,4.0635,4.1132,4.064,3.9581,3.9169,3.9223,3.8077,0.0,0.0,0.0,0.0,0.0,0.0,0.0,0.0,0.0,0.0,0.0,0.0,0.0,0.0,0.0,0.0,0.0,0.0,0.0,0.0,0.0,0.0,0.0,0.0,0.0,0.0,0.0,0.0,0.0,0.0,0.0,0.0,0.0,0.0,0.0,0.0,0.0,0.0,0.0,4.49,4.7079,4.6922,4.7624,4.7499,0.0,0.0,0.0,0.0,0.0,0.0,0.0,0.0,0.0,5.6416,5.7313,5.8442,5.9915,6.0884,6.0987,6.0188,6.1118,6.1056,6.0242,6.0242,6.0441,6.0787,6.0396,5.9462,5.8049,5.6765,5.535,5.3928,0.0,0.0,0.0,0.0,0.0,5.0283,0.0,0.0,0.0,0.0,0.0,0.0,0.0,0.0,0.0,0.0,0.0,0.0,3.4431,3.6174,3.8028,4.0069,4.0834,4.1054,4.0744,4.0141,0.0,0.0,3.8615,3.8403,3.8403,3.8582,3.9228,4.0354,4.2763,4.2555,3.9973,4.1662,4.197,4.1204,4.2047,4.213,4.1527,4.1047,3.9212,3.6571,0.0,0.0,0.0,0.0,0.0,0.0,0.0,0.0,0.0,0.0,0.0,0.0,0.0,0.0,0.0,0.0,0.0,0.0,0.0,0.0,0.0,0.0,0.0,0.0,0.0,0.0,0.0,0.0,0.0,0.0,0.0,0.0,0.0,0.0,0.0,0.0,0.0,4.7694,4.9513,4.8445,5.0361,5.0844,0.0,0.0,0.0,0.0,0.0,0.0,5.5594,5.6221,5.7718,6.0268,6.12,6.2195,6.3364,6.3551,6.332,6.2749,6.2287,6.1816,6.1268,6.1168,6.1047,6.0923,6.1053,6.1018,6.0648,5.8654,5.7527,5.681,5.501,5.3944,0.0,5.4631,5.4,5.2871,0.0,0.0,0.0,0.0,0.0,0.0,0.0,0.0,0.0,0.0,0.0,3.417,3.6656,3.7757,3.9624,4.2825,4.2441,4.1895,4.1558,4.15,4.0985,3.9887,4.0516,4.092,4.092,4.1523,4.2051,4.2456,4.3693,4.338,4.1696,4.3393,4.3739,4.3008,4.3816,4.3853,4.3284,4.1787,4.0756,3.9882,3.7887,0.0,0.0,0.0,0.0,0.0,0.0,0.0,0.0,0.0,0.0,0.0,0.0,0.0,0.0,0.0,0.0,0.0,0.0,0.0,0.0,0.0,0.0,0.0,0.0,0.0,0.0,0.0,0.0,0.0,0.0,0.0,0.0,0.0,0.0,0.0,0.0,0.0,0.0,5.0177,5.3569,0.0,0.0,0.0,0.0,5.4322,5.5434,5.6864,5.8589,6.0604,6.2526,6.4257,6.5148,6.6006,6.6827,6.532,6.4512,6.4474,6.2864,6.2228,6.2483,6.2171,6.1755,6.1293,6.1793,6.1556,6.0742,5.9796,5.9367,5.9217,5.7884,5.7335,5.7253,5.6911,5.6415,5.5998,0.0,0.0,0.0,0.0,0.0,0.0,0.0,0.0,0.0,3.2987,3.4631,3.644,3.8234,4.0072,4.1862,4.3553,4.41,4.4227,4.3879,4.3133,4.2653,4.2543,4.1625,4.1425,4.2194,4.2907,4.3553,4.4211,4.482,4.4551,4.3431,4.459,4.4667,4.3893,4.4744,4.5024,4.4835,4.4245,4.3176,4.1775,4.105,3.9044,0.0,0.0,0.0,0.0,0.0,0.0,0.0,0.0,0.0,0.0,0.0,0.0,0.0,0.0,0.0,0.0,0.0,0.0,0.0,0.0,0.0,0.0,0.0,0.0,0.0,0.0,0.0,0.0,0.0,0.0,0.0,0.0,0.0,0.0,0.0,0.0,0.0,5.3893,5.7263,0.0,0.0,5.6476,5.7972,5.8488,5.9695,6.1109,6.2803,6.3609,6.4168,6.4465,6.507,6.5778,6.662,6.551,6.4936,6.4891,6.3435,6.2517,6.2091,6.1956,6.1779,6.1628,6.1842,6.1421,6.0699,6.0873,6.0547,5.9807,5.9064,5.827,5.757,5.795,5.7441,5.672,0.0,0.0,0.0,0.0,0.0,0.0,0.0,0.0,0.0,3.4407,3.6328,3.8244,3.9888,4.1447,4.2967,4.4336,4.4895,4.4863,4.4217,4.3911,4.3567,4.3148,4.2442,4.2559,4.3536,4.4066,4.4612,4.5263,4.5475,4.5167,4.4316,4.5205,4.5128,4.4355,4.5205,4.5594,4.5633,4.5898,4.5134,4.3656,4.3194,4.1704,3.9577,0.0,0.0,0.0,0.0,0.0,0.0,0.0,0.0,0.0,0.0,0.0,0.0,0.0,0.0,0.0,0.0,0.0,0.0,0.0,0.0,0.0,0.0,0.0,0.0,0.0,0.0,0.0,0.0,0.0,0.0,0.0,0.0,0.0,0.0,0.0,5.7188,5.6387,5.9912,6.1157,5.7997,5.973,6.1436,6.2246,6.309,6.4078,6.5213,6.5783,6.5691,6.4851,6.5626,6.6239,6.6514,6.5973,6.5555,6.5251,6.4348,6.3511,6.281,6.2683,6.2551,6.235,6.2278,6.1759,6.1042,6.1297,6.0876,5.9984,5.968,5.8905,5.7948,5.8322,5.7928,5.7319,0.0,0.0,0.0,0.0,0.0,0.0,0.0,3.4156,3.5448,3.5799,3.7559,3.9532,4.1543,4.1839,4.2893,4.5359,4.4782,4.3765,4.2574,4.3748,4.3595,4.1526,4.3073,4.4339,4.5039,4.5099,4.5237,4.5573,4.5573,4.5145,4.4333,4.5184,4.5111,4.4346,4.5197,4.5624,4.5706,4.6547,4.6432,4.5607,4.4291,4.3596,4.3165,0.0,0.0,0.0,0.0,0.0,0.0,0.0,0.0,0.0,0.0,0.0,0.0,0.0,0.0,0.0,0.0,0.0,0.0,0.0,0.0,0.0,0.0,0.0,0.0,0.0,0.0,0.0,0.0,0.0,0.0,0.0,0.0,0.0,5.4084,5.7187,5.9035,5.7702,6.1566,6.3351,6.083,6.2871,6.4688,6.5498,6.5546,6.5593,6.5632,6.7113,6.7236,6.5624,6.7122,6.7613,6.6831,6.6801,6.6414,6.5632,6.5546,6.5264,6.4789,6.4479,6.4043,6.3554,6.3233,6.2626,6.177,6.0997,6.0378,5.9918,5.9864,5.939,5.8621,5.8175,5.7997,5.7997,0.0,0.0,0.0,0.0,0.0,0.0,0.0,3.4525,3.5708,3.6865,3.9066,4.1108,4.268,4.3326,4.4162,4.5475,4.4282,4.3707,4.4337,4.3374,4.2575,4.2059,4.3175,4.3945,4.4304,4.458,4.4794,4.4884,4.4884,4.4764,4.4537,4.477,4.4885,4.4888,4.5118,4.5726,4.6547,4.6812,4.7471,4.8274,4.7266,4.6329,4.5495,0.0,0.0,0.0,0.0,0.0,0.0,0.0,0.0,0.0,0.0,0.0,0.0,0.0,0.0,0.0,0.0,0.0,0.0,0.0,0.0,0.0,0.0,0.0,0.0,0.0,0.0,0.0,0.0,0.0,0.0,0.0,0.0,5.7809,5.8161,6.0397,6.2325,6.314,6.5976,6.6931,6.4673,6.6194,6.7188,6.6825,6.6788,6.6799,6.6847,6.727,6.6843,6.542,6.6711,6.7348,6.7157,6.7113,6.7001,6.6799,6.5821,6.5275,6.5164,6.5066,6.493,6.4783,6.4117,6.3338,6.2512,6.229,6.1422,6.0186,5.9367,5.8688,5.8198,5.8065,5.7997,5.7997,0.0,0.0,0.0,0.0,0.0,0.0,0.0,3.5114,3.6316,3.7953,4.0159,4.1937,4.2841,4.3474,4.4008,4.4513,4.3662,4.3185,4.3335,4.2303,4.2083,4.2979,4.3521,4.3945,4.424,4.4462,4.4612,4.4612,4.4612,4.4612,4.4612,4.4612,4.4714,4.489,4.489,4.5483,4.6473,4.6817,4.7701,4.8884,4.8726,4.86,4.8436,4.8065,4.7356,4.6447,4.5584,4.5426,4.5306,4.3757,0.0,0.0,0.0,0.0,0.0,0.0,0.0,0.0,0.0,0.0,0.0,0.0,0.0,0.0,0.0,0.0,0.0,0.0,0.0,0.0,0.0,0.0,0.0,0.0,5.8968,6.1189,6.3349,6.401,6.4903,6.6691,6.822,6.8736,6.7815,6.8605,6.8839,6.8025,6.7988,6.7691,6.7,6.7296,6.6962,6.5828,6.717,6.7926,6.7988,6.8259,6.8259,6.7938,6.7174,6.6623,6.6292,6.5962,6.5802,0.0,6.4934,6.431,6.382,6.349,6.2585,0.0,0.0,0.0,0.0,0.0,5.829,5.7997,0.0,0.0,0.0,0.0,0.0,0.0,0.0,3.5731,3.6969,3.8948,4.0846,4.2137,4.2498,4.2819,4.297,4.2975,4.2885,4.2317,4.1143,4.1297,4.2197,4.3869,4.4084,4.4334,4.4592,4.4712,4.4749,4.4749,4.4749,4.4749,4.4749,4.4636,4.4694,4.4803,4.4697,4.52,4.6112,4.6924,4.7754,4.8577,4.9527,5.0465,5.1135,5.043,5.048,5.0815,5.0005,4.9384,4.8792,4.7713,0.0,0.0,0.0,0.0,0.0,0.0,0.0,0.0,0.0,0.0,0.0,0.0,0.0,0.0,0.0,0.0,0.0,0.0,0.0,0.0,0.0,0.0,0.0,0.0,6.2658,6.4664,6.8371,6.7591,6.7198,6.8843,6.9105,6.9412,7.0036,7.0183,6.9889,6.9119,6.9032,6.8421,6.699,0.0,0.0,0.0,0.0,6.9119,6.9032,6.9816,6.9816,6.9032,6.9032,6.8641,6.7958,6.7136,6.6769,6.6733,6.5802,6.5435,6.5362,6.4567,6.3723,6.2866,6.1851,6.1043,6.0297,5.96,5.8829,0.0,0.0,0.0,0.0,0.0,0.0,0.0,0.0,3.5586,3.6947,3.9406,4.0733,4.1798,4.2646,4.2479,4.2299,4.2289,4.1513,4.1336,4.2136,4.3025,4.3524,4.358,4.4691,4.5085,4.4702,4.5338,4.5634,4.5634,4.5634,4.5634,4.5634,4.4969,4.5181,4.6013,4.5364,4.6075,4.7785,4.8593,4.9422,5.0342,5.1888,5.182,5.0806,5.0655,5.102,5.1594,5.0787,5.1254,5.1911,4.9701,4.9782,5.0499,4.8668,0.0,0.0,0.0,0.0,0.0,0.0,0.0,0.0,0.0,0.0,0.0,0.0,0.0,0.0,0.0,0.0,0.0,0.0,0.0,0.0,6.2095,6.4934,6.7247,6.8715,6.9692,7.0161,6.9903,7.0426,7.0646,7.0146,7.0697,7.072,6.9926,6.9853,6.9743,6.9412,6.9559,0.0,6.9412,7.033,7.0499,6.9853,7.066,7.0646,6.9853,0.0,0.0,6.9596,6.8788,6.8458,6.8334,6.6916,6.6256,6.6219,6.5411,6.4604,6.3613,6.1484,6.0529,6.0382,6.0236,5.9673,5.8976,0.0,0.0,0.0,0.0,0.0,0.0,0.0,3.5663,3.6776,3.9284,4.017,4.0807,4.1393,4.0985,4.0666,4.0709,4.0724,4.1431,4.3037,4.3832,4.4391,4.47,4.5389,4.5599,4.5324,4.57,4.6104,4.6498,4.6104,4.6324,4.7058,4.5883,4.6037,4.7311,4.6498,4.6932,4.8294,4.9142,4.9746,5.0248,5.1505,5.1729,5.1438,5.2266,5.2846,5.314,5.2755,5.3132,5.3593,5.1873,5.1896,5.2416,5.1343,5.0613,4.9944,0.0,0.0,0.0,0.0,0.0,0.0,0.0,0.0,0.0,0.0,0.0,0.0,0.0,0.0,5.709,0.0,0.0,6.3619,6.6559,6.8788,7.0513,7.1711,7.2591,7.2481,7.0881,7.105,7.1454,7.1872,7.2275,7.2349,7.1908,7.1908,7.1725,7.1321,7.1284,7.1505,7.1872,7.1908,7.2092,7.2496,7.2078,7.1908,7.1872,7.1101,7.0697,7.0646,6.9435,6.8885,6.8825,6.7614,6.7113,6.7026,6.6219,6.5668,6.5118,6.3503,6.2108,6.1006,6.1006,6.0493,5.9747,0.0,0.0,0.0,0.0,0.0,0.0,0.0,0.0,3.66,3.8996,3.9561,3.9787,3.991,3.9516,3.9297,3.9452,4.0494,4.1977,4.3976,4.472,4.5488,4.6315,4.6691,4.6764,4.6627,4.6764,4.7168,4.781,4.7168,4.7535,4.8737,4.7315,4.7388,4.8737,4.7929,4.8003,4.8857,4.9711,5.0088,5.0151,5.1096,5.1903,5.2594,5.3979,5.4371,5.4267,5.4267,5.4154,5.3908,5.3281,5.308,5.308,5.319,5.3029,5.2438,5.086,5.1116,0.0,0.0,0.0,0.0,0.0,0.0,0.0,0.0,0.0,5.5657,5.7957,5.9676,6.1381,6.3356,6.5586,6.8128,7.1242,7.2445,7.3413,7.472,7.5014,7.4353,7.2261,7.2004,7.2518,7.3817,7.3927,7.3927,7.3927,7.3927,7.3634,7.301,7.2973,7.3266,7.3891,7.3303,7.3582,7.4903,7.345,7.3046,7.3685,7.2239,7.1527,7.149,7.0022,6.9376,6.9325,6.8531,6.8068,6.7884,6.721,6.6769,6.6439,6.5778,6.4237,6.2291,6.2144,6.1557,6.0737,0.0,0.0,0.0,0.0,0.0,0.0,0.0,0.0,0.0,3.8979,3.9236,3.9236,3.9372,3.9314,3.9517,4.0058,4.1026,4.2622,4.4985,4.6686,4.7709,4.8039,4.9481,4.9921,4.9206,4.9884,5.0288,5.0398,5.0288,5.0325,5.0508,4.9601,4.9674,5.0462,4.9627,4.9701,5.0582,5.1389,5.173,5.1877,5.3371,5.4032,5.4153,5.4354,5.3954,5.3365,5.3365,5.2897,5.2304,5.2503,5.2629,5.2805,5.3488,5.3684,5.3506,5.2705,0.0,5.1464,5.0743,5.1286,5.2701,5.5275,5.5313,5.6321,0.0,0.0,6.2212,6.4833,6.6656,6.7867,6.8124,6.9591,7.1315,7.3156,7.4111,7.4683,7.4867,7.5542,7.5616,7.461,7.45,7.4573,7.4757,7.4757,7.4757,7.4757,7.4757,7.472,7.4647,7.461,7.4683,7.4757,7.4683,7.472,7.4903,7.4001,7.3597,7.367,7.2789,7.2386,7.2349,7.1454,7.1013,7.0977,7.0183,6.9412,6.8752,6.8678,6.7797,6.6476,6.6402,6.5778,6.4811,6.409,6.3282,6.2426,0.0,0.0,0.0,0.0,0.0,0.0,0.0,0.0,0.0,0.0,3.7976,3.8003,3.8169,3.8187,3.8322,3.867,4.0457,4.2859,4.5846,4.7917,4.9669,5.1075,5.182,5.204,5.1683,5.2003,5.2407,5.2894,5.2407,5.2674,5.3566,5.2307,5.238,5.3555,5.2711,5.2564,5.2931,5.3749,5.3823,5.3482,5.463,5.5108,5.506,5.4583,5.3922,5.3098,5.2222,5.1868,0.0,5.1109,5.14,5.217,5.3135,5.3353,5.3151,5.2761,5.3051,0.0,5.4556,5.5305,0.0,0.0,5.9481,6.1274,6.5115,6.5383,6.5673,6.8688,7.022,7.1138,7.1615,7.301,7.4331,0.0,7.5747,7.6298,7.6298,7.6592,7.6665,7.6335,7.6298,7.6114,7.5652,7.5616,7.5784,7.6261,7.6298,7.6298,7.6298,7.6298,7.6298,7.6298,7.5821,7.5821,7.6298,7.5014,7.4404,7.4404,7.4059,7.3413,7.2496,7.2165,7.1505,7.0587,7.0257,6.9926,6.9596,6.9596,6.9192,6.8605,6.8605,6.8091,6.7136,6.4897,6.387,6.3356,0.0,0.0,0.0,0.0,0.0,0.0,0.0,0.0,0.0,0.0,0.0,3.7013,3.7177,3.7196,3.7401,3.7893,3.9946,4.2782,4.6509,4.8699,5.0845,5.3091,5.343,5.3462,5.3244,5.3244,5.3627,5.4439,5.3843,5.4272,5.5585,5.4399,5.4473,5.5585,5.4987,5.473,5.4766,5.5365,5.5254,5.4803,5.5622,5.5941,5.5831,5.5023,5.4129,5.3029,5.1305,5.0591,5.0297,4.9275,4.9478,5.042,5.1763,5.2204,5.2279,5.2602,5.3712,5.5111,5.6661,0.0,0.0,6.0896,6.3379,6.5852,6.7467,6.8164,6.9192,7.1784,7.2922,7.367,7.4258,7.5506,7.6423,7.6423,7.6922,7.7289,7.7289,7.7289,7.7289,7.7289,7.7289,7.7069,7.6497,7.6423,7.6665,7.7252,7.7289,7.7289,7.7289,7.7289,7.7289,7.7289,7.6738,7.6702,7.7289,7.5931,7.5234,7.5234,7.5014,7.428,7.3156,7.3156,7.2532,7.1394,7.1174,7.0954,7.0734,7.0513,7.0293,7.0073,6.9853,6.9412,6.8568,6.5778,6.4763,6.4567,0.0,0.0,0.0,0.0,0.0,0.0,0.0,0.0,0.0,0.0,0.0,0.0,0.0,3.6615,3.7227,3.8746,3.982,4.2363,4.6884,4.8901,5.0893,5.3099,5.4001,5.4097,5.3303,5.3289,5.3673,5.4518,5.4482,5.4857,5.5585,5.5548,5.5548,5.5585,5.5585,5.5548,5.5585,5.5585,5.5585,5.5622,5.6455,5.6737,5.6664,5.5879,5.4638,5.3085,5.0758,4.8949,4.7525,4.6902,4.6683,4.7003,4.9039,5.0173,0.0,5.2774,5.3829,5.4608,5.5499,0.0,6.0549,6.2986,6.6206,6.9192,7.0793,7.2349,7.3707,7.461,7.5432,7.5983,7.6019,7.6702,7.7252,7.7252,7.7289,7.7289,7.7289,7.7289,7.7289,7.7289,7.7289,7.7289,0.0,7.7252,7.7289,7.7289,7.7289,7.7289,7.7289,7.7289,7.7289,7.7289,7.7289,7.7289,7.7289,7.6497,7.6056,7.6056,7.527,7.4867,7.483,7.483,7.4793,7.472,7.3927,7.3156,7.2386,7.16,7.0807,7.0,6.9229,6.8921,6.8715,6.7026,6.6439,6.6292,0.0,0.0,0.0,0.0,0.0,0.0,0.0,0.0,0.0,0.0,0.0,0.0,0.0,0.0,0.0,0.0,3.9974,4.1995,4.6248,4.8284,5.0529,5.3262,5.4626,5.5415,5.5681,5.5667,5.6064,5.6822,5.6822,5.7222,5.7978,5.7978,5.8263,5.8767,5.8767,5.8767,5.8767,5.8767,5.8474,5.8022,5.8279,5.8058,5.74,5.5628,5.3988,5.2101,0.0,4.6873,4.64,4.4916,4.5232,4.6483,4.7659,4.8544,4.9566,5.1467,5.3557,5.573,5.7965,6.0848,6.3875,6.6499,6.883,7.105,7.3215,7.4096,7.4867,7.6225,7.54,7.4449,7.4449,7.4667,7.4849,7.4849,7.6246,7.7289,7.7289,7.7289,7.7289,7.7289,7.7289,0.0,0.0,0.0,0.0,7.8112,7.7619,7.7546,7.8148,7.7619,7.7289,7.7289,7.7289,7.7289,7.7289,7.7032,7.6628,7.6093,7.527,7.516,7.5689,7.5124,7.4903,7.4867,7.461,7.4037,7.3266,7.301,7.2422,7.1688,7.1394,7.094,7.0426,6.9876,6.9339,6.8531,0.0,0.0,0.0,0.0,0.0,0.0,0.0,0.0,0.0,0.0,0.0,0.0,0.0,0.0,0.0,0.0,0.0,4.0955,4.462,4.6295,4.8292,5.1017,5.2096,5.2988,5.3743,5.3604,5.4166,5.5439,5.5809,5.6524,5.7563,5.7823,5.8392,5.9164,5.9164,5.9286,5.9538,5.9538,5.9098,5.8292,5.7775,5.7082,5.6123,5.3833,5.2014,0.0,4.68,4.5423,4.4921,4.3156,4.3695,4.5372,4.6494,4.8413,5.0487,5.1531,5.4169,5.7467,6.0486,6.3354,6.6216,6.9408,7.138,7.3068,7.4903,7.5564,7.5968,7.6702,7.492,7.3119,7.283,7.2541,7.236,7.236,7.441,7.6114,7.6408,7.6702,7.6995,7.7289,7.7289,0.0,0.0,0.0,0.0,7.8112,7.7619,7.7546,7.8112,7.7582,7.7289,7.7289,7.7289,7.7289,7.7289,7.7289,7.7032,7.6518,7.6004,7.6041,7.6533,7.6004,7.5747,7.5747,7.5454,7.5028,7.4551,7.4258,7.3634,7.2899,7.2606,7.2004,7.127,7.0977,7.055,6.9816,0.0,0.0,0.0,0.0,0.0,0.0,0.0,0.0,0.0,0.0,0.0,0.0,0.0,0.0,0.0,0.0,0.0,0.0,4.2202,4.3171,4.4558,4.6629,4.6968,4.742,4.8114,4.7769,4.8631,5.0768,5.181,5.305,5.4457,5.5172,5.5938,5.6704,5.6717,5.712,5.778,5.778,5.7329,5.6477,5.5075,5.4026,5.3051,5.0897,4.9209,4.7729,4.6218,4.4751,4.3288,4.1852,4.238,4.3948,4.5852,4.9758,5.3544,5.2975,5.5779,5.9747,6.2949,6.5254,6.7687,7.1541,7.3656,7.4977,7.5799,7.6555,7.6885,7.6093,7.3973,7.1982,0.0,0.0,7.005,7.0082,7.2237,7.4184,7.4977,7.5726,7.646,0.0,0.0,0.0,0.0,0.0,0.0,7.7436,0.0,7.7399,7.7472,7.7436,7.7399,7.7362,7.7362,7.7362,7.7289,7.7289,7.7289,7.7289,7.7289,7.7289,7.7289,7.7289,7.7289,7.7252,7.6497,7.613,7.6056,7.527,7.4478,7.367,7.2899,7.2092,7.1344,7.0513,7.022,7.022,0.0,0.0,0.0,0.0,0.0,0.0,0.0,0.0,0.0,0.0,0.0,0.0,0.0,0.0,0.0,0.0,0.0,0.0,4.0855,4.2167,4.3385,4.4474,4.6143,4.7354,4.8081,4.8545,4.9325,5.0441,5.0691,5.1344,5.2313,5.2716,5.3377,5.4158,5.4394,5.4613,5.4794,5.4794,5.4338,5.3546,5.3179,5.2531,5.1693,5.0535,4.9547,4.8529,4.7041,4.5909,4.4976,4.4006,4.5605,4.8212,4.9497,5.205,5.4725,5.5611,5.9004,6.2939,6.5171,6.789,7.0463,7.2092,7.2826,7.334,7.4111,7.4478,7.4404,7.3597,7.094,6.8538,0.0,0.0,0.0,6.9904,7.3592,0.0,7.7524,7.7252,0.0,7.8185,0.0,7.8369,7.8589,7.8919,0.0,0.0,7.8626,7.8809,7.9968,7.9507,7.8883,7.8295,7.8259,7.7949,7.7326,7.7289,7.7289,7.7289,7.7289,7.7289,7.7289,7.7289,7.7289,7.7289,7.7069,7.6628,7.6093,7.5873,7.5322,7.4515,7.3707,7.3266,7.2973,7.2165,7.1908,7.1908,0.0,0.0,0.0,0.0,0.0,0.0,0.0,0.0,0.0,0.0,0.0,0.0,0.0,0.0,0.0,0.0,0.0,0.0,0.0,4.0282,4.1099,4.1804,4.2754,4.3723,4.4743,4.5329,4.5953,4.6712,4.7486,4.812,4.8566,4.8871,4.9609,5.0696,5.0661,5.1048,5.1688,5.2032,5.1508,0.0,0.0,5.0,4.9205,4.8467,4.8123,4.7929,4.7112,4.7586,4.8723,4.9315,5.0796,5.2534,5.3449,5.564,5.8081,5.9292,6.2156,6.5401,6.7513,6.9926,7.2114,7.3252,7.356,7.3414,7.2817,7.2428,7.1535,6.9328,6.6777,0.0,6.3964,6.5633,0.0,0.0,0.0,0.0,7.6864,7.6848,7.7231,0.0,7.8589,0.0,7.958,7.9727,8.0257,0.0,7.9984,7.9507,8.0424,8.0036,7.9596,7.9155,7.8772,7.8185,7.7326,7.7693,7.7693,7.7289,7.7289,7.7289,7.7289,7.7289,7.7289,7.7289,0.0,7.7032,7.6628,7.6628,7.6151,7.538,7.4918,7.4551,7.4184,7.3744,7.356,7.3523,0.0,0.0,0.0,0.0,0.0,0.0,0.0,0.0,0.0,0.0,0.0,0.0,0.0,0.0,0.0,0.0,0.0,0.0,0.0,0.0,3.8681,3.9329,3.8843,3.9135,4.0333,4.0728,4.1249,4.1901,4.3449,4.4197,4.4118,4.4403,4.5266,4.6534,4.615,4.6803,4.8194,4.8829,4.8298,4.7095,4.7235,4.6874,4.6228,0.0,4.6244,4.6834,4.7139,4.9386,5.2679,5.5439,5.6523,5.6828,5.7674,5.9917,6.2424,6.3353,6.5209,6.7467,6.9669,7.1358,7.2863,7.4243,7.45,7.3801,7.1469,7.0299,6.8585,6.4559,0.0,6.1318,6.0615,6.2975,6.5237,6.5771,0.0,7.4111,7.538,7.6056,7.7047,7.8736,7.8919,7.947,8.0865,8.0571,8.1158,8.3234,8.1452,8.0293,8.0293,8.0183,8.0073,7.9963,7.9176,7.8369,7.7472,7.8222,7.8185,7.7289,7.7289,7.7289,7.7289,7.7289,7.7289,7.7289,0.0,0.0,7.7289,7.7289,7.6885,7.624,7.613,7.5689,7.505,7.494,7.4903,7.4793,0.0,0.0,0.0,0.0,0.0,0.0,0.0,0.0,0.0,0.0,3.5128,3.614,0.0,0.0,0.0,0.0,0.0,0.0,0.0,0.0,0.0,3.857,3.907,3.9426,3.9653,4.0248,4.0634,4.0779,4.1099,4.1046,4.068,4.1007,4.1296,4.1547,4.169,4.2266,4.3179,4.3301,4.332,4.3321,4.3912,4.4082,4.4157,4.593,0.0,0.0,4.8865,5.0369,5.2255,5.7211,5.966,6.0884,6.2374,6.416,6.5802,6.6626,6.8096,6.9706,7.0793,7.1784,7.2569,7.2863,7.2408,7.1296,6.8971,6.7755,0.0,0.0,6.0947,6.0679,6.054,6.253,6.5323,6.8704,7.1763,7.4918,7.8442,7.8479,7.8772,0.0,0.0,0.0,0.0,0.0,0.0,0.0,0.0,0.0,8.2757,8.215,8.1489,8.0828,8.0021,7.9192,7.8369,7.8516,7.8185,7.7289,7.7289,7.7289,7.7289,7.7289,7.7289,7.7289,0.0,0.0,7.7289,7.7289,7.7215,7.7032,7.635,7.6019,7.5799,7.516,7.4903,7.4867,0.0,0.0,0.0,0.0,0.0,0.0,0.0,3.366,3.4848,3.5838,3.6619,3.7172,3.7452,3.7732,0.0,0.0,0.0,0.0,0.0,0.0,0.0,0.0,3.8732,3.894,3.894,3.9339,3.9381,3.9028,0.0,3.8882,3.829,3.8213,3.8501,3.9143,3.9038,3.9644,4.0776,4.1178,4.1493,4.1847,4.2949,4.3896,0.0,0.0,0.0,0.0,4.956,5.1134,5.3018,5.6515,6.0003,6.3331,6.582,6.7393,6.8531,6.9339,7.011,7.0903,7.1711,7.2496,7.312,7.312,7.2532,7.088,6.6823,0.0,0.0,0.0,5.7478,5.801,5.7998,6.0963,6.4122,6.6489,6.9655,7.2947,7.6117,7.6998,0.0,8.0131,0.0,0.0,0.0,0.0,0.0,0.0,0.0,0.0,8.3381,8.2627,8.1819,8.1048,8.0645,7.9837,7.8589,7.8589,7.8185,7.7289,7.7289,7.7289,7.7289,7.7289,7.7289,7.7289,0.0,0.0,7.7289,7.7289,7.7289,7.7252,7.6885,7.6702,7.6665,7.6298,7.6151,7.6078,0.0,0.0,0.0,0.0,0.0,0.0,0.0,3.4072,3.5348,3.7288,3.8181,3.8472,3.8037,3.8505,3.8796,0.0,0.0,0.0,0.0,0.0,0.0,0.0,0.0,0.0,0.0,0.0,0.0,0.0,3.7839,0.0,0.0,0.0,0.0,0.0,3.7577,3.8226,3.9554,4.0141,4.0675,0.0,0.0,4.4193,0.0,0.0,0.0,0.0,0.0,5.1163,5.2976,5.5436,5.8981,6.2983,6.6531,6.8651,6.9921,7.0411,7.0762,7.1216,7.2232,7.2973,7.345,7.345,7.2569,7.0369,6.512,6.2575,0.0,5.4598,5.4651,5.574,5.592,5.9281,6.2455,6.373,6.6765,7.0109,7.3175,7.5029,7.7061,0.0,0.0,0.0,0.0,0.0,0.0,0.0,0.0,0.0,8.3161,8.2553,8.1893,8.1269,8.1085,8.0388,7.914,7.8772,7.8259,7.7582,7.7399,7.7289,7.7289,7.7289,7.7289,7.7289,0.0,0.0,0.0,7.7289,7.7289,7.7289,7.7289,7.7289,7.7289,7.7289,7.7289,7.7215,0.0,0.0,0.0,0.0,0.0,0.0,0.0,3.428,3.5889,3.8019,3.894,3.9588,4.0156,4.0254,4.0074,0.0,0.0,0.0,0.0,0.0,0.0,0.0,0.0,0.0,0.0,0.0,0.0,0.0,0.0,0.0,0.0,0.0,0.0,0.0,0.0,0.0,3.8903,3.8969,0.0,0.0,0.0,0.0,0.0,0.0,0.0,0.0,0.0,4.9825,5.0212,5.5303,5.6877,5.7522,6.2113,6.6028,6.8811,6.8301,6.9068,0.0,7.205,7.2569,7.2606,7.2606,7.0917,6.8162,6.4067,0.0,5.8466,5.4343,5.4651,5.5927,5.666,5.8278,6.0505,6.3496,6.486,6.7478,7.2926,7.5027,7.7212,8.0491,0.0,0.0,0.0,0.0,0.0,0.0,0.0,0.0,0.0,8.2223,8.215,8.2076,8.1379,8.0938,8.0791,7.9323,7.8552,7.8479,7.7693,7.7289,7.7289,7.7289,7.7289,7.7289,0.0,0.0,0.0,7.7289,7.7289,7.7289,7.7289,7.7289,7.7289,7.7289,7.7289,7.7289,0.0,0.0,0.0,0.0,0.0,0.0,3.2894,3.3919,3.5299,3.7455,3.8375,3.9264,4.0398,4.0495,4.0236,0.0,0.0,0.0,0.0,0.0,0.0,0.0,0.0,0.0,0.0,0.0,0.0,0.0,0.0,0.0,0.0,0.0,0.0,0.0,0.0,0.0,0.0,0.0,0.0,0.0,0.0,0.0,0.0,0.0,0.0,0.0,0.0,0.0,4.9927,5.1657,5.3594,5.5259,5.5242,5.8498,6.3093,6.6725,6.8573,6.9962,7.2541,7.3597,7.3949,7.3949,7.138,6.798,6.4532,0.0,5.7822,5.4804,5.4972,5.5923,5.6696,5.7704,5.911,6.1289,6.2353,6.456,6.9263,7.1333,7.4155,7.8972,8.0534,0.0,0.0,0.0,0.0,0.0,0.0,0.0,0.0,8.2186,8.1966,8.1489,8.0681,8.0057,7.9543,7.839,7.7803,7.7803,7.7472,7.7289,7.7289,7.7289,7.7289,7.7289,0.0,0.0,0.0,7.7289,7.7289,7.7289,7.7289,7.7289,7.7289,7.7289,7.7289,7.7289,0.0,0.0,0.0,0.0,0.0,3.139,3.287,3.3841,3.5202,3.7325,3.8278,3.9264,4.0657,4.0625,4.0301,3.9847,0.0,0.0,0.0,0.0,0.0,0.0,0.0,0.0,0.0,0.0,0.0,0.0,0.0,0.0,0.0,0.0,0.0,0.0,0.0,0.0,0.0,0.0,0.0,0.0,0.0,0.0,0.0,0.0,0.0,0.0,0.0,0.0,0.0,0.0,0.0,5.3053,5.105,5.3026,5.7233,6.3229,6.634,6.8579,7.1765,7.356,7.461,7.483,7.1713,6.7833,0.0,0.0,5.7538,5.5383,5.5513,5.6172,5.6697,5.7408,5.8238,5.9268,6.0607,6.2649,6.5898,6.8233,7.1299,0.0,0.0,0.0,0.0,0.0,0.0,0.0,0.0,0.0,0.0,8.2186,8.1929,8.1379,8.0351,7.9633,7.9323,7.7949,7.7436,7.7693,7.7436,7.7289,7.7289,7.7289,7.7289,0.0,0.0,0.0,0.0,7.7289,7.7289,7.7289,7.7289,7.7289,7.7289,7.7289,7.7289,7.7289,0.0,0.0,0.0,0.0,0.0,0.0,3.287,3.4275,3.596,3.8116,3.9037,4.0009,4.145,4.0949,4.0495,4.0495,0.0,0.0,0.0,0.0,0.0,0.0,0.0,0.0,0.0,0.0,0.0,0.0,0.0,0.0,0.0,0.0,0.0,0.0,0.0,0.0,0.0,0.0,0.0,0.0,0.0,0.0,0.0,0.0,0.0,0.0,0.0,0.0,0.0,0.0,0.0,0.0,0.0,5.1235,5.2179,5.6931,6.1589,6.5959,6.923,7.1872,7.3891,7.4683,7.1286,6.7281,6.5649,6.1492,5.7546,5.601,5.6292,5.6799,5.6799,5.7408,5.79,5.7934,5.9938,6.2074,6.3708,6.6708,6.9351,0.0,0.0,0.0,0.0,0.0,0.0,0.0,0.0,0.0,0.0,8.2186,8.2186,8.2186,8.0624,8.0167,8.0975,7.8537,7.7729,7.8589,7.7693,7.7289,7.7289,7.7289,0.0,0.0,0.0,0.0,0.0,7.7289,7.7289,7.7289,7.7289,7.7289,7.7289,7.7289,7.7289,7.7179,0.0,0.0,0.0,0.0,0.0,0.0,0.0,3.4307,3.5636,3.6821,3.7566,3.8537,4.0009,3.9523,3.9313,3.9902,0.0,0.0,0.0,0.0,0.0,0.0,0.0,0.0,0.0,0.0,0.0,0.0,0.0,0.0,0.0,0.0,0.0,0.0,0.0,0.0,0.0,0.0,0.0,0.0,0.0,0.0,0.0,0.0,0.0,0.0,0.0,0.0,0.0,0.0,0.0,0.0,0.0,0.0,0.0,5.3505,5.7565,6.1955,6.5197,6.7379,6.871,6.8469,6.5991,6.3309,6.2242,5.9513,5.703,5.6536,5.663,5.6934,5.7442,5.773,5.8423,6.0094,6.1466,6.2875,6.444,0.0,0.0,7.407,0.0,0.0,0.0,0.0,0.0,0.0,0.0,0.0,0.0,0.0,8.1122,8.0587,8.0073,7.936,7.8463,7.7693,7.7729,7.8589,7.7729,7.7619,7.8185,7.7582,0.0,0.0,0.0,0.0,0.0,7.7289,7.7289,7.7289,7.7289,7.7289,7.7289,7.7289,7.7289,7.7179,0.0,0.0,0.0,0.0,0.0,0.0,0.0,3.4307,3.5474,3.6206,3.6872,3.7843,3.9329,3.8843,3.8829,3.9915,0.0,0.0,0.0,0.0,0.0,0.0,0.0,0.0,0.0,0.0,0.0,0.0,0.0,0.0,0.0,0.0,0.0,0.0,0.0,0.0,0.0,0.0,0.0,0.0,0.0,0.0,4.8241,0.0,0.0,0.0,0.0,0.0,0.0,0.0,0.0,0.0,0.0,0.0,0.0,0.0,5.4659,5.8002,6.1817,6.4191,6.5665,6.5769,6.3509,0.0,6.1358,5.8994,5.6885,5.7161,5.7205,5.734,5.7832,5.79,5.8472,6.028,6.1797,6.3253,6.4775,0.0,0.0,7.5108,0.0,0.0,0.0,0.0,0.0,0.0,0.0,0.0,0.0,0.0,8.0645,7.9816,7.9522,7.8846,7.7803,7.7472,7.7582,7.8112,7.7546,7.7582,7.8112,0.0,0.0,0.0,0.0,0.0,0.0,7.7289,7.7289,7.7289,7.7289,7.7289,7.7289,7.7289,7.7289,7.7179,0.0,0.0,0.0,0.0,0.0,0.0,0.0,0.0,3.5377,3.6141,3.684,3.7843,3.9264,3.8811,3.8944,4.0306,0.0,0.0,0.0,0.0,0.0,0.0,0.0,0.0,0.0,0.0,0.0,0.0,4.2002,4.295,4.2967,0.0,0.0,0.0,0.0,0.0,0.0,0.0,0.0,0.0,4.5152,4.6146,0.0,0.0,0.0,0.0,0.0,0.0,0.0,0.0,0.0,0.0,0.0,0.0,0.0,0.0,0.0,0.0,0.0,6.1749,6.3854,6.5237,6.2808,6.0459,6.1884,5.9421,0.0,5.7629,5.7832,5.79,5.79,5.79,5.8189,5.9057,6.1274,0.0,0.0,6.8152,0.0,0.0,0.0,0.0,0.0,0.0,0.0,0.0,0.0,0.0,0.0,0.0,8.0534,7.9743,7.8919,7.8516,7.8516,7.7693,7.7326,7.7399,7.7326,7.7326,7.7399,0.0,0.0,0.0,0.0,0.0,0.0,7.7289,7.7289,7.7289,7.7289,7.7289,7.7289,7.7289,7.7289,7.7179,0.0,0.0,0.0,0.0,0.0,0.0,0.0,0.0,0.0,0.0,3.6529,3.7649,3.857,3.8505,3.88,0.0,0.0,0.0,0.0,0.0,0.0,0.0,0.0,0.0,0.0,0.0,0.0,4.0674,4.2591,4.3492,4.3541,4.4414,0.0,0.0,0.0,0.0,0.0,0.0,0.0,0.0,4.4152,4.5087,0.0,0.0,0.0,0.0,4.8157,4.8529,0.0,0.0,0.0,0.0,0.0,0.0,0.0,0.0,5.2435,5.2941,5.4679,0.0,5.6832,5.6591,5.6269,5.6065,0.0,5.6673,5.6697,5.6308,5.7103,5.79,5.79,5.79,5.8561,6.0579,0.0,0.0,6.4939,0.0,0.0,0.0,0.0,0.0,0.0,0.0,0.0,0.0,0.0,0.0,0.0,0.0,7.969,7.8919,7.8075,7.7619,7.7619,7.7399,7.7619,7.8295,7.7619,7.7656,7.8259,0.0,0.0,0.0,0.0,0.0,0.0,7.7289,7.7289,7.7289,7.7289,7.7289,7.7289,7.7289,7.7289,7.7179,0.0,0.0,0.0,0.0,0.0,0.0,0.0,0.0,0.0,0.0,0.0,0.0,0.0,0.0,0.0,0.0,0.0,0.0,0.0,0.0,0.0,0.0,0.0,0.0,0.0,0.0,0.0,0.0,0.0,4.3864,0.0,0.0,0.0,0.0,0.0,0.0,0.0,0.0,0.0,0.0,4.3779,0.0,0.0,0.0,0.0,0.0,4.7921,4.836,0.0,4.9781,5.0067,5.0286,0.0,0.0,0.0,0.0,5.2841,5.2942,5.3382,5.4025,5.4566,5.4515,5.4566,5.4786,5.5446,5.5683,5.5784,5.5699,5.6596,5.7408,5.7408,5.797,5.899,0.0,6.2927,0.0,0.0,0.0,0.0,0.0,0.0,0.0,0.0,0.0,0.0,0.0,0.0,0.0,0.0,0.0,7.9449,0.0,7.7766,7.7289,7.7289,7.7289,7.7546,7.8002,7.7546,7.7546,7.8002,0.0,0.0,0.0,0.0,0.0,7.7289,7.7289,7.7289,7.7289,7.7289,7.7289,7.7289,7.7289,7.7289,7.7252,0.0,0.0,0.0,0.0,0.0,0.0,0.0,0.0,0.0,0.0,0.0,0.0,0.0,0.0,0.0,0.0,0.0,0.0,0.0,0.0,0.0,0.0,0.0,0.0,0.0,0.0,0.0,0.0,0.0,0.0,0.0,0.0,0.0,0.0,0.0,0.0,0.0,0.0,0.0,0.0,4.3659,0.0,0.0,0.0,0.0,0.0,0.0,0.0,0.0,5.0423,5.0541,5.0455,5.2367,0.0,0.0,0.0,0.0,0.0,5.3653,5.4313,5.5026,5.5294,5.4972,5.4922,5.619,5.5581,5.4938,5.5564,5.6393,5.7056,5.7318,5.8306,0.0,0.0,0.0,0.0,0.0,0.0,0.0,0.0,0.0,0.0,0.0,0.0,0.0,0.0,0.0,0.0,0.0,0.0,0.0,0.0,7.7693,7.7289,7.7289,7.7289,7.7289,7.7289,7.7289,7.7289,7.7289,7.7289,0.0,0.0,0.0,0.0,7.7289,7.7289,7.7289,7.7289,7.7289,7.7215,7.7142,7.7252,7.7142,7.6922,0.0,0.0,0.0,0.0,0.0,0.0,0.0,0.0,0.0,0.0,0.0,0.0,0.0,0.0,0.0,0.0,0.0,0.0,0.0,0.0,0.0,0.0,0.0,0.0,0.0,0.0,0.0,0.0,0.0,0.0,4.3897,4.5824,4.6035,0.0,0.0,0.0,0.0,0.0,0.0,4.265,4.3073,0.0,0.0,0.0,0.0,0.0,0.0,0.0,0.0,4.9255,4.9695,5.015,5.0523,0.0,0.0,0.0,0.0,0.0,5.4262,5.5465,5.6103,5.4296,5.4228,5.4668,5.4888,5.5243,5.5564,5.5665,5.6799,5.8153,5.9599,5.9401,6.019,0.0,0.0,0.0,0.0,0.0,0.0,0.0,0.0,0.0,0.0,0.0,0.0,0.0,0.0,0.0,0.0,0.0,0.0,0.0,0.0,7.7289,7.7289,7.7289,7.7289,7.7289,7.7289,7.7289,7.7289,7.7289,7.7289,0.0,0.0,0.0,7.7289,7.7289,7.7289,7.7289,7.7289,7.6885,7.6387,7.7069,7.6445,7.527,0.0,0.0,0.0,0.0,0.0,0.0,0.0,0.0,0.0,0.0,0.0,0.0,0.0,0.0,0.0,0.0,0.0,0.0,0.0,0.0,0.0,0.0,0.0,0.0,0.0,0.0,0.0,0.0,0.0,4.4237,4.4334,4.5662,4.5759,4.4755,0.0,0.0,0.0,0.0,0.0,4.3201,0.0,0.0,0.0,0.0,0.0,0.0,0.0,0.0,0.0,0.0,4.983,5.0184,5.0574,0.0,0.0,0.0,0.0,0.0,5.3687,5.4515,5.5001,5.4792,5.5612,5.6381,5.5949,5.6088,5.6238,5.5802,5.7227,5.8961,6.0218,0.0,6.3793,6.8347,0.0,0.0,0.0,0.0,0.0,0.0,0.0,0.0,0.0,0.0,0.0,0.0,0.0,0.0,0.0,0.0,0.0,0.0,0.0,7.7289,7.7289,7.7289,7.7289,7.7289,7.7289,7.7289,7.7289,7.7289,7.7289,0.0,0.0,7.7289,7.7289,7.7289,7.7289,7.7289,7.7289,7.6812,7.6093,7.6041,7.5527,7.4903,0.0,0.0,0.0,0.0,0.0,0.0,0.0,0.0,0.0,0.0,0.0,0.0,0.0,0.0,0.0,0.0,0.0,0.0,0.0,0.0,0.0,0.0,0.0,0.0,0.0,0.0,4.1921,4.2586,4.3508,4.4431,4.5305,4.5824,4.5597,0.0,0.0,0.0,0.0,0.0,0.0,4.3719,0.0,0.0,0.0,0.0,0.0,0.0,0.0,0.0,0.0,0.0,0.0,0.0,0.0,0.0,0.0,5.1623,5.1505,5.1539,5.3078,5.3651,5.4099,5.5444,5.665,5.7575,5.7697,5.7736,5.773,5.7669,5.9181,6.0729,6.1441,6.4124,0.0,7.1281,0.0,0.0,0.0,0.0,0.0,0.0,0.0,0.0,0.0,0.0,0.0,0.0,0.0,0.0,0.0,0.0,0.0,0.0,0.0,0.0,7.7289,7.7289,7.7289,7.7289,7.7289,7.7289,7.7289,7.7289,7.7289,7.7289,7.7289,7.7179,7.7032,7.7032,7.7032,7.6995,7.6812,7.6371,7.5689,7.4683,7.4463,7.4588,0.0,0.0,0.0,0.0,0.0,0.0,0.0,0.0,0.0,0.0,0.0,0.0,0.0,0.0,0.0,0.0,0.0,0.0,0.0,0.0,0.0,0.0,0.0,0.0,0.0,4.1612,4.1921,4.2586,4.4026,4.5419,4.6748,4.6812,4.61,4.4804,0.0,0.0,0.0,0.0,0.0,4.3767,4.4381,0.0,0.0,0.0,0.0,0.0,0.0,0.0,0.0,0.0,0.0,0.0,0.0,0.0,5.0168,5.0236,5.071,5.1539,5.3078,5.4042,5.4791,5.5449,5.5734,5.6624,5.9582,6.0225,6.0848,6.2958,6.4144,0.0,0.0,6.7442,6.9753,7.0053,0.0,0.0,0.0,0.0,0.0,0.0,0.0,0.0,0.0,0.0,0.0,0.0,0.0,0.0,0.0,0.0,0.0,0.0,0.0,0.0,7.7289,7.7289,7.7289,7.7289,7.7289,7.7289,7.7289,7.7289,7.7289,7.7289,7.7289,7.6885,7.6203,7.6203,7.6203,7.613,7.5344,7.505,7.4793,7.3215,7.3156,7.367,0.0,0.0,0.0,0.0,0.0,0.0,0.0,0.0,0.0,0.0,0.0,0.0,0.0,0.0,0.0,0.0,0.0,0.0,0.0,0.0,0.0,0.0,0.0,4.2489,4.2229,4.2213,4.257,4.3282,4.4302,4.529,4.6212,4.6212,0.0,0.0,0.0,0.0,0.0,0.0,0.0,4.4722,4.4977,4.5586,0.0,0.0,0.0,0.0,0.0,0.0,0.0,0.0,4.9018,4.9018,4.9018,4.9187,4.9492,4.9981,4.9965,5.0153,5.1641,5.2669,5.3664,5.532,5.6099,5.7132,5.9835,6.1638,6.2978,6.3851,6.6217,0.0,0.0,0.0,7.2278,0.0,0.0,0.0,0.0,0.0,0.0,0.0,0.0,0.0,0.0,0.0,0.0,0.0,0.0,0.0,0.0,0.0,0.0,0.0,0.0,0.0,0.0,7.6555,7.6555,7.6555,7.7069,7.7289,7.7289,7.7289,7.7289,7.7289,7.6775,7.6387,7.6093,7.6093,7.6093,7.6019,7.5197,7.4588,7.4037,7.2899,7.2679,7.2899,0.0,0.0,0.0,0.0,0.0,0.0,0.0,0.0,0.0,0.0,0.0,0.0,0.0,0.0,0.0,0.0,0.0,0.0,0.0,0.0,0.0,0.0,0.0,4.2375,4.2586,4.2586,4.2942,4.3703,4.4431,4.5144,4.5791,0.0,0.0,0.0,0.0,0.0,0.0,0.0,0.0,0.0,4.5448,4.6173,0.0,0.0,0.0,0.0,0.0,0.0,0.0,0.0,4.9018,4.9018,4.9018,4.9018,4.9086,4.9593,4.9727,5.001,5.1222,5.2135,5.3221,5.524,5.634,5.77,6.0859,6.3282,6.5134,6.608,6.8075,6.9757,7.0238,0.0,0.0,0.0,0.0,0.0,0.0,0.0,0.0,0.0,0.0,0.0,0.0,0.0,0.0,0.0,0.0,0.0,0.0,0.0,0.0,0.0,0.0,0.0,0.0,7.5726,7.5726,7.5726,7.6261,7.6665,7.6922,7.6922,7.6775,7.6518,7.5983,7.5579,7.5322,7.5322,7.5175,7.4918,7.4661,7.4037,7.323,7.2716,7.2496,7.2496,0.0,0.0,0.0,0.0,0.0,0.0,0.0,0.0,0.0,0.0,0.0,0.0,0.0,0.0,0.0,0.0,0.0,0.0,0.0,0.0,0.0,0.0,0.0,4.1921,4.2586,4.2586,4.299,4.3703,4.4431,4.5111,4.5759,4.5111,0.0,0.0,0.0,0.0,0.0,0.0,0.0,0.0,4.5729,4.6289,4.642,0.0,0.0,0.0,0.0,0.0,0.0,0.0,4.9018,4.9018,4.9018,4.9018,4.9018,4.9018,5.0084,5.1457,5.2171,5.2919,5.3832,5.5327,5.6326,5.816,6.3014,6.5338,6.743,7.0683,6.9995,6.9317,7.0938,0.0,0.0,0.0,0.0,0.0,0.0,0.0,0.0,0.0,0.0,0.0,0.0,0.0,0.0,0.0,0.0,0.0,0.0,0.0,0.0,0.0,0.0,0.0,0.0,7.4903,7.4903,7.4903,7.4903,7.5307,7.6093,7.6093,7.5652,7.4903,7.4903,7.4441,7.3722,7.3722,7.323,7.2606,7.3377,7.3193,7.2496,7.2496,7.2496,7.2496,0.0,0.0,0.0,0.0,0.0,0.0,0.0,0.0,0.0,0.0,0.0,0.0,0.0,0.0,0.0,0.0,0.0,0.0,0.0,0.0,0.0,0.0,0.0,0.0,0.0,0.0,4.3476,4.3703,4.3913,4.414,0.0,0.0,0.0,4.2958,0.0,0.0,0.0,0.0,0.0,0.0,4.5343,4.5988,0.0,0.0,0.0,0.0,0.0,0.0,0.0,0.0,0.0,0.0,4.9018,4.9713,5.0322,4.9323,5.0051,5.1172,5.0881,5.1711,5.316,5.5243,5.7156,5.9659,6.3964,6.5742,6.7907,7.2812,7.2541,7.1717,7.2694,0.0,0.0,0.0,0.0,0.0,0.0,0.0,0.0,0.0,0.0,0.0,0.0,0.0,0.0,0.0,0.0,0.0,0.0,0.0,0.0,0.0,0.0,0.0,0.0,0.0,7.4074,7.4074,7.4074,7.4478,7.527,7.527,7.5124,7.4867,7.4294,7.3927,7.3722,7.3722,7.3575,7.3377,7.3597,7.3193,7.2496,7.2496,7.2496,7.2496,0.0,0.0,0.0,0.0,0.0,0.0,0.0,0.0,0.0,0.0,3.852,0.0,0.0,0.0,0.0,0.0,0.0,0.0,0.0,0.0,0.0,0.0,0.0,0.0,0.0,4.2974,4.3573,0.0,0.0,0.0,0.0,0.0,0.0,4.2619,0.0,4.3212,0.0,0.0,0.0,4.483,4.5566,4.605,4.638,0.0,0.0,0.0,0.0,0.0,0.0,0.0,0.0,0.0,4.9018,4.9627,5.0265,4.9976,5.0738,5.1726,5.2248,5.2984,5.4311,5.6943,5.8676,6.0868,6.5249,6.7614,0.0,0.0,7.3854,7.2915,0.0,0.0,0.0,0.0,0.0,0.0,0.0,0.0,0.0,0.0,0.0,0.0,0.0,0.0,0.0,0.0,0.0,0.0,0.0,0.0,0.0,0.0,0.0,0.0,0.0,0.0,0.0,7.2753,7.2753,7.2826,7.301,7.367,7.3949,7.3913,7.3413,7.323,7.323,7.323,7.323,7.323,7.323,7.2716,7.2041,7.2386,7.2092,7.1651,0.0,0.0,0.0,0.0,0.0,0.0,0.0,0.0,0.0,0.0,3.7932,3.8409,0.0,0.0,0.0,0.0,0.0,0.0,0.0,0.0,0.0,0.0,0.0,0.0,0.0,0.0,0.0,0.0,0.0,0.0,0.0,0.0,4.2586,4.2586,0.0,4.2836,0.0,4.352,4.3831,4.4303,4.5939,4.621,4.5737,4.7075,0.0,0.0,0.0,0.0,0.0,0.0,0.0,0.0,4.9018,4.9086,4.9443,5.0789,5.1696,5.2795,5.5081,5.5694,5.6486,5.9713,6.0861,6.2345,6.6869,7.022,7.3046,7.5395,0.0,7.3413,0.0,0.0,0.0,0.0,0.0,0.0,0.0,0.0,0.0,0.0,0.0,0.0,0.0,0.0,0.0,0.0,0.0,0.0,0.0,0.0,0.0,0.0,0.0,0.0,0.0,0.0,0.0,0.0,7.1197,7.0807,7.0146,7.1615,7.2275,7.2275,7.2349,7.2386,7.2422,7.2459,7.2496,7.2496,7.2422,7.1931,7.138,7.2055,7.1358,7.0293,0.0,0.0,0.0,0.0,0.0,0.0,0.0,0.0,0.0,0.0,0.0,0.0,0.0,0.0,0.0,0.0,0.0,0.0,0.0,0.0,0.0,0.0,0.0,0.0,0.0,0.0,0.0,0.0,0.0,0.0,0.0,0.0,0.0,4.2602,0.0,4.3189,4.352,4.3831,4.4184,4.455,4.4925,4.4973,4.4871,4.5176,4.5669,0.0,0.0,0.0,0.0,0.0,0.0,0.0,4.9018,4.9781,5.0674,5.0438,5.127,5.2683,5.4454,5.5341,5.6689,6.0488,6.3815,6.6755,6.9054,7.0624,7.2041,7.3854,7.4294,0.0,0.0,0.0,0.0,0.0,0.0,0.0,0.0,0.0,0.0,0.0,0.0,0.0,0.0,0.0,0.0,0.0,0.0,0.0,0.0,0.0,0.0,0.0,0.0,0.0,7.1564,7.1564,7.116,0.0,7.0367,7.0257,7.011,7.044,7.0624,7.066,7.127,7.1564,7.16,7.2239,7.2496,7.2459,7.1784,7.1454,7.1233,7.0807,7.0403,7.0146,0.0,0.0,0.0,0.0,0.0,0.0,0.0,0.0,0.0,0.0,0.0,0.0,0.0,0.0,0.0,0.0,0.0,0.0,0.0,0.0,0.0,0.0,0.0,0.0,0.0,0.0,0.0,0.0,0.0,0.0,0.0,0.0,0.0,4.2602,0.0,4.3098,4.3127,4.38,4.4068,4.4079,4.4823,4.4905,4.4649,4.5007,4.5365,4.5669,4.5297,0.0,0.0,0.0,0.0,0.0,0.0,0.0,5.0281,5.0989,5.1729,5.2815,5.5136,5.6563,5.8474,6.2893,6.671,6.9633,7.0477,7.1321,7.2224,7.345,0.0,0.0,0.0,0.0,0.0,0.0,0.0,0.0,0.0,0.0,0.0,0.0,0.0,0.0,0.0,0.0,0.0,0.0,0.0,0.0,0.0,0.0,0.0,0.0,0.0,0.0,7.0734,7.0734,7.033,6.9522,6.9119,6.8765,6.8421,6.9559,7.011,7.011,7.055,7.094,7.1307,7.1358,7.1358,7.1321,7.0881,7.0499,7.0132,7.011,6.9596,6.9059,0.0,0.0,0.0,0.0,0.0,0.0,0.0,0.0,0.0,0.0,0.0,0.0,0.0,0.0,0.0,0.0,0.0,0.0,0.0,0.0,0.0,0.0,0.0,0.0,0.0,0.0,0.0,0.0,0.0,0.0,0.0,0.0,0.0,4.2696,0.0,0.0,4.2655,4.3571,4.3774,4.3524,4.4959,4.5128,4.4682,0.0,0.0,0.0,4.4804,4.5481,4.6616,4.6752,0.0,0.0,0.0,0.0,4.9409,5.1423,5.2057,5.2768,5.5705,5.8126,6.0917,6.5537,6.8825,7.0977,7.1233,7.1821,7.2496,7.3156,0.0,0.0,0.0,0.0,0.0,0.0,0.0,0.0,0.0,0.0,0.0,0.0,0.0,0.0,0.0,0.0,0.0,0.0,0.0,0.0,0.0,0.0,7.0646,0.0,0.0,7.0367,6.9669,6.9559,6.9082,6.8261,6.7724,6.715,6.6586,6.8715,6.9683,6.9669,6.9816,7.0257,7.083,7.033,7.011,7.0073,6.9963,6.9486,6.8972,6.9486,6.8839,6.7884,0.0,0.0,0.0,0.0,0.0,0.0,0.0,0.0,0.0,0.0,3.6299,0.0,0.0,0.0,0.0,0.0,0.0,0.0,0.0,0.0,0.0,0.0,0.0,0.0,0.0,0.0,0.0,0.0,0.0,0.0,0.0,0.0,0.0,4.3019,0.0,0.0,0.0,4.3345,4.3449,4.349,4.4384,4.4702,0.0,0.0,0.0,0.0,0.0,0.0,4.594,4.6583,4.7293,0.0,0.0,0.0,4.9169,5.0122,5.0849,5.1851,5.428,5.854,6.3156,6.6683,6.8385,6.9582,7.0977,0.0,7.149,0.0,0.0,0.0,0.0,0.0,0.0,0.0,0.0,0.0,0.0,0.0,0.0,0.0,0.0,0.0,0.0,0.0,0.0,0.0,0.0,0.0,0.0,6.9215,6.9486,7.0073,6.8862,0.0,6.8031,6.732,6.6586,6.5802,6.6366,6.6586,6.6512,6.7554,6.8031,6.8068,6.8752,6.9105,6.9265,6.9853,7.011,7.0036,6.9339,6.9009,6.8825,6.8251,6.7884,6.7737,0.0,0.0,0.0,0.0,0.0,0.0,0.0,0.0,0.0,0.0,0.0,3.5712,0.0,0.0,0.0,3.5472,3.5597,3.6141,3.7228,3.7584,0.0,0.0,0.0,0.0,0.0,0.0,0.0,0.0,0.0,0.0,0.0,4.2983,4.3448,0.0,0.0,0.0,0.0,0.0,4.3572,4.2895,4.4093,0.0,0.0,0.0,0.0,0.0,0.0,0.0,0.0,4.6413,4.7022,4.7496,4.8646,0.0,0.0,0.0,5.0623,5.21,5.6179,5.9998,6.371,6.743,6.8972,6.9889,7.105,7.1637,7.1821,0.0,0.0,0.0,0.0,0.0,0.0,0.0,0.0,0.0,0.0,0.0,0.0,0.0,0.0,0.0,0.0,0.0,0.0,0.0,0.0,0.0,6.8898,6.8458,6.8164,6.8091,6.7407,0.0,6.6366,6.5999,6.5411,6.464,6.5448,6.5595,6.5191,6.5999,6.71,6.8385,6.8274,6.8495,6.8898,6.8788,6.8765,6.8728,6.8348,6.8238,6.8164,6.7847,6.77,6.77,0.0,0.0,0.0,0.0,0.0,0.0,0.0,0.0,0.0,0.0,0.0,0.0,0.0,0.0,0.0,0.0,3.4713,3.5441,3.6691,3.7099,0.0,0.0,0.0,0.0,0.0,0.0,0.0,0.0,0.0,0.0,4.3002,4.3527,4.4597,0.0,4.5218,0.0,0.0,0.0,0.0,0.0,0.0,0.0,0.0,0.0,0.0,0.0,0.0,0.0,0.0,0.0,0.0,0.0,0.0,4.8578,0.0,0.0,0.0,5.1971,5.6877,5.9707,6.2321,6.6596,6.8576,6.9825,7.1007,0.0,0.0,0.0,0.0,0.0,0.0,0.0,0.0,0.0,0.0,0.0,0.0,0.0,0.0,0.0,0.0,0.0,0.0,0.0,0.0,0.0,0.0,0.0,6.8274,6.7724,6.7026,6.6219,6.5999,6.5595,6.5007,6.4774,6.4371,6.3759,6.4604,6.4677,6.4139,6.4934,6.6279,6.7931,6.7357,6.743,6.7931,6.732,6.7223,6.7407,6.7407,6.7517,6.77,6.77,6.77,6.77,0.0,0.0,0.0,0.0,0.0,0.0,0.0,0.0,0.0,0.0,0.0,0.0,0.0,3.4894,3.4679,3.4163,3.4146,3.4502,3.5247,3.6562,3.7617,0.0,0.0,0.0,0.0,0.0,0.0,0.0,0.0,0.0,4.4144,4.4865,4.6301,4.8251,4.6124,4.4942,4.4485,0.0,0.0,0.0,0.0,0.0,0.0,0.0,0.0,0.0,0.0,0.0,0.0,0.0,0.0,0.0,0.0,0.0,0.0,0.0,0.0,0.0,5.4051,5.6044,5.8367,6.3156,6.6112,6.8427,0.0,0.0,0.0,0.0,0.0,0.0,0.0,0.0,0.0,0.0,0.0,0.0,0.0,0.0,0.0,0.0,0.0,0.0,0.0,0.0,0.0,0.0,0.0,0.0,6.6659,6.6586,6.6182,6.5398,6.4604,6.4213,6.4176,6.3356,6.2903,6.2866,6.3759,6.4139,6.4139,6.4934,6.5362,6.5472,6.5435,6.5435,6.5472,6.5435,6.5888,6.6549,6.6549,6.7026,6.77,6.77,6.77,6.77,0.0,0.0,0.0,0.0,0.0,0.0,0.0,0.0,0.0,0.0,0.0,0.0,0.0,3.5011,3.4739,3.4386,3.4201,3.4619,3.5817,3.64,3.7177,3.8343,0.0,0.0,0.0,0.0,0.0,0.0,0.0,4.0849,4.2848,4.3517,4.4993,4.7026,4.5723,4.5196,4.5229,4.393,0.0,0.0,0.0,0.0,0.0,0.0,0.0,0.0,0.0,0.0,0.0,0.0,0.0,0.0,0.0,0.0,0.0,0.0,4.8562,5.0436,5.2105,5.4012,5.6382,6.0217,6.2551,6.4381,6.6256,6.8278,0.0,0.0,0.0,0.0,0.0,0.0,0.0,0.0,0.0,0.0,0.0,0.0,0.0,0.0,0.0,0.0,0.0,0.0,0.0,0.0,0.0,0.0,6.5765,6.5228,6.4567,6.371,6.3417,6.3282,6.3282,6.1912,6.1765,6.2793,6.2585,6.2768,6.3282,6.3563,6.371,6.371,6.371,6.4297,6.5325,6.5852,6.6256,6.6549,6.7076,6.7444,6.77,6.77,6.77,6.77,0.0,0.0,0.0,0.0,0.0,0.0,0.0,0.0,0.0,0.0,0.0,0.0,0.0,0.0,3.497,3.4894,3.4836,3.5266,3.6225,3.6516,3.7034,3.7973,3.9394,0.0,0.0,0.0,0.0,0.0,0.0,0.0,0.0,4.2646,4.3968,4.5667,4.463,4.488,0.0,0.0,0.0,4.4148,0.0,0.0,4.412,0.0,0.0,0.0,0.0,0.0,0.0,0.0,0.0,0.0,0.0,0.0,0.0,0.0,0.0,0.0,5.0381,5.2021,5.4338,5.7792,5.9615,6.1271,6.3877,0.0,0.0,0.0,0.0,0.0,0.0,0.0,0.0,0.0,0.0,0.0,0.0,0.0,0.0,0.0,0.0,0.0,0.0,0.0,0.0,0.0,0.0,0.0,6.5325,6.453,6.3686,6.2829,6.2279,6.2132,6.2389,6.1068,6.0921,6.1985,6.1447,6.163,6.2401,6.2401,6.2536,6.2793,6.2793,6.3417,6.4481,6.5044,6.5595,6.6145,6.6696,6.7223,6.77,6.77,6.77,6.77,0.0,0.0,0.0,0.0,0.0,0.0,0.0,0.0,0.0,0.0,0.0,0.0,0.0,0.0,0.0,3.5595,3.6052,3.6303,3.6322,3.6937,3.7325,3.7325,3.8732,0.0,0.0,0.0,0.0,0.0,0.0,0.0,0.0,0.0,4.3525,4.4499,4.301,4.3958,4.665,0.0,4.5635,4.5546,0.0,4.3512,4.4495,0.0,0.0,0.0,4.7145,4.745,0.0,0.0,0.0,0.0,0.0,0.0,0.0,0.0,0.0,0.0,0.0,0.0,0.0,5.583,5.7401,5.9223,6.3822,0.0,0.0,0.0,0.0,0.0,0.0,0.0,0.0,0.0,0.0,0.0,0.0,0.0,0.0,0.0,0.0,0.0,0.0,0.0,0.0,0.0,0.0,6.6109,6.5251,6.442,6.3613,6.2793,6.1178,6.075,6.1557,6.075,6.0346,6.0419,6.0382,6.0786,6.1606,6.1606,6.2034,6.2793,6.2793,6.2793,6.2793,6.2829,6.3783,6.5251,6.5288,6.6256,6.7664,6.7664,6.7664,6.77,0.0,0.0,0.0,0.0,0.0,0.0,0.0,0.0,0.0,0.0,0.0,0.0,0.0,0.0,0.0,3.6396,3.6496,3.6724,3.7015,3.7196,3.7552,3.8084,3.9005,3.9491,0.0,0.0,0.0,0.0,0.0,0.0,0.0,0.0,0.0,0.0,4.3288,4.3558,4.4268,4.2997,0.0,0.0,4.4304,4.46,0.0,0.0,0.0,0.0,0.0,4.6783,0.0,0.0,4.7392,4.7632,0.0,0.0,0.0,0.0,0.0,0.0,4.7361,0.0,0.0,0.0,0.0,0.0,5.6343,5.8651,0.0,0.0,0.0,0.0,0.0,0.0,0.0,0.0,0.0,0.0,0.0,0.0,0.0,0.0,0.0,0.0,0.0,0.0,0.0,0.0,6.5778,6.4995,6.3563,6.2181,6.1594,6.1924,5.9795,5.9318,6.0713,5.9355,5.9245,6.037,5.982,6.0272,6.1606,6.1606,6.2034,6.2793,6.2793,6.2793,6.2866,6.3466,6.4016,6.4494,6.5068,6.5925,6.6843,6.6843,6.7187,6.77,0.0,0.0,0.0,0.0,0.0,0.0,0.0,0.0,0.0,0.0,0.0,0.0,0.0,0.0,0.0,0.0,3.7446,3.7619,3.7741,3.7746,3.7954,3.8375,3.8811,3.9387,4.0102,0.0,0.0,0.0,0.0,0.0,0.0,0.0,0.0,0.0,0.0,0.0,0.0,0.0,0.0,0.0,4.4619,0.0,0.0,4.6714,4.6984,0.0,0.0,0.0,4.9091,4.8063,4.796,0.0,0.0,0.0,0.0,0.0,0.0,0.0,0.0,0.0,0.0,0.0,0.0,0.0,5.4168,5.6129,5.8272,0.0,0.0,0.0,0.0,0.0,0.0,0.0,0.0,0.0,0.0,0.0,0.0,0.0,0.0,0.0,0.0,0.0,0.0,0.0,6.5191,6.42,6.2866,6.1251,6.0786,6.1569,5.9256,5.8621,5.9893,5.8657,5.8474,5.9391,5.8902,5.938,6.0603,6.0933,6.1557,6.2291,6.2291,6.2499,6.2793,6.2989,6.3478,6.4139,6.4604,6.5485,6.6512,6.6512,6.699,6.77,0.0,0.0,0.0,0.0,0.0,0.0,0.0,0.0,0.0,0.0,0.0,0.0,0.0,0.0,0.0,0.0,3.873,3.8785,3.8632,3.8482,0.0,3.8506,3.8515,3.9325,4.1009,4.0385,0.0,0.0,0.0,0.0,0.0,0.0,0.0,0.0,0.0,0.0,0.0,0.0,0.0,4.3484,4.4725,4.5409,0.0,0.0,4.8442,0.0,4.9236,5.0359,5.1232,4.9072,4.798,0.0,0.0,0.0,0.0,0.0,4.6796,0.0,0.0,0.0,0.0,0.0,0.0,0.0,5.458,5.5229,5.6133,0.0,0.0,0.0,0.0,0.0,0.0,0.0,0.0,0.0,0.0,0.0,0.0,0.0,0.0,0.0,0.0,0.0,6.5655,6.6182,6.4763,6.3466,6.2719,6.1141,6.0603,6.13,5.9171,5.8327,5.9049,5.8364,5.7997,5.7997,5.7997,5.8437,5.9221,5.993,6.0713,6.1484,6.1484,6.1924,6.2609,6.1887,6.2511,6.3943,6.3943,6.4897,6.6219,6.6329,6.688,6.759,0.0,0.0,0.0,0.0,0.0,0.0,0.0,0.0,0.0,0.0,0.0,0.0,0.0,0.0,0.0,0.0,0.0,3.9379,0.0,0.0,3.8586,3.9034,3.9196,3.9913,4.1295,4.1177,4.1645,0.0,0.0,0.0,0.0,0.0,0.0,0.0,0.0,0.0,0.0,0.0,0.0,4.3357,4.4718,0.0,4.7057,4.7979,4.835,4.837,4.8497,4.8749,4.8962,0.0,4.8024,4.7393,0.0,0.0,0.0,0.0,0.0,0.0,0.0,0.0,0.0,0.0,0.0,0.0,4.975,5.1564,5.3799,0.0,0.0,0.0,0.0,0.0,0.0,0.0,0.0,0.0,0.0,0.0,0.0,0.0,0.0,0.0,0.0,0.0,6.5778,6.4653,6.3038,6.201,6.1851,6.0297,5.9526,5.9673,5.8584,5.807,5.8217,5.807,5.7997,5.7997,5.7997,5.8437,5.9196,5.938,5.9857,6.0639,6.0639,6.108,6.1814,6.1667,6.2181,6.305,6.305,6.3686,6.4653,6.5301,6.6035,6.6843,0.0,0.0,0.0,0.0,0.0,0.0,0.0,0.0,0.0,0.0,0.0,0.0,0.0,0.0,0.0,0.0,0.0,0.0,0.0,0.0,3.9902,4.0329,4.0428,4.1045,4.2152,4.2024,4.2365,4.3216,0.0,0.0,0.0,0.0,0.0,0.0,0.0,0.0,0.0,0.0,4.3528,4.3853,4.527,0.0,4.6865,4.7909,4.8296,4.8296,4.8296,4.8296,4.8441,4.932,4.9155,0.0,0.0,4.7533,4.7512,0.0,4.7684,4.836,0.0,0.0,0.0,4.9406,0.0,0.0,0.0,5.0393,5.1776,5.351,0.0,0.0,0.0,0.0,0.0,0.0,0.0,0.0,0.0,0.0,0.0,0.0,0.0,0.0,0.0,0.0,6.5228,6.3576,6.2291,6.1606,6.1606,6.0077,5.9196,5.9196,5.8437,5.7997,5.7997,5.7997,5.7997,5.7997,5.7997,5.8217,5.8609,5.9013,5.9416,5.9783,5.9783,6.0272,6.097,6.0566,6.1117,6.2254,6.2646,6.3319,6.4213,6.4995,6.5815,6.6623,4.0113,0.0,0.0,0.0,0.0,0.0,0.0,0.0,0.0,0.0,0.0,0.0,0.0,0.0,0.0,0.0,0.0,0.0,0.0,0.0,0.0,4.1612,4.1657,4.2108,4.3016,4.2898,4.3075,4.3626,4.3404,4.3418,0.0,0.0,0.0,0.0,0.0,0.0,0.0,0.0,0.0,4.4583,0.0,4.6224,4.6176,4.7587,4.8114,4.8134,4.8084,4.8186,4.8507,4.9718,0.0,4.9469,4.8249,4.866,0.0,0.0,0.0,0.0,0.0,0.0,0.0,0.0,0.0,4.8739,0.0,0.0,0.0,5.2065,0.0,0.0,0.0,0.0,0.0,0.0,0.0,0.0,0.0,0.0,0.0,0.0,0.0,0.0,0.0,0.0,6.4077,6.2903,6.1777,6.119,6.1374,5.982,5.8976,5.8976,5.8327,5.7997,5.7997,5.7997,5.7997,5.7997,5.7997,5.7997,5.8033,5.8682,5.8976,5.8976,5.8976,5.9416,6.0114,5.949,6.015,6.1667,6.2328,6.3099,6.398,6.4921,6.5692,6.6402,4.0113,4.0641,0.0,0.0,0.0,0.0,0.0,0.0,0.0,0.0,0.0,0.0,0.0,0.0,0.0,0.0,0.0,0.0,4.3935,0.0,0.0,0.0,4.2266,4.2648,4.3156,4.3666,4.4092,4.4465,4.4437,4.4437,0.0,0.0,0.0,0.0,4.3962,0.0,0.0,0.0,4.439,0.0,4.5914,4.587,0.0,4.6942,4.7491,4.7482,4.728,4.7709,4.8229,0.0,4.8541,4.9622,0.0,4.9093,0.0,0.0,0.0,0.0,0.0,0.0,0.0,0.0,5.0961,0.0,0.0,0.0,4.9787,4.8805,0.0,0.0,0.0,0.0,0.0,0.0,0.0,0.0,0.0,0.0,0.0,0.0,0.0,0.0,0.0,0.0,0.0,6.2756,6.0737,5.9783,6.0493,5.9024,5.8143,5.8143,5.8033,5.7997,5.7997,5.7997,5.7997,5.7997,5.7997,5.7997,5.7997,5.8107,5.8143,5.8143,5.8143,5.8584,5.9343,5.9233,6.015,6.1606,6.1704,6.2218,6.3123,6.4701,6.5362,6.5655,4.073,4.1001,0.0,0.0,0.0,0.0,0.0,0.0,0.0,0.0,0.0,0.0,0.0,0.0,0.0,0.0,0.0,4.3594,0.0,0.0,0.0,0.0,0.0,0.0,4.3991,4.4256,4.4474,4.4615,4.4615,4.4615,4.4615,0.0,0.0,0.0,4.4203,0.0,4.3791,0.0,0.0,0.0,0.0,0.0,0.0,4.7425,4.7644,4.7153,4.6607,4.6617,4.6947,0.0,4.8258,0.0,0.0,0.0,0.0,0.0,0.0,0.0,0.0,0.0,0.0,0.0,0.0,0.0,0.0,0.0,4.8188,0.0,0.0,0.0,0.0,0.0,0.0,0.0,0.0,0.0,0.0,0.0,0.0,0.0,0.0,0.0,0.0,0.0,0.0,0.0,0.0,5.9343,5.9673,5.8621,5.7997,5.7997,5.7997,5.7997,5.7997,5.7997,5.7997,5.7997,5.7997,5.7997,5.7997,5.7997,5.7997,5.7997,5.7997,5.818,5.851,5.851,5.9159,6.026,6.0713,6.1692,6.3013,6.4664,6.5288,6.5508,4.1766,0.0,0.0,0.0,0.0,0.0,0.0,0.0,0.0,0.0,0.0,0.0,4.7748,4.6715,0.0,0.0,0.0,4.474,0.0,0.0,4.3903,0.0,0.0,0.0,0.0,0.0,4.4615,4.4615,4.4615,4.4702,4.4905,4.4702,4.4613,0.0,0.0,4.42,4.4132,0.0,0.0,4.5543,4.6282,4.6599,4.6677,4.744,4.7328,4.6682,4.5847,4.57,4.5966,4.6356,4.7731,0.0,4.8523,0.0,0.0,0.0,0.0,0.0,4.9619,0.0,0.0,0.0,0.0,0.0,0.0,0.0,0.0,0.0,0.0,0.0,0.0,0.0,0.0,0.0,0.0,0.0,0.0,0.0,0.0,0.0,0.0,0.0,0.0,0.0,0.0,0.0,5.9236,0.0,5.9196,5.8217,5.7776,5.7997,5.7997,5.7997,5.7997,5.7997,5.7997,5.7997,5.7997,5.7997,5.7997,5.7997,5.7997,5.7997,5.7997,5.7997,5.7997,5.7997,5.8462,5.9269,6.0077,6.1263,6.2683,6.4347,6.5105,6.5508,4.3186,4.3321,0.0,0.0,0.0,0.0,0.0,0.0,0.0,0.0,0.0,0.0,0.0,0.0,0.0,0.0,0.0,4.513,4.6065,0.0,4.38,0.0,0.0,0.0,0.0,0.0,0.0,4.4615,4.4615,4.4973,4.5669,4.4939,4.4987,4.5625,4.4728,4.4287,4.4341,4.4788,4.5457,4.623,4.6827,4.7066,4.7009,0.0,4.6131,4.5847,4.503,0.0,0.0,4.516,4.6484,0.0,0.0,0.0,0.0,0.0,0.0,0.0,0.0,0.0,0.0,0.0,0.0,0.0,0.0,0.0,4.7767,0.0,0.0,0.0,0.0,0.0,0.0,0.0,0.0,0.0,0.0,0.0,0.0,0.0,0.0,0.0,0.0,0.0,0.0,0.0,5.8203,0.0,5.9123,5.7691,5.7189,5.796,5.7997,5.7997,5.7997,5.7997,5.7997,5.7997,5.7997,5.7997,5.7997,5.7997,5.7997,5.7997,5.7997,5.7997,5.7997,5.7997,5.8462,5.9269,6.0077,6.0896,6.1851,6.3515,6.464,6.5398,0.0,0.0,0.0,0.0,0.0,0.0,0.0,4.694,0.0,0.0,0.0,0.0,0.0,0.0,4.9012,0.0,0.0,4.6534,4.5294,4.5319,0.0,0.0,0.0,4.5229,0.0,0.0,0.0,0.0,0.0,4.4736,4.4973,4.4716,4.4736,4.4967,0.0,4.4222,0.0,0.0,0.0,0.0,0.0,4.7633,4.713,0.0,0.0,4.5002,4.4195,4.4093,0.0,4.4665,4.5617,4.6727,4.6757,4.7371,4.8067,4.8107,4.7991,0.0,0.0,0.0,4.9059,4.8528,0.0,0.0,0.0,0.0,0.0,0.0,0.0,0.0,0.0,0.0,0.0,0.0,0.0,0.0,0.0,0.0,0.0,0.0,0.0,0.0,0.0,0.0,0.0,5.7332,5.6015,5.5684,0.0,5.6822,5.6921,5.7189,5.7703,5.7997,5.7997,5.7997,5.7997,5.7997,5.7997,5.7997,5.7997,5.7997,5.7997,5.7997,5.7997,5.7997,5.7997,5.7997,5.8143,5.8547,5.9869,6.0566,6.108,6.3295,6.4604,6.5472,4.4533,0.0,0.0,0.0,0.0,0.0,0.0,0.0,0.0,0.0,5.0203,0.0,5.2112,0.0,5.0152,0.0,4.8961,4.7526,4.5691,4.5894,0.0,4.46,4.5405,0.0,0.0,0.0,0.0,0.0,0.0,4.5379,4.5379,4.4838,4.4736,4.4987,0.0,4.4274,4.4103,0.0,4.6127,0.0,0.0,4.7597,0.0,0.0,4.516,0.0,0.0,4.3506,4.3579,4.4085,4.4819,4.548,4.548,4.607,4.6866,4.7156,4.727,4.7608,4.8729,4.8679,0.0,0.0,4.7933,0.0,0.0,0.0,0.0,0.0,0.0,0.0,0.0,0.0,0.0,0.0,0.0,0.0,0.0,0.0,0.0,0.0,0.0,0.0,0.0,0.0,5.591,5.5682,5.465,5.4484,0.0,0.0,5.6492,5.6774,5.7593,5.7997,5.7997,5.7997,5.7997,5.7997,5.7997,5.7997,5.7997,5.7997,5.7997,5.7997,5.7997,5.7997,5.7997,5.7997,5.7997,5.8143,5.9758,6.0419,6.0676,6.2842,6.4347,6.5508,0.0,0.0,0.0,0.0,4.5359,0.0,0.0,0.0,5.0146,0.0,5.1481,5.2405,5.2307,5.1585,5.1005,5.0852,4.9419,0.0,4.7223,4.6471,0.0,0.0,4.5411,4.5121,4.5055,0.0,0.0,0.0,0.0,0.0,4.6733,4.5311,4.5007,4.5587,4.4905,0.0,4.4116,4.5658,4.6187,4.603,4.6792,4.7094,4.6928,4.5315,0.0,4.4761,4.3843,4.3506,4.3506,4.3506,4.4011,4.4626,4.4626,4.5186,4.5957,4.6792,4.7039,4.7416,4.9087,4.8773,4.8194,4.897,0.0,0.0,0.0,0.0,4.9868,0.0,0.0,0.0,0.0,0.0,0.0,0.0,0.0,0.0,0.0,0.0,0.0,0.0,0.0,0.0,0.0,5.4802,5.4662,5.53,5.3988,5.3781,0.0,0.0,0.0,5.6701,5.7556,5.7997,5.7997,5.7997,5.7997,5.7997,5.7997,5.7997,5.7997,5.7997,5.7997,5.7997,5.7997,5.7997,5.7997,5.7997,5.8033,5.8217,5.9795,6.0456,6.0701,6.2316,6.393,6.5508,4.5466,4.6433,4.7447,0.0,4.7509,4.7692,0.0,0.0,0.0,0.0,5.338,5.3952,5.3849,5.3641,5.2999,5.1808,5.1307,0.0,0.0,0.0,0.0,4.5993,4.6899,4.6964,4.5895,4.6735,0.0,4.6286,0.0,0.0,4.5974,4.5602,4.5229,4.4871,0.0,0.0,4.4081,4.5081,4.6008,4.6828,4.7003,4.7156,0.0,0.0,4.4789,4.4782,4.3852,4.3506,4.3506,4.3506,4.3653,4.38,4.38,4.3947,4.4387,4.581,4.6214,4.6581,4.8196,4.8417,4.825,4.8308,4.8105,4.7909,0.0,0.0,0.0,0.0,0.0,0.0,0.0,0.0,0.0,0.0,0.0,0.0,0.0,0.0,0.0,0.0,0.0,0.0,5.2983,5.2335,5.1874,5.2164,5.1179,0.0,0.0,0.0,0.0,5.5893,5.7262,5.7997,5.7997,5.7997,5.7997,5.7997,5.7997,5.7997,5.7997,5.7997,5.7997,5.7997,5.7997,5.7997,5.7997,5.7997,5.8364,5.8976,6.0015,6.1141,6.2389,6.404,6.4921,6.5508,4.6737,0.0,0.0,5.0777,0.0,0.0,5.0957,0.0,0.0,5.3207,5.4,0.0,5.3916,5.3875,5.3371,5.2097,5.1987,0.0,0.0,0.0,0.0,4.7021,4.7489,4.7382,4.6613,4.7062,0.0,4.698,0.0,0.0,4.6177,4.55,4.5007,4.4615,0.0,4.4595,4.4679,4.5702,4.6719,4.764,4.6872,0.0,0.0,4.4949,4.4437,4.4713,4.3832,4.3506,4.3506,4.3506,4.3506,4.3506,4.3506,4.3726,4.4268,4.5516,4.614,4.6682,4.7966,4.8296,4.8263,4.8171,4.8127,4.8179,4.8412,4.8817,4.9389,0.0,0.0,0.0,0.0,0.0,0.0,0.0,0.0,0.0,0.0,0.0,0.0,0.0,0.0,0.0,5.2128,5.0512,4.9924,5.1432,0.0,0.0,0.0,0.0,0.0,5.5676,5.7161,5.7997,5.7997,5.7997,5.7997,5.7997,5.7997,5.7997,5.7997,5.7997,5.7997,5.7997,5.7997,5.7997,5.8033,5.84,5.8792,5.9306,6.0456,6.1704,6.3013,6.4664,6.5288,6.5508,0.0,0.0,0.0,0.0,0.0,0.0,0.0,5.3379,0.0,5.3737,0.0,5.4546,5.3618,5.3508,5.3151,5.2234,0.0,5.151,5.0004,4.9894,4.949,4.8526,4.7783,4.7369,4.7259,4.7202,0.0,0.0,0.0,0.0,4.6766,4.5379,4.4702,4.4615,4.4615,0.0,0.0,4.6594,4.7544,0.0,4.653,4.6388,4.6856,4.4525,4.4085,4.4626,4.3901,4.3579,4.3506,4.3506,4.3579,4.3653,4.3653,4.4195,4.503,4.581,4.6535,4.7259,4.8076,4.8296,4.8296,4.8296,4.8296,4.8489,4.927,4.9417,4.9674,5.0472,4.98,0.0,0.0,0.0,0.0,0.0,0.0,0.0,0.0,0.0,0.0,0.0,0.0,0.0,0.0,4.9382,0.0,0.0,0.0,0.0,0.0,0.0,0.0,0.0,5.7094,0.0,5.8143,0.0,5.8033,5.8143,5.8033,5.7997,5.7997,5.7997,5.7997,5.7997,5.7997,5.7997,5.807,5.8866,5.9306,5.9673,6.119,6.2254,6.316,6.4701,6.5362,6.5668,0.0,0.0,0.0,0.0,0.0,5.5482,5.6036,5.5605,5.545,5.6102,5.6864,0.0,5.5328,5.5181,5.4583,5.3104,5.2994,0.0,0.0,0.0,0.0,4.9454,4.9233,4.882,4.8113,4.7448,4.7574,0.0,0.0,0.0,4.68,4.5906,4.5162,4.4615,4.4615,0.0,4.4354,4.5792,0.0,4.6331,4.603,4.6388,4.6892,4.514,4.459,4.4663,4.4553,4.4048,4.3506,4.3506,4.3938,4.448,4.448,4.5039,4.5847,4.6645,4.7003,4.7259,4.8076,4.8296,4.8296,4.8296,4.8296,4.8333,4.8489,4.8526,4.8783,4.9637,4.9079,4.8435,4.8384,0.0,0.0,0.0,0.0,0.0,0.0,0.0,0.0,0.0,0.0,0.0,0.0,0.0,0.0,0.0,0.0,0.0,0.0,0.0,0.0,0.0,0.0,0.0,0.0,0.0,0.0,5.8976,5.8327,5.7997,5.7997,5.7997,5.7997,5.7997,5.7997,5.7997,5.807,5.8866,5.9967,6.1263,6.2205,6.3135,6.398,6.4958,6.5742,6.6439,0.0,0.0,0.0,0.0,0.0,0.0,0.0,5.6866,0.0,5.6811,5.6785,5.6466,5.5695,5.5218,5.4656,5.3885,5.3434,5.2847,5.206,5.1987,5.1473,5.0261,4.9821,0.0,4.8976,4.7746,4.7617,4.871,0.0,0.0,0.0,4.621,4.55,4.5176,0.0,4.4906,0.0,0.0,0.0,4.6607,4.6533,4.6746,4.6966,4.5764,4.5324,4.5324,4.5324,4.5076,4.4672,4.4268,4.4672,4.5259,4.4847,4.5544,4.6535,4.6498,4.7085,4.7819,4.8186,4.8296,4.8296,4.8296,4.8296,4.8296,4.8296,4.8296,4.8296,4.8306,4.7966,4.7677,4.7575,4.646,0.0,0.0,0.0,0.0,0.0,0.0,0.0,0.0,0.0,0.0,0.0,0.0,0.0,0.0,0.0,0.0,0.0,0.0,0.0,0.0,0.0,0.0,0.0,0.0,0.0,5.8572,5.818,5.7997,5.7997,5.7997,5.7997,5.8033,5.8437,5.84,5.8107,5.9306,6.0774,6.2254,6.2646,6.3319,6.4213,6.4995,6.5815,6.6623,0.0,5.7209,0.0,0.0,5.7716,0.0,0.0,5.7619,5.7776,5.7152,5.6492,5.6025,5.5879,5.528,5.484,5.4656,5.3922,5.3188,5.2538,5.2344,5.1903,5.1096,5.0445,4.9941,4.961,4.8122,4.7715,0.0,0.0,0.0,0.0,0.0,0.0,0.0,0.0,0.0,0.0,0.0,4.7143,4.7254,4.7124,4.7186,4.7259,4.6461,4.6177,4.6177,4.6177,4.6177,4.6067,4.5434,4.5617,4.603,4.5397,4.6195,4.7232,4.6617,4.7315,4.8296,4.8296,4.8296,4.8296,4.8296,4.8296,4.826,4.8076,4.8186,4.8003,4.7049,4.6966,4.7113,4.7113,4.6713,0.0,0.0,0.0,0.0,0.0,0.0,0.0,0.0,0.0,0.0,0.0,0.0,0.0,0.0,0.0,0.0,0.0,0.0,0.0,0.0,0.0,0.0,5.8253,0.0,5.8107,0.0,5.807,5.7997,5.7997,5.7997,5.7997,5.8033,5.8682,5.8792,5.8621,5.9869,6.1361,6.2793,6.2793,6.3417,6.442,6.5081,6.5925,6.6843,0.0,0.0,0.0,0.0,0.0,0.0,0.0,5.7972,5.796,5.7886,5.7813,5.7483,5.6785,5.6627,5.6271,5.5548,5.473,5.4252,5.4179,5.3471,5.2737,5.1914,5.1803,5.1106,4.9647,4.8673,4.7919,0.0,0.0,0.0,0.0,0.0,0.0,0.0,0.0,0.0,0.0,4.594,4.6606,4.711,4.7094,4.7553,4.8113,4.7296,4.7003,4.7003,4.7003,4.7003,4.6966,4.6892,4.6929,4.6966,4.6892,4.7489,4.8186,4.8122,4.8186,4.8296,4.8296,4.8296,4.8296,4.8296,4.8296,4.8113,4.7369,4.7783,4.7856,4.6324,4.6608,4.7113,4.7113,4.7038,4.7532,0.0,0.0,0.0,0.0,0.0,0.0,0.0,0.0,0.0,0.0,0.0,0.0,0.0,0.0,0.0,0.0,0.0,0.0,0.0,0.0,5.6785,5.9086,5.8364,0.0,5.9086,5.8364,5.7997,5.7997,5.7997,5.7997,5.7997,5.807,5.8914,6.0199,6.0346,6.1361,6.2793,6.2793,6.3783,6.5178,6.5251,6.6256,6.759,0.0,0.0,0.0,0.0,0.0,0.0,0.0,5.8017,5.7997,5.7997,5.7997,5.7886,5.7556,5.7068,5.6664,5.6345,5.5133,5.4399,5.4399,5.3654,5.3067,5.2737,5.227,5.1473,5.0325,4.9527,4.8516,0.0,0.0,0.0,0.0,0.0,0.0,0.0,0.0,4.5389,4.5761,4.6458,4.6886,4.7149,4.7636,4.8003,4.826,4.7929,4.7819,4.7819,4.7819,4.7819,4.7819,4.7819,4.7819,4.7746,4.7259,4.7636,4.8223,4.7709,4.7929,4.8296,4.8296,4.8296,4.8296,4.8296,4.8296,4.8223,4.7893,4.7709,4.7416,4.6755,4.6892,4.7113,4.7113,4.748,4.8196,0.0,0.0,0.0,0.0,0.0,0.0,0.0,0.0,0.0,0.0,0.0,0.0,0.0,0.0,0.0,0.0,0.0,0.0,5.5098,0.0,5.6051,5.8474,5.8143,5.8143,5.8474,5.8143,5.7997,5.7997,5.7997,5.8253,5.8719,5.8719,5.9648,6.1117,6.1117,6.1777,6.2793,6.2793,6.382,6.5288,6.5288,6.6329,6.77,5.8007,0.0,5.8294,0.0,5.8217,5.8273,5.8037,5.7997,5.7997,5.7997,5.7997,5.7997,5.7997,5.7483,5.7141,5.7141,5.5684,5.473,5.473,5.3775,5.3214,5.3214,5.2674,0.0,5.1169,5.0592,4.9547,4.7995,4.8672,0.0,0.0,0.0,0.0,0.0,4.572,4.5967,4.6477,4.6924,4.7223,4.7489,4.8076,4.8296,4.8296,4.8296,4.8296,4.8296,4.8296,4.8296,4.8296,4.8296,4.8296,4.8186,4.7636,4.7856,4.8186,4.7636,4.7856,4.8296,4.8296,4.8296,4.8296,4.8296,4.8296,4.8223,4.8003,4.7709,4.7369,4.7149,4.7113,4.7113,4.7113,4.7746,4.8673,0.0,0.0,0.0,0.0,0.0,0.0,0.0,0.0,4.6366,4.6013,0.0,0.0,0.0,0.0,0.0,0.0,0.0,0.0,0.0,0.0,0.0,0.0,0.0,5.7997,5.7997,5.7997,5.7997,5.7997,5.8253,5.8792,5.9563,5.9563,6.0334,6.1606,6.1606,6.2071,6.2829,6.3086,6.404,6.5325,6.5582,6.6512,6.77,5.801,5.8622,5.8916,5.8132,5.8671,5.8927,5.8107,5.7997,5.7997,5.7997,5.7997,5.7997,5.7997,5.7997,5.7997,5.7997,5.6503,5.5585,5.5585,5.4106,5.3214,0.0,0.0,5.281,5.1987,5.1987,5.1179,4.9564,0.0,0.0,4.8501,0.0,0.0,4.7263,4.7273,4.7202,4.7103,4.7113,4.7562,4.8296,4.8296,4.8296,4.8296,4.8296,4.8296,4.8296,4.8296,4.8296,4.8296,4.8296,4.8296,4.8296,4.8296,4.8296,4.8296,4.8296,4.8296,4.8296,4.8296,4.8296,4.8296,4.8296,4.8296,4.8076,4.7296,4.7709,4.8076,4.7259,4.7113,4.7113,4.7113,4.7746,4.8847,5.0498,0.0,0.0,0.0,0.0,0.0,0.0,4.9738,4.9471,4.6205,0.0,0.0,0.0,0.0,0.0,0.0,0.0,0.0,5.3167,5.4766,0.0,5.796,5.7997,5.7997,5.7997,5.7997,5.7997,5.8033,5.8829,5.9636,6.037,6.037,6.086,6.1606,6.1606,6.2071,6.2903,6.3759,6.4567,6.5398,6.6182,6.699,6.77,5.7997,5.8217,5.829,5.8033,5.8217,5.829,5.8033,5.7997,5.7997,5.7997,5.7997,5.7997,5.7997,5.7997,5.7997,0.0,5.6539,5.5585,0.0,5.4106,5.3214,5.3214,5.3214,5.2821,5.2024,5.1987,5.1216,4.961,0.0,0.0,0.0,4.8822,4.8662,4.8855,4.8855,4.8846,4.8783,4.8783,4.86,4.8333,4.894,4.882,4.8406,4.9581,4.9664,4.927,4.9811,4.9994,4.9994,4.9994,4.9627,4.927,4.9848,4.9214,4.8296,4.8296,4.8296,4.8296,4.8296,4.8296,4.8296,4.8296,4.8296,4.8223,4.7966,4.8113,4.8076,4.7259,4.7553,4.7929,4.7929,4.86,4.9527,5.0618,0.0,0.0,0.0,0.0,0.0,0.0,0.0,4.6838,0.0,4.8049,0.0,0.0,0.0,0.0,0.0,0.0,0.0,0.0,5.5361,0.0,5.796,5.7997,5.7997,5.7997,5.7997,5.829,5.8829,5.9086,5.9636,6.0419,6.097,6.1374,6.163,6.2181,6.2572,6.2903,6.3759,6.4604,6.5398,6.6219,6.699,6.77,5.7997,5.7997,5.7997,5.7997,5.7997,5.7997,5.7997,5.7997,5.7997,5.7997,5.7997,5.7997,5.7997,5.7997,0.0,5.7997,5.6822,0.0,5.5622,5.4363,5.3508,5.3214,5.3214,5.2957,5.2454,0.0,0.0,5.0949,5.1179,5.0886,5.0112,4.9593,4.9612,5.0041,5.0041,5.0041,5.0041,5.0041,4.9738,4.9297,4.9821,4.9701,4.9361,5.0388,5.0472,5.0115,5.0618,5.0802,5.0802,5.0802,5.0472,5.0151,5.0655,5.0068,4.9251,4.9251,4.9251,4.9187,4.8857,4.8783,4.871,4.837,4.8296,4.8296,4.8296,4.8296,4.815,4.7636,4.8196,4.8783,4.8783,4.949,5.0298,5.1132,0.0,0.0,0.0,0.0,0.0,0.0,0.0,0.0,0.0,4.894,0.0,0.0,0.0,0.0,0.0,0.0,0.0,5.5171,5.5738,0.0,5.7997,5.7997,5.7997,5.7997,5.8327,5.8866,5.9673,5.9967,6.0554,6.1325,6.1851,6.2034,6.2108,6.2572,6.2976,6.3392,6.4237,6.5044,6.5852,6.6659,6.726,6.77,5.7997,5.7997,0.0,0.0,5.7997,0.0,5.7997,5.7997,5.7997,5.7997,5.7997,5.7997,5.7997,5.7997,5.7997,5.7997,0.0,0.0,0.0,5.4913,5.4142,5.3398,5.3361,0.0,5.3287,5.3287,5.3251,5.3214,5.238,5.1657,5.0986,5.0912,5.0912,5.0986,5.0986,5.0949,5.0875,5.0875,5.0839,5.0802,5.0875,5.0839,5.0802,5.0902,5.0949,5.0875,5.0949,5.0986,5.0986,5.0986,5.0949,5.0875,5.0949,5.0949,5.0875,5.0839,5.0802,5.0655,4.9894,4.9684,4.949,4.8673,4.8416,4.8379,4.8296,4.8343,4.837,4.837,4.9087,4.9684,4.9684,5.0335,5.1132,5.1877,5.206,5.206,5.195,0.0,0.0,0.0,0.0,0.0,0.0,5.1106,5.2097,0.0,0.0,0.0,0.0,0.0,0.0,5.4598,5.6077,5.7262,5.7997,5.7997,5.8033,5.8107,5.8902,5.971,6.0529,6.1263,6.2034,6.2793,6.2793,6.2793,6.2793,6.2793,6.3319,6.4176,6.5007,6.5778,6.6586,6.7407,6.77,6.77,0.0,0.0,5.7997,5.7997,5.7997,5.7997,5.7997,5.7997,5.7997,5.7997,5.7997,5.7997,5.7997,5.7997,5.7997,5.7997,5.7262,5.6701,5.6528,5.5757,5.5218,5.5034,5.5034,5.473,5.4142,5.4106,5.3801,5.3214,5.238,5.2234,5.2627,5.2013,5.205,5.2627,5.2627,5.2307,5.172,5.172,5.1353,5.0839,5.1463,5.1353,5.0949,5.215,5.227,5.1793,5.2407,5.2627,5.2627,5.2627,5.2234,5.183,5.2443,5.2197,5.161,5.0986,5.0802,5.0765,5.0582,5.0508,5.0472,5.0251,4.9747,4.9123,4.8443,4.882,4.9307,4.9307,4.9931,5.0508,5.0508,5.1169,5.1767,5.1987,5.2527,5.2491,5.1242,0.0,0.0,0.0,5.0435,5.1143,4.9757,5.161,5.292,0.0,0.0,0.0,0.0,0.0,5.7057,5.6249,5.7189,5.7813,5.7997,5.7997,5.8327,5.8939,5.971,6.0529,6.13,6.152,6.2034,6.2793,6.2793,6.2793,6.2793,6.2793,6.3319,6.4176,6.5007,6.5778,6.6586,6.7407,6.77,6.77,5.7997,5.7997,5.7997,5.7997,5.7997,5.7997,5.7997,5.7997,5.7997,5.7997,5.7997,5.7997,5.7997,5.7997,5.7997,5.7997,5.7593,5.7189,5.6811,5.6381,5.5978,5.5622,5.5585,5.5401,5.495,5.4961,5.473,5.4289,5.3482,5.3335,5.3728,5.2931,5.2774,5.3214,5.3214,5.2957,5.2564,5.2564,5.2307,5.194,5.238,5.2307,5.2003,5.2884,5.292,5.2601,5.3031,5.3214,5.3214,5.3214,5.292,5.2637,5.3067,5.2884,5.2454,5.205,5.1893,5.182,5.1463,5.1353,5.1242,5.0875,5.0472,5.0041,4.9554,4.9811,5.0151,5.0151,5.0812,5.1353,5.1353,5.2013,5.2564,5.2564,5.292,5.2774,5.1536,5.172,0.0,5.0141,5.1499,5.2344,5.184,5.3298,5.4289,5.4289,0.0,0.0,5.6139,5.7315,5.7619,5.6836,5.7593,5.7997,5.7997,5.8364,5.8756,5.9196,6.037,6.119,6.1594,6.1998,6.2389,6.2793,6.2793,6.2793,6.2793,6.2793,6.3527,6.4677,6.5141,6.6035,6.7113,6.7554,6.77,6.77,5.7997,5.7997,5.7997,5.7997,5.7997,5.7997,5.7997,5.7997,5.7997,5.7997,5.7997,5.7997,5.7997,5.7997,5.7997,5.7997,5.7997,5.7703,5.7031,5.6957,5.6675,5.5989,5.5952,5.5915,5.5768,5.5658,5.5585,5.5585,5.4924,5.4509,5.4399,5.3691,5.3324,5.3214,5.3214,5.3214,5.3214,5.3214,5.3214,5.3214,5.3214,5.3214,5.3214,5.3214,5.3214,5.3214,5.3214,5.3214,5.3214,5.3214,5.3214,5.3214,5.3214,5.3214,5.3214,5.3361,5.3287,5.3067,5.238,5.216,5.1977,5.1169,5.0986,5.0949,5.0839,5.0875,5.0986,5.0986,5.172,5.2354,5.2354,5.2931,5.3398,5.3398,5.3287,5.292,5.2097,0.0,5.2317,5.2207,5.3115,5.3948,5.4509,5.5328,5.5768,5.5768,5.6418,0.0,0.0,5.774,5.7886,5.7178,5.7703,5.807,5.818,5.8976,5.9453,5.96,6.108,6.1777,6.1814,6.2499,6.2793,6.2793,6.2793,6.2793,6.2793,6.2793,6.3783,6.5288,6.5288,6.6292,6.77,6.77,6.77,6.77,5.7997,5.7997,5.7997,5.7997,5.7997,5.7997,5.7997,5.7997,5.7997,5.7997,5.7997,5.7997,5.7997,5.7997,5.7997,5.7997,5.7997,5.796,5.7813,5.7813,5.774,5.7629,5.7629,5.7299,5.6627,5.5952,5.5585,5.5585,5.5475,5.5071,5.4399,5.4289,5.3838,5.3214,5.3214,5.3214,5.3214,5.3214,5.3214,5.3214,5.3214,5.3214,5.3214,5.3214,5.3214,5.3214,5.3214,5.3214,5.3214,5.3214,5.3214,5.3214,5.3214,5.3214,5.3324,5.3995,5.3728,5.3177,5.3067,5.2994,5.2821,5.2013,5.1803,5.1646,5.0949,5.1316,5.1803,5.1803,5.3004,5.4032,5.4032,5.4142,5.4216,5.4216,5.3654,5.292,0.0,0.0,5.3775,5.3104,5.4902,5.6014,5.5475,5.6124,5.6602,5.6602,5.6737,5.7116,5.7776,5.8572,5.8976,5.8829,5.829,5.8327,5.9013,5.982,6.0566,6.1227,6.2169,6.2609,6.2609,6.2756,6.2793,6.2793,6.2793,6.2793,6.2793,6.2793,6.3783,6.5288,6.5288,6.6292,6.77,6.77,6.77,6.77,5.7997,5.7997,5.8143,5.8572,5.8646,5.8646,5.8646,5.8646,5.851,5.807,5.7997,5.7997,5.7997,5.7997,5.7997,5.7997,5.7997,5.7997,5.7997,5.7997,5.7997,5.7997,5.7997,5.7813,5.7446,5.7079,5.6907,5.6907,5.6455,5.6051,5.5684,5.5244,5.462,5.3838,5.3838,5.3618,5.3214,5.3214,5.3214,5.3214,5.3214,5.3214,5.3214,5.3214,5.3214,5.3214,5.3214,5.3214,5.3214,5.3214,5.3214,5.3287,5.3691,5.3838,5.3995,5.4803,5.4473,5.3739,5.3324,5.3214,5.3104,5.2747,5.2637,5.2564,5.2186,5.2711,5.3298,5.3298,5.4226,5.506,5.506,5.506,5.506,5.506,5.4363,0.0,0.0,5.4216,5.4583,5.5086,5.6113,5.6811,5.6895,5.7618,5.7912,5.7483,5.7838,5.8058,5.7997,5.8756,5.9196,5.9196,5.8829,5.9013,5.982,6.0224,6.0786,6.1606,6.2426,6.2793,6.2793,6.2793,6.2793,6.2793,6.2793,6.2793,6.2829,6.3319,6.42,6.5325,6.5778,6.6659,6.77,6.77,6.77,6.77,5.7997,5.8143,5.8462,5.9086,5.9343,5.9416,5.9233,5.9196,5.8902,5.8107,5.8143,5.8217,5.8033,5.818,5.829,5.829,5.8107,5.807,5.8253,5.8107,5.7997,5.7997,5.7997,5.7997,5.7997,5.7997,5.7997,5.7997,5.7373,5.6957,5.6774,5.6161,5.5438,5.4693,5.4693,5.4326,5.3765,5.3765,5.3654,5.3508,5.3691,5.3544,5.3214,5.3398,5.3471,5.3471,5.3471,5.3581,5.3765,5.3765,5.3765,5.3885,5.4473,5.4693,5.484,5.5658,5.5427,5.4766,5.3995,5.3618,5.3508,5.3691,5.3618,5.3544,5.3728,5.4252,5.4693,5.4693,5.5317,5.5879,5.5879,5.5879,5.5879,5.5879,0.0,0.0,0.0,5.5244,5.5427,5.6627,5.6957,5.7336,5.7923,5.8719,5.8939,5.8327,5.8866,5.8939,5.8327,5.9049,5.9636,6.004,5.9673,5.9783,6.037,6.0603,6.108,6.1887,6.2499,6.2793,6.2793,6.2793,6.2793,6.2793,6.2793,6.2793,6.2866,6.3723,6.4567,6.5362,6.6182,6.7003,6.77,6.77,6.77,6.77,5.7997,5.8609,5.9123,5.9184,5.982,6.004,5.9306,5.9196,5.8902,5.8107,5.8646,5.8829,5.807,5.8682,5.9123,5.9123,5.8437,5.8327,5.9049,5.84,5.7997,5.7997,5.7997,5.7997,5.7997,5.7997,5.7997,5.7997,5.7923,5.7519,5.6811,5.6737,5.6271,5.5511,5.5511,5.5475,5.5438,5.5438,5.4987,5.4363,5.5108,5.4509,5.3287,5.4032,5.4326,5.4326,5.4326,5.4803,5.5438,5.5438,5.5438,5.5438,5.5475,5.5511,5.5658,5.6492,5.6664,5.6455,5.5658,5.4876,5.4473,5.5254,5.4851,5.4509,5.5254,5.5475,5.5511,5.5511,5.6161,5.6701,5.6701,5.6701,5.6701,5.6701,0.0,0.0,5.5585,5.6198,5.6664,5.6774,5.7446,5.7923,5.7997,5.8719,5.9196,5.9123,5.9159,5.9159,5.9123,5.9857,6.0994,6.2499,6.1068,6.0346,6.0419,6.1153,6.1924,6.2719,6.2756,6.2793,6.2793,6.2793,6.2793,6.2793,6.2793,6.2793,6.2866,6.3723,6.4567,6.5362,6.6182,6.7003,6.77,6.77,6.77,6.77,5.7997,5.8646,5.9196,5.9196,5.9857,6.0297,6.0003,5.993,5.982,5.9538,5.9747,5.982,5.9538,5.9747,5.993,5.993,5.9196,5.8866,5.9196,5.8437,5.7997,5.7997,5.7997,5.7997,5.7997,5.7997,5.7997,5.7997,5.7997,5.785,5.7556,5.7556,5.7116,5.6345,5.6345,5.6062,5.5585,5.5585,5.5438,5.5181,5.5475,5.5218,5.473,5.5034,5.5144,5.5144,5.5144,5.5328,5.5585,5.5585,5.5585,5.5695,5.6198,5.6345,5.6492,5.7299,5.7556,5.7483,5.7164,5.6136,5.5218,5.5511,5.5365,5.5218,5.5548,5.5989,5.6345,5.6345,5.6969,5.7556,5.7556,5.7556,5.7556,5.7556,0.0,5.6528,5.7017,5.6932,5.7005,5.7483,5.8242,5.8756,5.8756,5.993,6.0493,5.9967,6.0419,6.026,5.9269,5.9967,6.0896,6.2034,6.1949,6.1875,6.1875,6.1704,6.1998,6.2793,6.2793,6.2793,6.2793,6.2793,6.3086,6.3613,6.3613,6.3906,6.4407,6.5264,6.5778,6.6109,6.6916,6.7444,6.77,6.77,6.77,6.77,5.84,5.9233,5.993,5.993,6.0627,6.1068,6.0823,6.0786,6.0676,6.0419,6.0639,6.0676,6.0419,6.0639,6.0786,6.0786,5.982,5.9306,5.9563,5.8584,5.7997,5.7997,5.7997,5.7997,5.7997,5.7997,5.7997,5.7997,5.7997,5.7997,5.7997,5.7997,5.7703,5.7178,5.7178,5.6859,5.6356,5.6356,5.6209,5.5989,5.6246,5.6062,5.5622,5.5879,5.5978,5.5978,5.5978,5.6136,5.6356,5.6356,5.6356,5.6466,5.7005,5.7178,5.7299,5.785,5.7997,5.7997,5.7997,5.7189,5.6356,5.6356,5.6172,5.6051,5.6319,5.6785,5.7178,5.7178,5.7629,5.7997,5.7997,5.7997,5.7997,5.7997,5.7556,5.7373,5.7923,5.7519,5.7373,5.7923,5.8719,5.9196,5.9196,6.0676,6.1374,6.0823,6.13,6.1117,6.0003,6.0493,6.1153,6.1961,6.2499,6.2793,6.2793,6.2254,6.2254,6.2793,6.2793,6.2793,6.2793,6.3086,6.3539,6.4103,6.4347,6.4787,6.5362,6.6182,6.6512,6.6586,6.7407,6.77,6.77,6.77,6.77,6.77,5.9196,6.0493,6.1594,6.1594,6.2254,6.2499,6.1704,6.1606,6.13,6.0529,6.1117,6.13,6.0529,6.1117,6.1606,6.1606,6.015,5.9563,6.0346,5.8877,5.7997,5.7997,5.7997,5.7997,5.7997,5.7997,5.7997,5.7997,5.7997,5.7997,5.7997,5.7997,5.7997,5.7997,5.7997,5.7997,5.7997,5.7997,5.7556,5.6884,5.7666,5.7053,5.5695,5.6528,5.6811,5.6811,5.6811,5.7336,5.7997,5.7997,5.7997,5.7997,5.7997,5.7997,5.7997,5.7997,5.7997,5.7997,5.7997,5.7997,5.7997,5.7997,5.7409,5.7042,5.7813,5.7997,5.7997,5.7997,5.7997,5.7997,5.7997,5.7997,5.7997,5.8033,5.7997,5.7997,5.7997,5.7997,5.7997,5.7997,5.8719,5.9221,5.9196,6.0676,6.1606,6.1606,6.1606,6.1606,6.1606,6.1606,6.1961,6.2756,6.2793,6.2793,6.2793,6.2793,6.2793,6.2793,6.2793,6.2793,6.2829,6.3723,6.4103,6.4176,6.4971,6.5288,6.5362,6.6182,6.6512,6.6586,6.7407,6.77,6.77,6.77,6.77,6.77,5.982,6.0419,6.075,6.075,6.141,6.1887,6.163,6.1606,6.1704,6.2022,6.2279,6.2352,6.2095,6.2279,6.2426,6.2426,6.1484,6.0529,5.9636,5.8584,5.7997,5.7997,5.7997,5.7997,5.7997,5.7997,5.7997,5.7997,5.7997,5.7997,5.7997,5.7997,5.7997,5.7997,5.7997,5.7997,5.7997,5.7997,5.785,5.7666,5.7886,5.7703,5.731,5.7556,5.7629,5.7629,5.7629,5.7813,5.7997,5.7997,5.7997,5.7997,5.7997,5.7997,5.7997,5.7997,5.7997,5.7997,5.7997,5.7997,5.7997,5.7997,5.7813,5.7703,5.796,5.7997,5.7997,5.7997,5.8437,5.8829,5.8829,5.8829,5.9013,5.9612,5.8731,5.8217,5.8756,5.8829,5.8609,5.807,5.9722,6.0676,6.0114,6.1508,6.2426,6.2426,6.1924,6.1851,6.2389,6.1924,6.1961,6.2756,6.2793,6.2793,6.2793,6.2793,6.2793,6.2793,6.2793,6.3123,6.3723,6.3992,6.4727,6.5815,6.6035,6.6476,6.699,6.726,6.7333,6.737,6.7627,6.77,6.77,6.77,6.8068,6.8458,6.0162,6.0676,6.097,6.1288,6.1741,6.2071,6.2071,6.2071,6.2254,6.2756,6.2793,6.2793,6.2793,6.2793,6.2793,6.2793,6.1777,6.0566,5.9269,5.8437,5.7997,5.7997,5.7997,5.7997,5.7997,5.7997,5.7997,5.7997,5.7997,5.7997,5.7997,5.7997,5.7997,5.7997,5.7997,5.7997,5.7997,5.7997,5.7997,5.7997,5.7997,5.7997,5.7997,5.7997,5.7997,5.7997,5.7997,5.7997,5.7997,5.7997,5.7997,5.7997,5.7997,5.7997,5.7997,5.7997,5.7997,5.7997,5.7997,5.7997,5.7997,5.7997,5.7997,5.7997,5.7997,5.8253,5.8462,5.8462,5.9123,5.9673,5.9673,5.9673,5.982,6.0309,5.9575,5.9134,5.96,5.9673,5.949,5.9024,6.0529,6.141,6.0933,6.2022,6.2793,6.2793,6.2365,6.2291,6.2756,6.2352,6.2291,6.2793,6.2793,6.2793,6.2793,6.2793,6.2793,6.2793,6.2793,6.3282,6.4103,6.442,6.5264,6.6512,6.6843,6.726,6.77,6.77,6.77,6.77,6.77,6.77,6.77,6.77,6.8031,6.8385,6.0309,6.1043,6.1777,6.2646,6.2793,6.2793,6.2793,6.2793,6.2793,6.2793,6.2793,6.2793,6.2793,6.2793,6.2793,6.2793,6.1398,6.0187,5.9453,5.8657,5.8217,5.8217,5.8217,5.818,5.8107,5.8033,5.7997,5.7997,5.7997,5.7997,5.7997,5.7997,5.7997,5.7997,5.7997,5.7997,5.7997,5.7997,5.7997,5.7997,5.7997,5.7997,5.7997,5.7997,5.7997,5.7997,5.7997,5.7997,5.7997,5.7997,5.7997,5.7997,5.807,5.8107,5.8107,5.8107,5.8143,5.8217,5.8143,5.8143,5.8217,5.8217,5.8217,5.818,5.8107,5.8719,5.9306,5.9306,5.993,6.0529,6.0529,6.0529,6.0517,6.0591,6.0481,6.0419,6.0493,6.0529,6.0493,6.0419,6.1153,6.1679,6.1606,6.2328,6.2793,6.2793,6.2793,6.2793,6.2793,6.2793,6.2793,6.2793,6.2793,6.2793,6.2793,6.2793,6.2793,6.2793,6.2793,6.327,6.4237,6.4971,6.5778,6.6659,6.737,6.77,6.77,6.77,6.77,6.77,6.77,6.77,6.77,6.77,6.7737,6.7921,6.0933,6.097,6.1117,6.2536,6.2793,6.2793,6.2793,6.2793,6.2793,6.2793,6.2793,6.2793,6.2793,6.2793,6.2793,6.2793,6.1887,6.1263,6.108,6.0346,5.9869,5.9869,5.9869,5.9563,5.8939,5.8327,5.7997,5.7997,5.7997,5.7997,5.7997,5.7997,5.7997,5.7997,5.7997,5.7997,5.7997,5.7997,5.7997,5.7997,5.7997,5.7997,5.7997,5.7997,5.7997,5.7997,5.7997,5.7997,5.7997,5.7997,5.7997,5.8107,5.8756,5.8939,5.8939,5.8939,5.938,5.9758,5.9123,5.938,5.9869,5.9869,5.9869,5.9722,5.9086,5.9563,6.015,6.015,6.0786,6.1337,6.1337,6.1337,6.1557,6.2169,6.1215,6.0639,6.1263,6.1337,6.1117,6.0456,6.1655,6.2291,6.1667,6.2328,6.2793,6.2793,6.2793,6.2793,6.2793,6.2793,6.2793,6.2793,6.2793,6.2793,6.2793,6.2793,6.2793,6.2793,6.2793,6.36,6.5044,6.5215,6.6072,6.7444,6.7627,6.77,6.77,6.77,6.77,6.77,6.77,6.77,6.77,6.77,6.8091,6.8862,6.119,6.1263,6.1374,6.2572,6.2793,6.2793,6.2793,6.2793,6.2793,6.2793,6.2793,6.2793,6.2793,6.2793,6.2793,6.2793,6.2071,6.1606,6.1606,6.086,6.0419,6.0419,6.0419,6.0003,5.9221,5.8792,5.84,5.7997,5.7997,5.7997,5.7997,5.7997,5.7997,5.7997,5.7997,5.7997,5.7997,5.7997,5.7997,5.7997,5.7997,5.7997,5.7997,5.7997,5.7997,5.7997,5.7997,5.7997,5.7997,5.7997,5.8253,5.8646,5.9086,5.9453,5.9783,5.9783,6.0077,6.0297,5.9893,6.0077,6.0419,6.0419,6.0676,6.075,5.9967,6.037,6.097,6.097,6.1594,6.2181,6.2181,6.2181,6.2316,6.2719,6.2095,6.1692,6.2108,6.2181,6.2034,6.1582,6.2279,6.2646,6.2218,6.2536,6.2976,6.3392,6.3013,6.2976,6.3392,6.3013,6.2793,6.2793,6.2793,6.3013,6.3429,6.3013,6.3196,6.4004,6.36,6.409,6.5288,6.5705,6.6549,6.77,6.77,6.77,6.77,6.77,6.77,6.77,6.77,6.77,6.77,6.77,6.8471,6.9596,6.1263,6.1496,6.1704,6.2646,6.2793,6.2793,6.2793,6.2793,6.2793,6.2793,6.2793,6.2793,6.2793,6.2793,6.2793,6.2793,6.2181,6.1814,6.1814,6.119,6.0823,6.0823,6.0823,6.0444,5.9636,5.96,5.9086,5.7997,5.7997,5.7997,5.7997,5.7997,5.7997,5.7997,5.7997,5.7997,5.7997,5.7997,5.7997,5.7997,5.7997,5.7997,5.7997,5.7997,5.7997,5.7997,5.7997,5.7997,5.8033,5.8143,5.8646,5.9269,5.9526,6.0077,6.0603,6.0603,6.0713,6.0786,6.0639,6.0713,6.0823,6.0823,6.13,6.163,6.097,6.1337,6.1851,6.201,6.2438,6.2793,6.2793,6.2793,6.2793,6.2793,6.2793,6.2793,6.2793,6.2793,6.2793,6.2793,6.2793,6.2793,6.2793,6.2939,6.3282,6.3833,6.3356,6.327,6.3833,6.3196,6.2793,6.2793,6.2939,6.3392,6.4103,6.3527,6.393,6.5288,6.4751,6.4861,6.5508,6.6219,6.6953,6.77,6.77,6.77,6.77,6.77,6.77,6.77,6.77,6.77,6.77,6.77,6.8728,7.011,6.1263,6.1043,6.1043,6.2536,6.2793,6.2793,6.2793,6.2793,6.2793,6.2793,6.2793,6.2793,6.2793,6.2793,6.2793,6.2793,6.2683,6.2646,6.2646,6.2536,6.2462,6.2462,6.2462,6.2095,6.13,6.1263,6.0199,5.7997,5.7997,5.7997,5.7997,5.7997,5.7997,5.7997,5.7997,5.7997,5.7997,5.7997,5.7997,5.7997,5.7997,5.7997,5.7997,5.7997,5.7997,5.7997,5.7997,5.7997,5.8107,5.8792,5.9123,5.9453,6.086,6.1337,6.1447,6.1447,6.1924,6.2316,6.163,6.1961,6.2462,6.2462,6.2572,6.2609,6.2499,6.2572,6.2829,6.3625,6.3246,6.2793,6.2793,6.2793,6.2793,6.2793,6.2793,6.2793,6.2793,6.2793,6.2793,6.2793,6.2793,6.2793,6.2793,6.3466,6.3649,6.3013,6.3576,6.3649,6.3013,6.2866,6.2793,6.2793,6.3539,6.3992,6.4103,6.4677,6.5068,6.5288,6.5888,6.6219,6.6329,6.6439,6.6953,6.77,6.77,6.77,6.77,6.77,6.77,6.77,6.77,6.77,6.77,6.77,6.8728,7.011,6.1949,6.1985,6.1949,6.2683,6.2793,6.2793,6.2793,6.2793,6.2793,6.2793,6.2793,6.2793,6.2793,6.2793,6.2793,6.2793,6.2793,6.2793,6.2793,6.2793,6.2793,6.2793,6.2793,6.2426,6.163,6.1606,6.0639,5.8682,5.8682,5.8437,5.7997,5.7997,5.7997,5.7997,5.7997,5.7997,5.7997,5.7997,5.7997,5.7997,5.7997,5.7997,5.7997,5.7997,5.7997,5.807,5.851,5.8682,5.8792,5.96,6.015,6.0676,6.1374,6.1924,6.2291,6.2291,6.2879,6.3356,6.2511,6.3196,6.4077,6.3649,6.3539,6.3649,6.4077,6.3453,6.2903,6.3282,6.305,6.2793,6.2793,6.2793,6.2793,6.2793,6.2793,6.2793,6.2793,6.2793,6.2793,6.2793,6.2793,6.2793,6.2793,6.316,6.3429,6.3503,6.3429,6.3613,6.415,6.3306,6.3233,6.415,6.4127,6.4543,6.5411,6.5338,6.5742,6.6623,6.6549,6.6512,6.6512,6.6953,6.737,6.77,6.77,6.77,6.77,6.77,6.77,6.7737,6.8201,6.8385,6.8385,6.8385,6.9082,7.011]}]]